<?xml version="1.0" encoding="UTF-8" standalone="no" ?>
<gpx xmlns="http://www.topografix.com/GPX/1/1" xmlns:xsi="http://www.w3.org/2001/XMLSchema-instance" xsi:schemaLocation="http://www.topografix.com/GPX/1/1 http://www.topografix.com/GPX/1/1/gpx.xsd" version="1.1" creator="VisuGPX - https://www.visugpx.com">
  <metadata>
    <name>boucle autour de Roz sur Coesnon</name>
    <desc><![CDATA[jolie boucle à proximité du Mont St Michel - très beaux chemins]]></desc>
  </metadata>
  <trk>
    <name><![CDATA[OR-6937789--Roz-sur-Couesnon:Roz-sur Coesnon]]></name>
    <trkseg>
      <trkpt lat="48.58921" lon="-1.58474">
        <ele>11</ele>
        <time>2017-01-13T21:56:59Z</time>
      </trkpt>
      <trkpt lat="48.58914" lon="-1.58475">
        <ele>12</ele>
        <time>2017-01-13T21:58:59Z</time>
      </trkpt>
      <trkpt lat="48.58918" lon="-1.58474">
        <ele>11</ele>
        <time>2017-01-13T22:00:59Z</time>
      </trkpt>
      <trkpt lat="48.58916" lon="-1.58462">
        <ele>11</ele>
        <time>2017-01-13T22:02:59Z</time>
      </trkpt>
      <trkpt lat="48.58922" lon="-1.58455">
        <ele>10</ele>
        <time>2017-01-13T22:04:59Z</time>
      </trkpt>
      <trkpt lat="48.5893" lon="-1.58461">
        <ele>10</ele>
        <time>2017-01-13T22:06:59Z</time>
      </trkpt>
      <trkpt lat="48.58937" lon="-1.58472">
        <ele>10</ele>
        <time>2017-01-13T22:08:59Z</time>
      </trkpt>
      <trkpt lat="48.58943" lon="-1.58488">
        <ele>11</ele>
        <time>2017-01-13T22:10:59Z</time>
      </trkpt>
      <trkpt lat="48.58949" lon="-1.58505">
        <ele>11</ele>
        <time>2017-01-13T22:12:59Z</time>
      </trkpt>
      <trkpt lat="48.58954" lon="-1.58521">
        <ele>11</ele>
        <time>2017-01-13T22:14:59Z</time>
      </trkpt>
      <trkpt lat="48.58959" lon="-1.58536">
        <ele>12</ele>
        <time>2017-01-13T22:16:59Z</time>
      </trkpt>
      <trkpt lat="48.58968" lon="-1.58559">
        <ele>12</ele>
        <time>2017-01-13T22:18:59Z</time>
      </trkpt>
      <trkpt lat="48.58971" lon="-1.5857">
        <ele>12</ele>
        <time>2017-01-13T22:20:59Z</time>
      </trkpt>
      <trkpt lat="48.58982" lon="-1.58598">
        <ele>12</ele>
        <time>2017-01-13T22:22:59Z</time>
      </trkpt>
      <trkpt lat="48.58986" lon="-1.58609">
        <ele>11</ele>
        <time>2017-01-13T22:24:59Z</time>
      </trkpt>
      <trkpt lat="48.58991" lon="-1.58621">
        <ele>11</ele>
        <time>2017-01-13T22:26:59Z</time>
      </trkpt>
      <trkpt lat="48.58995" lon="-1.58631">
        <ele>10</ele>
        <time>2017-01-13T22:28:59Z</time>
      </trkpt>
      <trkpt lat="48.58999" lon="-1.58641">
        <ele>9</ele>
        <time>2017-01-13T22:30:59Z</time>
      </trkpt>
      <trkpt lat="48.59002" lon="-1.58652">
        <ele>9</ele>
        <time>2017-01-13T22:32:59Z</time>
      </trkpt>
      <trkpt lat="48.59006" lon="-1.58661">
        <ele>9</ele>
        <time>2017-01-13T22:34:59Z</time>
      </trkpt>
      <trkpt lat="48.5901" lon="-1.58673">
        <ele>9</ele>
        <time>2017-01-13T22:36:59Z</time>
      </trkpt>
      <trkpt lat="48.59016" lon="-1.58691">
        <ele>10</ele>
        <time>2017-01-13T22:38:59Z</time>
      </trkpt>
      <trkpt lat="48.5902" lon="-1.58704">
        <ele>10</ele>
        <time>2017-01-13T22:40:59Z</time>
      </trkpt>
      <trkpt lat="48.59024" lon="-1.58719">
        <ele>11</ele>
        <time>2017-01-13T22:42:59Z</time>
      </trkpt>
      <trkpt lat="48.59029" lon="-1.58736">
        <ele>11</ele>
        <time>2017-01-13T22:44:59Z</time>
      </trkpt>
      <trkpt lat="48.59042" lon="-1.58773">
        <ele>11</ele>
        <time>2017-01-13T22:46:59Z</time>
      </trkpt>
      <trkpt lat="48.59052" lon="-1.58804">
        <ele>11</ele>
        <time>2017-01-13T22:48:59Z</time>
      </trkpt>
      <trkpt lat="48.59063" lon="-1.58826">
        <ele>10</ele>
        <time>2017-01-13T22:50:59Z</time>
      </trkpt>
      <trkpt lat="48.59068" lon="-1.58837">
        <ele>10</ele>
        <time>2017-01-13T22:52:59Z</time>
      </trkpt>
      <trkpt lat="48.59071" lon="-1.58848">
        <ele>9</ele>
        <time>2017-01-13T22:54:59Z</time>
      </trkpt>
      <trkpt lat="48.59078" lon="-1.58871">
        <ele>9</ele>
        <time>2017-01-13T22:56:59Z</time>
      </trkpt>
      <trkpt lat="48.59083" lon="-1.58883">
        <ele>9</ele>
        <time>2017-01-13T22:58:59Z</time>
      </trkpt>
      <trkpt lat="48.59086" lon="-1.58893">
        <ele>9</ele>
        <time>2017-01-13T23:00:59Z</time>
      </trkpt>
      <trkpt lat="48.5909" lon="-1.58902">
        <ele>9</ele>
        <time>2017-01-13T23:02:59Z</time>
      </trkpt>
      <trkpt lat="48.59092" lon="-1.58916">
        <ele>9</ele>
        <time>2017-01-13T23:04:59Z</time>
      </trkpt>
      <trkpt lat="48.59096" lon="-1.58926">
        <ele>10</ele>
        <time>2017-01-13T23:06:59Z</time>
      </trkpt>
      <trkpt lat="48.591" lon="-1.58935">
        <ele>10</ele>
        <time>2017-01-13T23:08:59Z</time>
      </trkpt>
      <trkpt lat="48.59103" lon="-1.5895">
        <ele>12</ele>
        <time>2017-01-13T23:10:59Z</time>
      </trkpt>
      <trkpt lat="48.5911" lon="-1.58969">
        <ele>13</ele>
        <time>2017-01-13T23:12:59Z</time>
      </trkpt>
      <trkpt lat="48.59117" lon="-1.58983">
        <ele>13</ele>
        <time>2017-01-13T23:14:59Z</time>
      </trkpt>
      <trkpt lat="48.59129" lon="-1.59013">
        <ele>15</ele>
        <time>2017-01-13T23:16:59Z</time>
      </trkpt>
      <trkpt lat="48.59134" lon="-1.59026">
        <ele>15</ele>
        <time>2017-01-13T23:18:59Z</time>
      </trkpt>
      <trkpt lat="48.59138" lon="-1.59038">
        <ele>16</ele>
        <time>2017-01-13T23:20:59Z</time>
      </trkpt>
      <trkpt lat="48.59139" lon="-1.59052">
        <ele>17</ele>
        <time>2017-01-13T23:22:59Z</time>
      </trkpt>
      <trkpt lat="48.5914" lon="-1.59065">
        <ele>18</ele>
        <time>2017-01-13T23:24:59Z</time>
      </trkpt>
      <trkpt lat="48.59145" lon="-1.59075">
        <ele>17</ele>
        <time>2017-01-13T23:26:59Z</time>
      </trkpt>
      <trkpt lat="48.59151" lon="-1.59088">
        <ele>16</ele>
        <time>2017-01-13T23:28:59Z</time>
      </trkpt>
      <trkpt lat="48.59146" lon="-1.59099">
        <ele>19</ele>
        <time>2017-01-13T23:30:59Z</time>
      </trkpt>
      <trkpt lat="48.59146" lon="-1.59101">
        <ele>19</ele>
        <time>2017-01-13T23:32:59Z</time>
      </trkpt>
      <trkpt lat="48.59148" lon="-1.591">
        <ele>18</ele>
        <time>2017-01-13T23:34:59Z</time>
      </trkpt>
      <trkpt lat="48.59142" lon="-1.59096">
        <ele>19</ele>
        <time>2017-01-13T23:36:59Z</time>
      </trkpt>
      <trkpt lat="48.5915" lon="-1.59103">
        <ele>18</ele>
        <time>2017-01-13T23:38:59Z</time>
      </trkpt>
      <trkpt lat="48.59144" lon="-1.591">
        <ele>19</ele>
        <time>2017-01-13T23:40:59Z</time>
      </trkpt>
      <trkpt lat="48.59146" lon="-1.59099">
        <ele>19</ele>
        <time>2017-01-13T23:42:59Z</time>
      </trkpt>
      <trkpt lat="48.59146" lon="-1.59099">
        <ele>19</ele>
        <time>2017-01-13T23:44:59Z</time>
      </trkpt>
      <trkpt lat="48.59156" lon="-1.59104">
        <ele>16</ele>
        <time>2017-01-13T23:46:59Z</time>
      </trkpt>
      <trkpt lat="48.59161" lon="-1.59119">
        <ele>15</ele>
        <time>2017-01-13T23:48:59Z</time>
      </trkpt>
      <trkpt lat="48.59167" lon="-1.59133">
        <ele>14</ele>
        <time>2017-01-13T23:50:59Z</time>
      </trkpt>
      <trkpt lat="48.59173" lon="-1.59147">
        <ele>14</ele>
        <time>2017-01-13T23:52:59Z</time>
      </trkpt>
      <trkpt lat="48.59178" lon="-1.5916">
        <ele>14</ele>
        <time>2017-01-13T23:54:59Z</time>
      </trkpt>
      <trkpt lat="48.59182" lon="-1.59175">
        <ele>15</ele>
        <time>2017-01-13T23:56:59Z</time>
      </trkpt>
      <trkpt lat="48.59186" lon="-1.59188">
        <ele>16</ele>
        <time>2017-01-13T23:58:59Z</time>
      </trkpt>
      <trkpt lat="48.59196" lon="-1.59216">
        <ele>17</ele>
        <time>2017-01-14T00:00:59Z</time>
      </trkpt>
      <trkpt lat="48.59201" lon="-1.59228">
        <ele>17</ele>
        <time>2017-01-14T00:02:59Z</time>
      </trkpt>
      <trkpt lat="48.59205" lon="-1.59242">
        <ele>17</ele>
        <time>2017-01-14T00:04:59Z</time>
      </trkpt>
      <trkpt lat="48.59215" lon="-1.5927">
        <ele>18</ele>
        <time>2017-01-14T00:06:59Z</time>
      </trkpt>
      <trkpt lat="48.5922" lon="-1.59285">
        <ele>18</ele>
        <time>2017-01-14T00:08:59Z</time>
      </trkpt>
      <trkpt lat="48.59225" lon="-1.59298">
        <ele>18</ele>
        <time>2017-01-14T00:10:59Z</time>
      </trkpt>
      <trkpt lat="48.59235" lon="-1.59325">
        <ele>18</ele>
        <time>2017-01-14T00:12:59Z</time>
      </trkpt>
      <trkpt lat="48.5924" lon="-1.59336">
        <ele>17</ele>
        <time>2017-01-14T00:14:59Z</time>
      </trkpt>
      <trkpt lat="48.59246" lon="-1.59351">
        <ele>17</ele>
        <time>2017-01-14T00:16:59Z</time>
      </trkpt>
      <trkpt lat="48.5925" lon="-1.59365">
        <ele>18</ele>
        <time>2017-01-14T00:18:59Z</time>
      </trkpt>
      <trkpt lat="48.59255" lon="-1.59381">
        <ele>20</ele>
        <time>2017-01-14T00:20:59Z</time>
      </trkpt>
      <trkpt lat="48.5926" lon="-1.59397">
        <ele>22</ele>
        <time>2017-01-14T00:22:59Z</time>
      </trkpt>
      <trkpt lat="48.59267" lon="-1.5941">
        <ele>22</ele>
        <time>2017-01-14T00:24:59Z</time>
      </trkpt>
      <trkpt lat="48.59273" lon="-1.59427">
        <ele>23</ele>
        <time>2017-01-14T00:26:59Z</time>
      </trkpt>
      <trkpt lat="48.59279" lon="-1.59441">
        <ele>24</ele>
        <time>2017-01-14T00:28:59Z</time>
      </trkpt>
      <trkpt lat="48.59284" lon="-1.59453">
        <ele>24</ele>
        <time>2017-01-14T00:30:59Z</time>
      </trkpt>
      <trkpt lat="48.59297" lon="-1.59498">
        <ele>25</ele>
        <time>2017-01-14T00:32:59Z</time>
      </trkpt>
      <trkpt lat="48.59299" lon="-1.59512">
        <ele>25</ele>
        <time>2017-01-14T00:34:59Z</time>
      </trkpt>
      <trkpt lat="48.59309" lon="-1.5954">
        <ele>23</ele>
        <time>2017-01-14T00:36:59Z</time>
      </trkpt>
      <trkpt lat="48.59317" lon="-1.59554">
        <ele>20</ele>
        <time>2017-01-14T00:38:59Z</time>
      </trkpt>
      <trkpt lat="48.59321" lon="-1.59568">
        <ele>19</ele>
        <time>2017-01-14T00:40:59Z</time>
      </trkpt>
      <trkpt lat="48.59326" lon="-1.59582">
        <ele>18</ele>
        <time>2017-01-14T00:42:59Z</time>
      </trkpt>
      <trkpt lat="48.59333" lon="-1.59596">
        <ele>15</ele>
        <time>2017-01-14T00:44:59Z</time>
      </trkpt>
      <trkpt lat="48.59339" lon="-1.59612">
        <ele>15</ele>
        <time>2017-01-14T00:46:59Z</time>
      </trkpt>
      <trkpt lat="48.59346" lon="-1.59629">
        <ele>15</ele>
        <time>2017-01-14T00:48:59Z</time>
      </trkpt>
      <trkpt lat="48.59351" lon="-1.59647">
        <ele>15</ele>
        <time>2017-01-14T00:50:59Z</time>
      </trkpt>
      <trkpt lat="48.59356" lon="-1.5966">
        <ele>15</ele>
        <time>2017-01-14T00:52:59Z</time>
      </trkpt>
      <trkpt lat="48.59359" lon="-1.59676">
        <ele>16</ele>
        <time>2017-01-14T00:54:59Z</time>
      </trkpt>
      <trkpt lat="48.59365" lon="-1.59689">
        <ele>16</ele>
        <time>2017-01-14T00:56:59Z</time>
      </trkpt>
      <trkpt lat="48.59367" lon="-1.59704">
        <ele>17</ele>
        <time>2017-01-14T00:58:59Z</time>
      </trkpt>
      <trkpt lat="48.59372" lon="-1.59714">
        <ele>16</ele>
        <time>2017-01-14T01:00:59Z</time>
      </trkpt>
      <trkpt lat="48.59376" lon="-1.59728">
        <ele>16</ele>
        <time>2017-01-14T01:02:59Z</time>
      </trkpt>
      <trkpt lat="48.5938" lon="-1.59741">
        <ele>16</ele>
        <time>2017-01-14T01:04:59Z</time>
      </trkpt>
      <trkpt lat="48.59384" lon="-1.59756">
        <ele>16</ele>
        <time>2017-01-14T01:06:59Z</time>
      </trkpt>
      <trkpt lat="48.59388" lon="-1.59772">
        <ele>17</ele>
        <time>2017-01-14T01:08:59Z</time>
      </trkpt>
      <trkpt lat="48.59393" lon="-1.59785">
        <ele>17</ele>
        <time>2017-01-14T01:10:59Z</time>
      </trkpt>
      <trkpt lat="48.59399" lon="-1.59798">
        <ele>16</ele>
        <time>2017-01-14T01:12:59Z</time>
      </trkpt>
      <trkpt lat="48.59403" lon="-1.59813">
        <ele>16</ele>
        <time>2017-01-14T01:14:59Z</time>
      </trkpt>
      <trkpt lat="48.59407" lon="-1.59827">
        <ele>15</ele>
        <time>2017-01-14T01:16:59Z</time>
      </trkpt>
      <trkpt lat="48.59414" lon="-1.59842">
        <ele>14</ele>
        <time>2017-01-14T01:18:59Z</time>
      </trkpt>
      <trkpt lat="48.59418" lon="-1.59856">
        <ele>14</ele>
        <time>2017-01-14T01:20:59Z</time>
      </trkpt>
      <trkpt lat="48.59421" lon="-1.59871">
        <ele>16</ele>
        <time>2017-01-14T01:22:59Z</time>
      </trkpt>
      <trkpt lat="48.59427" lon="-1.59883">
        <ele>16</ele>
        <time>2017-01-14T01:24:59Z</time>
      </trkpt>
      <trkpt lat="48.59433" lon="-1.59898">
        <ele>17</ele>
        <time>2017-01-14T01:26:59Z</time>
      </trkpt>
      <trkpt lat="48.59438" lon="-1.59914">
        <ele>17</ele>
        <time>2017-01-14T01:28:59Z</time>
      </trkpt>
      <trkpt lat="48.59443" lon="-1.59927">
        <ele>18</ele>
        <time>2017-01-14T01:30:59Z</time>
      </trkpt>
      <trkpt lat="48.59448" lon="-1.59941">
        <ele>18</ele>
        <time>2017-01-14T01:32:59Z</time>
      </trkpt>
      <trkpt lat="48.59453" lon="-1.59954">
        <ele>18</ele>
        <time>2017-01-14T01:34:59Z</time>
      </trkpt>
      <trkpt lat="48.59463" lon="-1.59983">
        <ele>17</ele>
        <time>2017-01-14T01:36:59Z</time>
      </trkpt>
      <trkpt lat="48.59468" lon="-1.59997">
        <ele>17</ele>
        <time>2017-01-14T01:38:59Z</time>
      </trkpt>
      <trkpt lat="48.59474" lon="-1.60011">
        <ele>16</ele>
        <time>2017-01-14T01:40:59Z</time>
      </trkpt>
      <trkpt lat="48.59478" lon="-1.60023">
        <ele>15</ele>
        <time>2017-01-14T01:42:59Z</time>
      </trkpt>
      <trkpt lat="48.59482" lon="-1.60036">
        <ele>15</ele>
        <time>2017-01-14T01:44:59Z</time>
      </trkpt>
      <trkpt lat="48.59487" lon="-1.6005">
        <ele>15</ele>
        <time>2017-01-14T01:46:59Z</time>
      </trkpt>
      <trkpt lat="48.59492" lon="-1.60063">
        <ele>14</ele>
        <time>2017-01-14T01:48:59Z</time>
      </trkpt>
      <trkpt lat="48.59496" lon="-1.60077">
        <ele>13</ele>
        <time>2017-01-14T01:50:59Z</time>
      </trkpt>
      <trkpt lat="48.59504" lon="-1.60103">
        <ele>14</ele>
        <time>2017-01-14T01:52:59Z</time>
      </trkpt>
      <trkpt lat="48.59509" lon="-1.60117">
        <ele>14</ele>
        <time>2017-01-14T01:54:59Z</time>
      </trkpt>
      <trkpt lat="48.59517" lon="-1.60145">
        <ele>15</ele>
        <time>2017-01-14T01:56:59Z</time>
      </trkpt>
      <trkpt lat="48.59526" lon="-1.60176">
        <ele>16</ele>
        <time>2017-01-14T01:58:59Z</time>
      </trkpt>
      <trkpt lat="48.59534" lon="-1.60205">
        <ele>16</ele>
        <time>2017-01-14T02:00:59Z</time>
      </trkpt>
      <trkpt lat="48.59537" lon="-1.60221">
        <ele>16</ele>
        <time>2017-01-14T02:02:59Z</time>
      </trkpt>
      <trkpt lat="48.59538" lon="-1.60236">
        <ele>17</ele>
        <time>2017-01-14T02:04:59Z</time>
      </trkpt>
      <trkpt lat="48.59539" lon="-1.60253">
        <ele>17</ele>
        <time>2017-01-14T02:06:59Z</time>
      </trkpt>
      <trkpt lat="48.59538" lon="-1.60269">
        <ele>18</ele>
        <time>2017-01-14T02:08:59Z</time>
      </trkpt>
      <trkpt lat="48.5954" lon="-1.603">
        <ele>18</ele>
        <time>2017-01-14T02:10:59Z</time>
      </trkpt>
      <trkpt lat="48.59541" lon="-1.60316">
        <ele>18</ele>
        <time>2017-01-14T02:12:59Z</time>
      </trkpt>
      <trkpt lat="48.59542" lon="-1.60332">
        <ele>18</ele>
        <time>2017-01-14T02:14:59Z</time>
      </trkpt>
      <trkpt lat="48.59543" lon="-1.60348">
        <ele>18</ele>
        <time>2017-01-14T02:16:59Z</time>
      </trkpt>
      <trkpt lat="48.59543" lon="-1.60365">
        <ele>17</ele>
        <time>2017-01-14T02:18:59Z</time>
      </trkpt>
      <trkpt lat="48.59544" lon="-1.60381">
        <ele>16</ele>
        <time>2017-01-14T02:20:59Z</time>
      </trkpt>
      <trkpt lat="48.59546" lon="-1.60395">
        <ele>16</ele>
        <time>2017-01-14T02:22:59Z</time>
      </trkpt>
      <trkpt lat="48.59547" lon="-1.6041">
        <ele>15</ele>
        <time>2017-01-14T02:24:59Z</time>
      </trkpt>
      <trkpt lat="48.59547" lon="-1.60425">
        <ele>15</ele>
        <time>2017-01-14T02:26:59Z</time>
      </trkpt>
      <trkpt lat="48.59548" lon="-1.60456">
        <ele>14</ele>
        <time>2017-01-14T02:28:59Z</time>
      </trkpt>
      <trkpt lat="48.59549" lon="-1.60471">
        <ele>14</ele>
        <time>2017-01-14T02:30:59Z</time>
      </trkpt>
      <trkpt lat="48.5955" lon="-1.60487">
        <ele>13</ele>
        <time>2017-01-14T02:32:59Z</time>
      </trkpt>
      <trkpt lat="48.59551" lon="-1.60519">
        <ele>13</ele>
        <time>2017-01-14T02:34:59Z</time>
      </trkpt>
      <trkpt lat="48.59551" lon="-1.60534">
        <ele>14</ele>
        <time>2017-01-14T02:36:59Z</time>
      </trkpt>
      <trkpt lat="48.59551" lon="-1.60548">
        <ele>14</ele>
        <time>2017-01-14T02:38:59Z</time>
      </trkpt>
      <trkpt lat="48.59552" lon="-1.60562">
        <ele>14</ele>
        <time>2017-01-14T02:40:59Z</time>
      </trkpt>
      <trkpt lat="48.59554" lon="-1.60607">
        <ele>15</ele>
        <time>2017-01-14T02:42:59Z</time>
      </trkpt>
      <trkpt lat="48.59555" lon="-1.60622">
        <ele>16</ele>
        <time>2017-01-14T02:44:59Z</time>
      </trkpt>
      <trkpt lat="48.59553" lon="-1.60636">
        <ele>17</ele>
        <time>2017-01-14T02:46:59Z</time>
      </trkpt>
      <trkpt lat="48.59553" lon="-1.6065">
        <ele>18</ele>
        <time>2017-01-14T02:48:59Z</time>
      </trkpt>
      <trkpt lat="48.59553" lon="-1.60665">
        <ele>19</ele>
        <time>2017-01-14T02:50:59Z</time>
      </trkpt>
      <trkpt lat="48.59556" lon="-1.60711">
        <ele>19</ele>
        <time>2017-01-14T02:52:59Z</time>
      </trkpt>
      <trkpt lat="48.59558" lon="-1.60727">
        <ele>19</ele>
        <time>2017-01-14T02:54:59Z</time>
      </trkpt>
      <trkpt lat="48.59558" lon="-1.60742">
        <ele>19</ele>
        <time>2017-01-14T02:56:59Z</time>
      </trkpt>
      <trkpt lat="48.59559" lon="-1.60757">
        <ele>19</ele>
        <time>2017-01-14T02:58:59Z</time>
      </trkpt>
      <trkpt lat="48.59559" lon="-1.6079">
        <ele>19</ele>
        <time>2017-01-14T03:00:59Z</time>
      </trkpt>
      <trkpt lat="48.59559" lon="-1.60807">
        <ele>19</ele>
        <time>2017-01-14T03:02:59Z</time>
      </trkpt>
      <trkpt lat="48.59559" lon="-1.60823">
        <ele>19</ele>
        <time>2017-01-14T03:04:59Z</time>
      </trkpt>
      <trkpt lat="48.59557" lon="-1.60855">
        <ele>20</ele>
        <time>2017-01-14T03:06:59Z</time>
      </trkpt>
      <trkpt lat="48.59553" lon="-1.60871">
        <ele>22</ele>
        <time>2017-01-14T03:08:59Z</time>
      </trkpt>
      <trkpt lat="48.59548" lon="-1.60885">
        <ele>24</ele>
        <time>2017-01-14T03:10:59Z</time>
      </trkpt>
      <trkpt lat="48.59546" lon="-1.60902">
        <ele>25</ele>
        <time>2017-01-14T03:12:59Z</time>
      </trkpt>
      <trkpt lat="48.59544" lon="-1.60917">
        <ele>26</ele>
        <time>2017-01-14T03:14:59Z</time>
      </trkpt>
      <trkpt lat="48.59542" lon="-1.60934">
        <ele>26</ele>
        <time>2017-01-14T03:16:59Z</time>
      </trkpt>
      <trkpt lat="48.59539" lon="-1.60951">
        <ele>27</ele>
        <time>2017-01-14T03:18:59Z</time>
      </trkpt>
      <trkpt lat="48.59537" lon="-1.60968">
        <ele>27</ele>
        <time>2017-01-14T03:20:59Z</time>
      </trkpt>
      <trkpt lat="48.59534" lon="-1.60985">
        <ele>27</ele>
        <time>2017-01-14T03:22:59Z</time>
      </trkpt>
      <trkpt lat="48.59532" lon="-1.61002">
        <ele>28</ele>
        <time>2017-01-14T03:24:59Z</time>
      </trkpt>
      <trkpt lat="48.59531" lon="-1.61018">
        <ele>27</ele>
        <time>2017-01-14T03:26:59Z</time>
      </trkpt>
      <trkpt lat="48.59528" lon="-1.61034">
        <ele>27</ele>
        <time>2017-01-14T03:28:59Z</time>
      </trkpt>
      <trkpt lat="48.59525" lon="-1.61051">
        <ele>27</ele>
        <time>2017-01-14T03:30:59Z</time>
      </trkpt>
      <trkpt lat="48.59523" lon="-1.61069">
        <ele>26</ele>
        <time>2017-01-14T03:32:59Z</time>
      </trkpt>
      <trkpt lat="48.5952" lon="-1.61084">
        <ele>26</ele>
        <time>2017-01-14T03:34:59Z</time>
      </trkpt>
      <trkpt lat="48.59517" lon="-1.611">
        <ele>25</ele>
        <time>2017-01-14T03:36:59Z</time>
      </trkpt>
      <trkpt lat="48.59514" lon="-1.61116">
        <ele>24</ele>
        <time>2017-01-14T03:38:59Z</time>
      </trkpt>
      <trkpt lat="48.5951" lon="-1.61134">
        <ele>22</ele>
        <time>2017-01-14T03:40:59Z</time>
      </trkpt>
      <trkpt lat="48.59502" lon="-1.61162">
        <ele>19</ele>
        <time>2017-01-14T03:42:59Z</time>
      </trkpt>
      <trkpt lat="48.59495" lon="-1.61188">
        <ele>17</ele>
        <time>2017-01-14T03:44:59Z</time>
      </trkpt>
      <trkpt lat="48.59488" lon="-1.61202">
        <ele>16</ele>
        <time>2017-01-14T03:46:59Z</time>
      </trkpt>
      <trkpt lat="48.59482" lon="-1.61216">
        <ele>16</ele>
        <time>2017-01-14T03:48:59Z</time>
      </trkpt>
      <trkpt lat="48.59475" lon="-1.61221">
        <ele>15</ele>
        <time>2017-01-14T03:50:59Z</time>
      </trkpt>
      <trkpt lat="48.59464" lon="-1.61223">
        <ele>16</ele>
        <time>2017-01-14T03:52:59Z</time>
      </trkpt>
      <trkpt lat="48.59455" lon="-1.61224">
        <ele>17</ele>
        <time>2017-01-14T03:54:59Z</time>
      </trkpt>
      <trkpt lat="48.59445" lon="-1.61225">
        <ele>17</ele>
        <time>2017-01-14T03:56:59Z</time>
      </trkpt>
      <trkpt lat="48.59433" lon="-1.61223">
        <ele>18</ele>
        <time>2017-01-14T03:58:59Z</time>
      </trkpt>
      <trkpt lat="48.59423" lon="-1.61215">
        <ele>20</ele>
        <time>2017-01-14T04:00:59Z</time>
      </trkpt>
      <trkpt lat="48.59417" lon="-1.61203">
        <ele>22</ele>
        <time>2017-01-14T04:02:59Z</time>
      </trkpt>
      <trkpt lat="48.59408" lon="-1.61198">
        <ele>23</ele>
        <time>2017-01-14T04:04:59Z</time>
      </trkpt>
      <trkpt lat="48.59398" lon="-1.61188">
        <ele>24</ele>
        <time>2017-01-14T04:06:59Z</time>
      </trkpt>
      <trkpt lat="48.59389" lon="-1.61181">
        <ele>26</ele>
        <time>2017-01-14T04:08:59Z</time>
      </trkpt>
      <trkpt lat="48.5938" lon="-1.61172">
        <ele>27</ele>
        <time>2017-01-14T04:10:59Z</time>
      </trkpt>
      <trkpt lat="48.59358" lon="-1.61156">
        <ele>30</ele>
        <time>2017-01-14T04:12:59Z</time>
      </trkpt>
      <trkpt lat="48.59343" lon="-1.61151">
        <ele>32</ele>
        <time>2017-01-14T04:14:59Z</time>
      </trkpt>
      <trkpt lat="48.5933" lon="-1.61147">
        <ele>33</ele>
        <time>2017-01-14T04:16:59Z</time>
      </trkpt>
      <trkpt lat="48.59316" lon="-1.61139">
        <ele>33</ele>
        <time>2017-01-14T04:18:59Z</time>
      </trkpt>
      <trkpt lat="48.59301" lon="-1.61132">
        <ele>33</ele>
        <time>2017-01-14T04:20:59Z</time>
      </trkpt>
      <trkpt lat="48.59294" lon="-1.61112">
        <ele>36</ele>
        <time>2017-01-14T04:22:59Z</time>
      </trkpt>
      <trkpt lat="48.59286" lon="-1.61096">
        <ele>38</ele>
        <time>2017-01-14T04:24:59Z</time>
      </trkpt>
      <trkpt lat="48.59281" lon="-1.61082">
        <ele>39</ele>
        <time>2017-01-14T04:26:59Z</time>
      </trkpt>
      <trkpt lat="48.59279" lon="-1.61064">
        <ele>41</ele>
        <time>2017-01-14T04:28:59Z</time>
      </trkpt>
      <trkpt lat="48.59285" lon="-1.61029">
        <ele>44</ele>
        <time>2017-01-14T04:30:59Z</time>
      </trkpt>
      <trkpt lat="48.59286" lon="-1.6101">
        <ele>46</ele>
        <time>2017-01-14T04:32:59Z</time>
      </trkpt>
      <trkpt lat="48.59286" lon="-1.6099">
        <ele>47</ele>
        <time>2017-01-14T04:34:59Z</time>
      </trkpt>
      <trkpt lat="48.59289" lon="-1.60972">
        <ele>48</ele>
        <time>2017-01-14T04:36:59Z</time>
      </trkpt>
      <trkpt lat="48.59291" lon="-1.60954">
        <ele>49</ele>
        <time>2017-01-14T04:38:59Z</time>
      </trkpt>
      <trkpt lat="48.59296" lon="-1.60937">
        <ele>50</ele>
        <time>2017-01-14T04:40:59Z</time>
      </trkpt>
      <trkpt lat="48.59309" lon="-1.6093">
        <ele>51</ele>
        <time>2017-01-14T04:42:59Z</time>
      </trkpt>
      <trkpt lat="48.59321" lon="-1.60939">
        <ele>53</ele>
        <time>2017-01-14T04:44:59Z</time>
      </trkpt>
      <trkpt lat="48.59333" lon="-1.60949">
        <ele>54</ele>
        <time>2017-01-14T04:46:59Z</time>
      </trkpt>
      <trkpt lat="48.59344" lon="-1.60955">
        <ele>55</ele>
        <time>2017-01-14T04:48:59Z</time>
      </trkpt>
      <trkpt lat="48.59354" lon="-1.60951">
        <ele>56</ele>
        <time>2017-01-14T04:50:59Z</time>
      </trkpt>
      <trkpt lat="48.59363" lon="-1.60938">
        <ele>58</ele>
        <time>2017-01-14T04:52:59Z</time>
      </trkpt>
      <trkpt lat="48.59368" lon="-1.6092">
        <ele>59</ele>
        <time>2017-01-14T04:54:59Z</time>
      </trkpt>
      <trkpt lat="48.59372" lon="-1.60876">
        <ele>61</ele>
        <time>2017-01-14T04:56:59Z</time>
      </trkpt>
      <trkpt lat="48.59378" lon="-1.60833">
        <ele>62</ele>
        <time>2017-01-14T04:58:59Z</time>
      </trkpt>
      <trkpt lat="48.59377" lon="-1.60809">
        <ele>63</ele>
        <time>2017-01-14T05:00:59Z</time>
      </trkpt>
      <trkpt lat="48.59372" lon="-1.60785">
        <ele>64</ele>
        <time>2017-01-14T05:02:59Z</time>
      </trkpt>
      <trkpt lat="48.59365" lon="-1.60763">
        <ele>64</ele>
        <time>2017-01-14T05:04:59Z</time>
      </trkpt>
      <trkpt lat="48.59358" lon="-1.60745">
        <ele>65</ele>
        <time>2017-01-14T05:06:59Z</time>
      </trkpt>
      <trkpt lat="48.59354" lon="-1.60722">
        <ele>66</ele>
        <time>2017-01-14T05:08:59Z</time>
      </trkpt>
      <trkpt lat="48.59352" lon="-1.60705">
        <ele>67</ele>
        <time>2017-01-14T05:10:59Z</time>
      </trkpt>
      <trkpt lat="48.59351" lon="-1.60683">
        <ele>68</ele>
        <time>2017-01-14T05:12:59Z</time>
      </trkpt>
      <trkpt lat="48.59353" lon="-1.60665">
        <ele>69</ele>
        <time>2017-01-14T05:14:59Z</time>
      </trkpt>
      <trkpt lat="48.59355" lon="-1.60649">
        <ele>69</ele>
        <time>2017-01-14T05:16:59Z</time>
      </trkpt>
      <trkpt lat="48.59361" lon="-1.60632">
        <ele>70</ele>
        <time>2017-01-14T05:18:59Z</time>
      </trkpt>
      <trkpt lat="48.59366" lon="-1.60614">
        <ele>69</ele>
        <time>2017-01-14T05:20:59Z</time>
      </trkpt>
      <trkpt lat="48.59372" lon="-1.60578">
        <ele>69</ele>
        <time>2017-01-14T05:22:59Z</time>
      </trkpt>
      <trkpt lat="48.59367" lon="-1.6056">
        <ele>69</ele>
        <time>2017-01-14T05:24:59Z</time>
      </trkpt>
      <trkpt lat="48.59357" lon="-1.60538">
        <ele>69</ele>
        <time>2017-01-14T05:26:59Z</time>
      </trkpt>
      <trkpt lat="48.59352" lon="-1.6052">
        <ele>70</ele>
        <time>2017-01-14T05:28:59Z</time>
      </trkpt>
      <trkpt lat="48.59349" lon="-1.60503">
        <ele>70</ele>
        <time>2017-01-14T05:30:59Z</time>
      </trkpt>
      <trkpt lat="48.59345" lon="-1.60482">
        <ele>70</ele>
        <time>2017-01-14T05:32:59Z</time>
      </trkpt>
      <trkpt lat="48.59343" lon="-1.60467">
        <ele>71</ele>
        <time>2017-01-14T05:34:59Z</time>
      </trkpt>
      <trkpt lat="48.5934" lon="-1.6045">
        <ele>71</ele>
        <time>2017-01-14T05:36:59Z</time>
      </trkpt>
      <trkpt lat="48.59339" lon="-1.60434">
        <ele>71</ele>
        <time>2017-01-14T05:38:59Z</time>
      </trkpt>
      <trkpt lat="48.59338" lon="-1.60419">
        <ele>72</ele>
        <time>2017-01-14T05:40:59Z</time>
      </trkpt>
      <trkpt lat="48.59329" lon="-1.60414">
        <ele>72</ele>
        <time>2017-01-14T05:42:59Z</time>
      </trkpt>
      <trkpt lat="48.59315" lon="-1.60421">
        <ele>72</ele>
        <time>2017-01-14T05:44:59Z</time>
      </trkpt>
      <trkpt lat="48.59304" lon="-1.60429">
        <ele>71</ele>
        <time>2017-01-14T05:46:59Z</time>
      </trkpt>
      <trkpt lat="48.59293" lon="-1.6043">
        <ele>71</ele>
        <time>2017-01-14T05:48:59Z</time>
      </trkpt>
      <trkpt lat="48.59282" lon="-1.6043">
        <ele>71</ele>
        <time>2017-01-14T05:50:59Z</time>
      </trkpt>
      <trkpt lat="48.59271" lon="-1.60428">
        <ele>70</ele>
        <time>2017-01-14T05:52:59Z</time>
      </trkpt>
      <trkpt lat="48.59258" lon="-1.60426">
        <ele>70</ele>
        <time>2017-01-14T05:54:59Z</time>
      </trkpt>
      <trkpt lat="48.59248" lon="-1.60424">
        <ele>70</ele>
        <time>2017-01-14T05:56:59Z</time>
      </trkpt>
      <trkpt lat="48.59237" lon="-1.60418">
        <ele>69</ele>
        <time>2017-01-14T05:58:59Z</time>
      </trkpt>
      <trkpt lat="48.59224" lon="-1.60401">
        <ele>69</ele>
        <time>2017-01-14T06:00:59Z</time>
      </trkpt>
      <trkpt lat="48.5922" lon="-1.60383">
        <ele>70</ele>
        <time>2017-01-14T06:02:59Z</time>
      </trkpt>
      <trkpt lat="48.59216" lon="-1.60355">
        <ele>70</ele>
        <time>2017-01-14T06:04:59Z</time>
      </trkpt>
      <trkpt lat="48.59214" lon="-1.60329">
        <ele>71</ele>
        <time>2017-01-14T06:06:59Z</time>
      </trkpt>
      <trkpt lat="48.59224" lon="-1.60284">
        <ele>73</ele>
        <time>2017-01-14T06:08:59Z</time>
      </trkpt>
      <trkpt lat="48.59233" lon="-1.60268">
        <ele>74</ele>
        <time>2017-01-14T06:10:59Z</time>
      </trkpt>
      <trkpt lat="48.59234" lon="-1.60249">
        <ele>74</ele>
        <time>2017-01-14T06:12:59Z</time>
      </trkpt>
      <trkpt lat="48.59239" lon="-1.60231">
        <ele>75</ele>
        <time>2017-01-14T06:14:59Z</time>
      </trkpt>
      <trkpt lat="48.59246" lon="-1.60188">
        <ele>76</ele>
        <time>2017-01-14T06:16:59Z</time>
      </trkpt>
      <trkpt lat="48.59247" lon="-1.60165">
        <ele>76</ele>
        <time>2017-01-14T06:18:59Z</time>
      </trkpt>
      <trkpt lat="48.59251" lon="-1.60145">
        <ele>77</ele>
        <time>2017-01-14T06:20:59Z</time>
      </trkpt>
      <trkpt lat="48.59249" lon="-1.60121">
        <ele>78</ele>
        <time>2017-01-14T06:22:59Z</time>
      </trkpt>
      <trkpt lat="48.59265" lon="-1.60106">
        <ele>77</ele>
        <time>2017-01-14T06:24:59Z</time>
      </trkpt>
      <trkpt lat="48.59279" lon="-1.60092">
        <ele>77</ele>
        <time>2017-01-14T06:26:59Z</time>
      </trkpt>
      <trkpt lat="48.59286" lon="-1.60071">
        <ele>76</ele>
        <time>2017-01-14T06:28:59Z</time>
      </trkpt>
      <trkpt lat="48.59279" lon="-1.60056">
        <ele>75</ele>
        <time>2017-01-14T06:30:59Z</time>
      </trkpt>
      <trkpt lat="48.59269" lon="-1.60056">
        <ele>76</ele>
        <time>2017-01-14T06:32:59Z</time>
      </trkpt>
      <trkpt lat="48.59259" lon="-1.60062">
        <ele>77</ele>
        <time>2017-01-14T06:34:59Z</time>
      </trkpt>
      <trkpt lat="48.5925" lon="-1.60063">
        <ele>78</ele>
        <time>2017-01-14T06:36:59Z</time>
      </trkpt>
      <trkpt lat="48.59236" lon="-1.60061">
        <ele>77</ele>
        <time>2017-01-14T06:38:59Z</time>
      </trkpt>
      <trkpt lat="48.59225" lon="-1.60063">
        <ele>76</ele>
        <time>2017-01-14T06:40:59Z</time>
      </trkpt>
      <trkpt lat="48.59213" lon="-1.60067">
        <ele>76</ele>
        <time>2017-01-14T06:42:59Z</time>
      </trkpt>
      <trkpt lat="48.592" lon="-1.60071">
        <ele>75</ele>
        <time>2017-01-14T06:44:59Z</time>
      </trkpt>
      <trkpt lat="48.59187" lon="-1.60063">
        <ele>74</ele>
        <time>2017-01-14T06:46:59Z</time>
      </trkpt>
      <trkpt lat="48.59177" lon="-1.60051">
        <ele>73</ele>
        <time>2017-01-14T06:48:59Z</time>
      </trkpt>
      <trkpt lat="48.59172" lon="-1.60039">
        <ele>72</ele>
        <time>2017-01-14T06:50:59Z</time>
      </trkpt>
      <trkpt lat="48.59168" lon="-1.60024">
        <ele>72</ele>
        <time>2017-01-14T06:52:59Z</time>
      </trkpt>
      <trkpt lat="48.59158" lon="-1.60016">
        <ele>71</ele>
        <time>2017-01-14T06:54:59Z</time>
      </trkpt>
      <trkpt lat="48.59148" lon="-1.60015">
        <ele>71</ele>
        <time>2017-01-14T06:56:59Z</time>
      </trkpt>
      <trkpt lat="48.59118" lon="-1.6002">
        <ele>70</ele>
        <time>2017-01-14T06:58:59Z</time>
      </trkpt>
      <trkpt lat="48.59098" lon="-1.60015">
        <ele>69</ele>
        <time>2017-01-14T07:00:59Z</time>
      </trkpt>
      <trkpt lat="48.59088" lon="-1.60017">
        <ele>69</ele>
        <time>2017-01-14T07:02:59Z</time>
      </trkpt>
      <trkpt lat="48.59078" lon="-1.60019">
        <ele>68</ele>
        <time>2017-01-14T07:04:59Z</time>
      </trkpt>
      <trkpt lat="48.59066" lon="-1.6002">
        <ele>67</ele>
        <time>2017-01-14T07:06:59Z</time>
      </trkpt>
      <trkpt lat="48.59054" lon="-1.60026">
        <ele>66</ele>
        <time>2017-01-14T07:08:59Z</time>
      </trkpt>
      <trkpt lat="48.59033" lon="-1.60036">
        <ele>64</ele>
        <time>2017-01-14T07:10:59Z</time>
      </trkpt>
      <trkpt lat="48.59023" lon="-1.60039">
        <ele>63</ele>
        <time>2017-01-14T07:12:59Z</time>
      </trkpt>
      <trkpt lat="48.59013" lon="-1.60043">
        <ele>62</ele>
        <time>2017-01-14T07:14:59Z</time>
      </trkpt>
      <trkpt lat="48.59003" lon="-1.60044">
        <ele>61</ele>
        <time>2017-01-14T07:16:59Z</time>
      </trkpt>
      <trkpt lat="48.58994" lon="-1.60046">
        <ele>61</ele>
        <time>2017-01-14T07:18:59Z</time>
      </trkpt>
      <trkpt lat="48.58989" lon="-1.60056">
        <ele>60</ele>
        <time>2017-01-14T07:20:59Z</time>
      </trkpt>
      <trkpt lat="48.58992" lon="-1.60073">
        <ele>59</ele>
        <time>2017-01-14T07:22:59Z</time>
      </trkpt>
      <trkpt lat="48.58995" lon="-1.60106">
        <ele>58</ele>
        <time>2017-01-14T07:24:59Z</time>
      </trkpt>
      <trkpt lat="48.58997" lon="-1.60121">
        <ele>58</ele>
        <time>2017-01-14T07:26:59Z</time>
      </trkpt>
      <trkpt lat="48.58998" lon="-1.60136">
        <ele>57</ele>
        <time>2017-01-14T07:28:59Z</time>
      </trkpt>
      <trkpt lat="48.59002" lon="-1.6018">
        <ele>55</ele>
        <time>2017-01-14T07:30:59Z</time>
      </trkpt>
      <trkpt lat="48.59003" lon="-1.60196">
        <ele>55</ele>
        <time>2017-01-14T07:32:59Z</time>
      </trkpt>
      <trkpt lat="48.59003" lon="-1.60225">
        <ele>53</ele>
        <time>2017-01-14T07:34:59Z</time>
      </trkpt>
      <trkpt lat="48.59002" lon="-1.60254">
        <ele>52</ele>
        <time>2017-01-14T07:36:59Z</time>
      </trkpt>
      <trkpt lat="48.59002" lon="-1.60285">
        <ele>51</ele>
        <time>2017-01-14T07:38:59Z</time>
      </trkpt>
      <trkpt lat="48.59002" lon="-1.603">
        <ele>50</ele>
        <time>2017-01-14T07:40:59Z</time>
      </trkpt>
      <trkpt lat="48.59002" lon="-1.60315">
        <ele>50</ele>
        <time>2017-01-14T07:42:59Z</time>
      </trkpt>
      <trkpt lat="48.58999" lon="-1.60328">
        <ele>49</ele>
        <time>2017-01-14T07:44:59Z</time>
      </trkpt>
      <trkpt lat="48.58992" lon="-1.60339">
        <ele>49</ele>
        <time>2017-01-14T07:46:59Z</time>
      </trkpt>
      <trkpt lat="48.58982" lon="-1.60347">
        <ele>48</ele>
        <time>2017-01-14T07:48:59Z</time>
      </trkpt>
      <trkpt lat="48.58975" lon="-1.60357">
        <ele>48</ele>
        <time>2017-01-14T07:50:59Z</time>
      </trkpt>
      <trkpt lat="48.58969" lon="-1.60369">
        <ele>47</ele>
        <time>2017-01-14T07:52:59Z</time>
      </trkpt>
      <trkpt lat="48.58962" lon="-1.60382">
        <ele>46</ele>
        <time>2017-01-14T07:54:59Z</time>
      </trkpt>
      <trkpt lat="48.58954" lon="-1.60395">
        <ele>46</ele>
        <time>2017-01-14T07:56:59Z</time>
      </trkpt>
      <trkpt lat="48.58944" lon="-1.60405">
        <ele>45</ele>
        <time>2017-01-14T07:58:59Z</time>
      </trkpt>
      <trkpt lat="48.58936" lon="-1.60415">
        <ele>45</ele>
        <time>2017-01-14T08:00:59Z</time>
      </trkpt>
      <trkpt lat="48.58925" lon="-1.60421">
        <ele>44</ele>
        <time>2017-01-14T08:02:59Z</time>
      </trkpt>
      <trkpt lat="48.58908" lon="-1.60439">
        <ele>43</ele>
        <time>2017-01-14T08:04:59Z</time>
      </trkpt>
      <trkpt lat="48.58898" lon="-1.60444">
        <ele>44</ele>
        <time>2017-01-14T08:06:59Z</time>
      </trkpt>
      <trkpt lat="48.58889" lon="-1.60447">
        <ele>44</ele>
        <time>2017-01-14T08:08:59Z</time>
      </trkpt>
      <trkpt lat="48.5888" lon="-1.60446">
        <ele>44</ele>
        <time>2017-01-14T08:10:59Z</time>
      </trkpt>
      <trkpt lat="48.58879" lon="-1.60432">
        <ele>44</ele>
        <time>2017-01-14T08:12:59Z</time>
      </trkpt>
      <trkpt lat="48.58873" lon="-1.60414">
        <ele>45</ele>
        <time>2017-01-14T08:14:59Z</time>
      </trkpt>
      <trkpt lat="48.5887" lon="-1.60401">
        <ele>45</ele>
        <time>2017-01-14T08:16:59Z</time>
      </trkpt>
      <trkpt lat="48.58868" lon="-1.60388">
        <ele>46</ele>
        <time>2017-01-14T08:18:59Z</time>
      </trkpt>
      <trkpt lat="48.58859" lon="-1.60381">
        <ele>46</ele>
        <time>2017-01-14T08:20:59Z</time>
      </trkpt>
      <trkpt lat="48.58864" lon="-1.60384">
        <ele>46</ele>
        <time>2017-01-14T08:22:59Z</time>
      </trkpt>
      <trkpt lat="48.58871" lon="-1.60397">
        <ele>46</ele>
        <time>2017-01-14T08:24:59Z</time>
      </trkpt>
      <trkpt lat="48.58869" lon="-1.60413">
        <ele>45</ele>
        <time>2017-01-14T08:26:59Z</time>
      </trkpt>
      <trkpt lat="48.58872" lon="-1.60419">
        <ele>45</ele>
        <time>2017-01-14T08:28:59Z</time>
      </trkpt>
      <trkpt lat="48.58877" lon="-1.60433">
        <ele>44</ele>
        <time>2017-01-14T08:30:59Z</time>
      </trkpt>
      <trkpt lat="48.5888" lon="-1.60448">
        <ele>44</ele>
        <time>2017-01-14T08:32:59Z</time>
      </trkpt>
      <trkpt lat="48.58879" lon="-1.60456">
        <ele>44</ele>
        <time>2017-01-14T08:34:59Z</time>
      </trkpt>
      <trkpt lat="48.58888" lon="-1.60446">
        <ele>44</ele>
        <time>2017-01-14T08:36:59Z</time>
      </trkpt>
      <trkpt lat="48.58899" lon="-1.60439">
        <ele>44</ele>
        <time>2017-01-14T08:38:59Z</time>
      </trkpt>
      <trkpt lat="48.58908" lon="-1.60437">
        <ele>44</ele>
        <time>2017-01-14T08:40:59Z</time>
      </trkpt>
      <trkpt lat="48.58917" lon="-1.60428">
        <ele>44</ele>
        <time>2017-01-14T08:42:59Z</time>
      </trkpt>
      <trkpt lat="48.58926" lon="-1.60425">
        <ele>44</ele>
        <time>2017-01-14T08:44:59Z</time>
      </trkpt>
      <trkpt lat="48.58944" lon="-1.60408">
        <ele>45</ele>
        <time>2017-01-14T08:46:59Z</time>
      </trkpt>
      <trkpt lat="48.58951" lon="-1.60415">
        <ele>45</ele>
        <time>2017-01-14T08:48:59Z</time>
      </trkpt>
      <trkpt lat="48.58951" lon="-1.60403">
        <ele>45</ele>
        <time>2017-01-14T08:50:59Z</time>
      </trkpt>
      <trkpt lat="48.58956" lon="-1.60389">
        <ele>46</ele>
        <time>2017-01-14T08:52:59Z</time>
      </trkpt>
      <trkpt lat="48.58972" lon="-1.60365">
        <ele>47</ele>
        <time>2017-01-14T08:54:59Z</time>
      </trkpt>
      <trkpt lat="48.58977" lon="-1.60354">
        <ele>48</ele>
        <time>2017-01-14T08:56:59Z</time>
      </trkpt>
      <trkpt lat="48.58983" lon="-1.60345">
        <ele>48</ele>
        <time>2017-01-14T08:58:59Z</time>
      </trkpt>
      <trkpt lat="48.58989" lon="-1.60358">
        <ele>48</ele>
        <time>2017-01-14T09:00:59Z</time>
      </trkpt>
      <trkpt lat="48.58991" lon="-1.60375">
        <ele>47</ele>
        <time>2017-01-14T09:02:59Z</time>
      </trkpt>
      <trkpt lat="48.58999" lon="-1.60386">
        <ele>47</ele>
        <time>2017-01-14T09:04:59Z</time>
      </trkpt>
      <trkpt lat="48.59005" lon="-1.60389">
        <ele>48</ele>
        <time>2017-01-14T09:06:59Z</time>
      </trkpt>
      <trkpt lat="48.59004" lon="-1.60379">
        <ele>48</ele>
        <time>2017-01-14T09:08:59Z</time>
      </trkpt>
      <trkpt lat="48.5901" lon="-1.60368">
        <ele>49</ele>
        <time>2017-01-14T09:10:59Z</time>
      </trkpt>
      <trkpt lat="48.59019" lon="-1.60371">
        <ele>50</ele>
        <time>2017-01-14T09:12:59Z</time>
      </trkpt>
      <trkpt lat="48.59012" lon="-1.60368">
        <ele>49</ele>
        <time>2017-01-14T09:14:59Z</time>
      </trkpt>
      <trkpt lat="48.59003" lon="-1.60373">
        <ele>48</ele>
        <time>2017-01-14T09:16:59Z</time>
      </trkpt>
      <trkpt lat="48.59007" lon="-1.60386">
        <ele>48</ele>
        <time>2017-01-14T09:18:59Z</time>
      </trkpt>
      <trkpt lat="48.59012" lon="-1.60399">
        <ele>48</ele>
        <time>2017-01-14T09:20:59Z</time>
      </trkpt>
      <trkpt lat="48.59014" lon="-1.60414">
        <ele>48</ele>
        <time>2017-01-14T09:22:59Z</time>
      </trkpt>
      <trkpt lat="48.59008" lon="-1.60426">
        <ele>47</ele>
        <time>2017-01-14T09:24:59Z</time>
      </trkpt>
      <trkpt lat="48.58998" lon="-1.60434">
        <ele>46</ele>
        <time>2017-01-14T09:26:59Z</time>
      </trkpt>
      <trkpt lat="48.58988" lon="-1.6044">
        <ele>46</ele>
        <time>2017-01-14T09:28:59Z</time>
      </trkpt>
      <trkpt lat="48.58973" lon="-1.60457">
        <ele>45</ele>
        <time>2017-01-14T09:30:59Z</time>
      </trkpt>
      <trkpt lat="48.58962" lon="-1.60456">
        <ele>44</ele>
        <time>2017-01-14T09:32:59Z</time>
      </trkpt>
      <trkpt lat="48.58952" lon="-1.60459">
        <ele>44</ele>
        <time>2017-01-14T09:34:59Z</time>
      </trkpt>
      <trkpt lat="48.58951" lon="-1.6046">
        <ele>44</ele>
        <time>2017-01-14T09:36:59Z</time>
      </trkpt>
      <trkpt lat="48.58943" lon="-1.6046">
        <ele>44</ele>
        <time>2017-01-14T09:38:59Z</time>
      </trkpt>
      <trkpt lat="48.58935" lon="-1.6047">
        <ele>43</ele>
        <time>2017-01-14T09:40:59Z</time>
      </trkpt>
      <trkpt lat="48.58935" lon="-1.60474">
        <ele>43</ele>
        <time>2017-01-14T09:42:59Z</time>
      </trkpt>
      <trkpt lat="48.58944" lon="-1.60468">
        <ele>43</ele>
        <time>2017-01-14T09:44:59Z</time>
      </trkpt>
      <trkpt lat="48.58952" lon="-1.60459">
        <ele>44</ele>
        <time>2017-01-14T09:46:59Z</time>
      </trkpt>
      <trkpt lat="48.58958" lon="-1.60451">
        <ele>44</ele>
        <time>2017-01-14T09:48:59Z</time>
      </trkpt>
      <trkpt lat="48.58967" lon="-1.60442">
        <ele>45</ele>
        <time>2017-01-14T09:50:59Z</time>
      </trkpt>
      <trkpt lat="48.58979" lon="-1.60444">
        <ele>45</ele>
        <time>2017-01-14T09:52:59Z</time>
      </trkpt>
      <trkpt lat="48.58989" lon="-1.60443">
        <ele>46</ele>
        <time>2017-01-14T09:54:59Z</time>
      </trkpt>
      <trkpt lat="48.58998" lon="-1.60437">
        <ele>46</ele>
        <time>2017-01-14T09:56:59Z</time>
      </trkpt>
      <trkpt lat="48.59006" lon="-1.60429">
        <ele>47</ele>
        <time>2017-01-14T09:58:59Z</time>
      </trkpt>
      <trkpt lat="48.59013" lon="-1.60419">
        <ele>48</ele>
        <time>2017-01-14T10:00:59Z</time>
      </trkpt>
      <trkpt lat="48.59017" lon="-1.60406">
        <ele>49</ele>
        <time>2017-01-14T10:02:59Z</time>
      </trkpt>
      <trkpt lat="48.59013" lon="-1.60393">
        <ele>48</ele>
        <time>2017-01-14T10:04:59Z</time>
      </trkpt>
      <trkpt lat="48.59008" lon="-1.60381">
        <ele>48</ele>
        <time>2017-01-14T10:06:59Z</time>
      </trkpt>
      <trkpt lat="48.59004" lon="-1.60367">
        <ele>48</ele>
        <time>2017-01-14T10:08:59Z</time>
      </trkpt>
      <trkpt lat="48.59" lon="-1.60352">
        <ele>48</ele>
        <time>2017-01-14T10:10:59Z</time>
      </trkpt>
      <trkpt lat="48.58997" lon="-1.60337">
        <ele>49</ele>
        <time>2017-01-14T10:12:59Z</time>
      </trkpt>
      <trkpt lat="48.58999" lon="-1.60275">
        <ele>51</ele>
        <time>2017-01-14T10:14:59Z</time>
      </trkpt>
      <trkpt lat="48.59" lon="-1.6026">
        <ele>52</ele>
        <time>2017-01-14T10:16:59Z</time>
      </trkpt>
      <trkpt lat="48.59001" lon="-1.60245">
        <ele>52</ele>
        <time>2017-01-14T10:18:59Z</time>
      </trkpt>
      <trkpt lat="48.59001" lon="-1.6023">
        <ele>53</ele>
        <time>2017-01-14T10:20:59Z</time>
      </trkpt>
      <trkpt lat="48.59003" lon="-1.60199">
        <ele>55</ele>
        <time>2017-01-14T10:22:59Z</time>
      </trkpt>
      <trkpt lat="48.59001" lon="-1.60183">
        <ele>55</ele>
        <time>2017-01-14T10:24:59Z</time>
      </trkpt>
      <trkpt lat="48.59002" lon="-1.60168">
        <ele>56</ele>
        <time>2017-01-14T10:26:59Z</time>
      </trkpt>
      <trkpt lat="48.58999" lon="-1.60154">
        <ele>56</ele>
        <time>2017-01-14T10:28:59Z</time>
      </trkpt>
      <trkpt lat="48.58997" lon="-1.60139">
        <ele>57</ele>
        <time>2017-01-14T10:30:59Z</time>
      </trkpt>
      <trkpt lat="48.58994" lon="-1.6011">
        <ele>58</ele>
        <time>2017-01-14T10:32:59Z</time>
      </trkpt>
      <trkpt lat="48.58991" lon="-1.60093">
        <ele>58</ele>
        <time>2017-01-14T10:34:59Z</time>
      </trkpt>
      <trkpt lat="48.5899" lon="-1.60079">
        <ele>59</ele>
        <time>2017-01-14T10:36:59Z</time>
      </trkpt>
      <trkpt lat="48.58989" lon="-1.60064">
        <ele>60</ele>
        <time>2017-01-14T10:38:59Z</time>
      </trkpt>
      <trkpt lat="48.58987" lon="-1.6005">
        <ele>60</ele>
        <time>2017-01-14T10:40:59Z</time>
      </trkpt>
      <trkpt lat="48.58982" lon="-1.60021">
        <ele>61</ele>
        <time>2017-01-14T10:42:59Z</time>
      </trkpt>
      <trkpt lat="48.58975" lon="-1.59991">
        <ele>62</ele>
        <time>2017-01-14T10:44:59Z</time>
      </trkpt>
      <trkpt lat="48.58972" lon="-1.59976">
        <ele>63</ele>
        <time>2017-01-14T10:46:59Z</time>
      </trkpt>
      <trkpt lat="48.58969" lon="-1.59961">
        <ele>63</ele>
        <time>2017-01-14T10:48:59Z</time>
      </trkpt>
      <trkpt lat="48.58967" lon="-1.59948">
        <ele>64</ele>
        <time>2017-01-14T10:50:59Z</time>
      </trkpt>
      <trkpt lat="48.58963" lon="-1.59933">
        <ele>64</ele>
        <time>2017-01-14T10:52:59Z</time>
      </trkpt>
      <trkpt lat="48.5896" lon="-1.59921">
        <ele>64</ele>
        <time>2017-01-14T10:54:59Z</time>
      </trkpt>
      <trkpt lat="48.58953" lon="-1.5989">
        <ele>64</ele>
        <time>2017-01-14T10:56:59Z</time>
      </trkpt>
      <trkpt lat="48.58951" lon="-1.59876">
        <ele>64</ele>
        <time>2017-01-14T10:58:59Z</time>
      </trkpt>
      <trkpt lat="48.58947" lon="-1.59862">
        <ele>64</ele>
        <time>2017-01-14T11:00:59Z</time>
      </trkpt>
      <trkpt lat="48.58945" lon="-1.59847">
        <ele>64</ele>
        <time>2017-01-14T11:02:59Z</time>
      </trkpt>
      <trkpt lat="48.58937" lon="-1.59818">
        <ele>63</ele>
        <time>2017-01-14T11:04:59Z</time>
      </trkpt>
      <trkpt lat="48.58934" lon="-1.59803">
        <ele>63</ele>
        <time>2017-01-14T11:06:59Z</time>
      </trkpt>
      <trkpt lat="48.58929" lon="-1.59787">
        <ele>63</ele>
        <time>2017-01-14T11:08:59Z</time>
      </trkpt>
      <trkpt lat="48.58922" lon="-1.5978">
        <ele>62</ele>
        <time>2017-01-14T11:10:59Z</time>
      </trkpt>
      <trkpt lat="48.58913" lon="-1.59786">
        <ele>62</ele>
        <time>2017-01-14T11:12:59Z</time>
      </trkpt>
      <trkpt lat="48.58903" lon="-1.5979">
        <ele>62</ele>
        <time>2017-01-14T11:14:59Z</time>
      </trkpt>
      <trkpt lat="48.58894" lon="-1.59791">
        <ele>62</ele>
        <time>2017-01-14T11:16:59Z</time>
      </trkpt>
      <trkpt lat="48.58885" lon="-1.59789">
        <ele>62</ele>
        <time>2017-01-14T11:18:59Z</time>
      </trkpt>
      <trkpt lat="48.58875" lon="-1.59789">
        <ele>62</ele>
        <time>2017-01-14T11:20:59Z</time>
      </trkpt>
      <trkpt lat="48.58867" lon="-1.59795">
        <ele>62</ele>
        <time>2017-01-14T11:22:59Z</time>
      </trkpt>
      <trkpt lat="48.58859" lon="-1.59804">
        <ele>62</ele>
        <time>2017-01-14T11:24:59Z</time>
      </trkpt>
      <trkpt lat="48.58849" lon="-1.59811">
        <ele>62</ele>
        <time>2017-01-14T11:26:59Z</time>
      </trkpt>
      <trkpt lat="48.5884" lon="-1.59816">
        <ele>62</ele>
        <time>2017-01-14T11:28:59Z</time>
      </trkpt>
      <trkpt lat="48.58829" lon="-1.59819">
        <ele>62</ele>
        <time>2017-01-14T11:30:59Z</time>
      </trkpt>
      <trkpt lat="48.5882" lon="-1.59822">
        <ele>62</ele>
        <time>2017-01-14T11:32:59Z</time>
      </trkpt>
      <trkpt lat="48.5881" lon="-1.59823">
        <ele>62</ele>
        <time>2017-01-14T11:34:59Z</time>
      </trkpt>
      <trkpt lat="48.58801" lon="-1.59827">
        <ele>61</ele>
        <time>2017-01-14T11:36:59Z</time>
      </trkpt>
      <trkpt lat="48.58798" lon="-1.5984">
        <ele>61</ele>
        <time>2017-01-14T11:38:59Z</time>
      </trkpt>
      <trkpt lat="48.58802" lon="-1.59855">
        <ele>61</ele>
        <time>2017-01-14T11:40:59Z</time>
      </trkpt>
      <trkpt lat="48.58803" lon="-1.5987">
        <ele>61</ele>
        <time>2017-01-14T11:42:59Z</time>
      </trkpt>
      <trkpt lat="48.58805" lon="-1.59885">
        <ele>60</ele>
        <time>2017-01-14T11:44:59Z</time>
      </trkpt>
      <trkpt lat="48.58806" lon="-1.59899">
        <ele>60</ele>
        <time>2017-01-14T11:46:59Z</time>
      </trkpt>
      <trkpt lat="48.58811" lon="-1.59931">
        <ele>60</ele>
        <time>2017-01-14T11:48:59Z</time>
      </trkpt>
      <trkpt lat="48.58811" lon="-1.59948">
        <ele>59</ele>
        <time>2017-01-14T11:50:59Z</time>
      </trkpt>
      <trkpt lat="48.58812" lon="-1.59964">
        <ele>59</ele>
        <time>2017-01-14T11:52:59Z</time>
      </trkpt>
      <trkpt lat="48.58813" lon="-1.59979">
        <ele>59</ele>
        <time>2017-01-14T11:54:59Z</time>
      </trkpt>
      <trkpt lat="48.58812" lon="-1.5999">
        <ele>58</ele>
        <time>2017-01-14T11:56:59Z</time>
      </trkpt>
      <trkpt lat="48.58814" lon="-1.60022">
        <ele>57</ele>
        <time>2017-01-14T11:58:59Z</time>
      </trkpt>
      <trkpt lat="48.58816" lon="-1.60037">
        <ele>56</ele>
        <time>2017-01-14T12:00:59Z</time>
      </trkpt>
      <trkpt lat="48.58819" lon="-1.60085">
        <ele>52</ele>
        <time>2017-01-14T12:02:59Z</time>
      </trkpt>
      <trkpt lat="48.5882" lon="-1.60101">
        <ele>52</ele>
        <time>2017-01-14T12:04:59Z</time>
      </trkpt>
      <trkpt lat="48.5882" lon="-1.60115">
        <ele>51</ele>
        <time>2017-01-14T12:06:59Z</time>
      </trkpt>
      <trkpt lat="48.58822" lon="-1.60142">
        <ele>50</ele>
        <time>2017-01-14T12:08:59Z</time>
      </trkpt>
      <trkpt lat="48.58822" lon="-1.60159">
        <ele>50</ele>
        <time>2017-01-14T12:10:59Z</time>
      </trkpt>
      <trkpt lat="48.5882" lon="-1.60172">
        <ele>49</ele>
        <time>2017-01-14T12:12:59Z</time>
      </trkpt>
      <trkpt lat="48.58808" lon="-1.60179">
        <ele>50</ele>
        <time>2017-01-14T12:14:59Z</time>
      </trkpt>
      <trkpt lat="48.58791" lon="-1.60189">
        <ele>50</ele>
        <time>2017-01-14T12:16:59Z</time>
      </trkpt>
      <trkpt lat="48.58779" lon="-1.60185">
        <ele>50</ele>
        <time>2017-01-14T12:18:59Z</time>
      </trkpt>
      <trkpt lat="48.58792" lon="-1.60181">
        <ele>50</ele>
        <time>2017-01-14T12:20:59Z</time>
      </trkpt>
      <trkpt lat="48.58805" lon="-1.60173">
        <ele>50</ele>
        <time>2017-01-14T12:22:59Z</time>
      </trkpt>
      <trkpt lat="48.58818" lon="-1.60176">
        <ele>49</ele>
        <time>2017-01-14T12:24:59Z</time>
      </trkpt>
      <trkpt lat="48.58822" lon="-1.60195">
        <ele>49</ele>
        <time>2017-01-14T12:26:59Z</time>
      </trkpt>
      <trkpt lat="48.58824" lon="-1.60212">
        <ele>49</ele>
        <time>2017-01-14T12:28:59Z</time>
      </trkpt>
      <trkpt lat="48.58827" lon="-1.60228">
        <ele>49</ele>
        <time>2017-01-14T12:30:59Z</time>
      </trkpt>
      <trkpt lat="48.5883" lon="-1.60243">
        <ele>49</ele>
        <time>2017-01-14T12:32:59Z</time>
      </trkpt>
      <trkpt lat="48.58832" lon="-1.60259">
        <ele>49</ele>
        <time>2017-01-14T12:34:59Z</time>
      </trkpt>
      <trkpt lat="48.58833" lon="-1.60276">
        <ele>48</ele>
        <time>2017-01-14T12:36:59Z</time>
      </trkpt>
      <trkpt lat="48.58836" lon="-1.60291">
        <ele>48</ele>
        <time>2017-01-14T12:38:59Z</time>
      </trkpt>
      <trkpt lat="48.5884" lon="-1.60322">
        <ele>47</ele>
        <time>2017-01-14T12:40:59Z</time>
      </trkpt>
      <trkpt lat="48.58843" lon="-1.60337">
        <ele>47</ele>
        <time>2017-01-14T12:42:59Z</time>
      </trkpt>
      <trkpt lat="48.58847" lon="-1.60353">
        <ele>47</ele>
        <time>2017-01-14T12:44:59Z</time>
      </trkpt>
      <trkpt lat="48.58849" lon="-1.60368">
        <ele>46</ele>
        <time>2017-01-14T12:46:59Z</time>
      </trkpt>
      <trkpt lat="48.5885" lon="-1.60398">
        <ele>46</ele>
        <time>2017-01-14T12:48:59Z</time>
      </trkpt>
      <trkpt lat="48.58852" lon="-1.60413">
        <ele>46</ele>
        <time>2017-01-14T12:50:59Z</time>
      </trkpt>
      <trkpt lat="48.58855" lon="-1.60428">
        <ele>45</ele>
        <time>2017-01-14T12:52:59Z</time>
      </trkpt>
      <trkpt lat="48.58859" lon="-1.6048">
        <ele>44</ele>
        <time>2017-01-14T12:54:59Z</time>
      </trkpt>
      <trkpt lat="48.58857" lon="-1.605">
        <ele>43</ele>
        <time>2017-01-14T12:56:59Z</time>
      </trkpt>
      <trkpt lat="48.58856" lon="-1.6052">
        <ele>43</ele>
        <time>2017-01-14T12:58:59Z</time>
      </trkpt>
      <trkpt lat="48.58855" lon="-1.60539">
        <ele>42</ele>
        <time>2017-01-14T13:00:59Z</time>
      </trkpt>
      <trkpt lat="48.58852" lon="-1.60556">
        <ele>41</ele>
        <time>2017-01-14T13:02:59Z</time>
      </trkpt>
      <trkpt lat="48.58847" lon="-1.60546">
        <ele>42</ele>
        <time>2017-01-14T13:04:59Z</time>
      </trkpt>
      <trkpt lat="48.58838" lon="-1.60529">
        <ele>43</ele>
        <time>2017-01-14T13:06:59Z</time>
      </trkpt>
      <trkpt lat="48.58836" lon="-1.60506">
        <ele>44</ele>
        <time>2017-01-14T13:08:59Z</time>
      </trkpt>
      <trkpt lat="48.58829" lon="-1.60482">
        <ele>45</ele>
        <time>2017-01-14T13:10:59Z</time>
      </trkpt>
      <trkpt lat="48.58823" lon="-1.60458">
        <ele>46</ele>
        <time>2017-01-14T13:12:59Z</time>
      </trkpt>
      <trkpt lat="48.58811" lon="-1.60437">
        <ele>47</ele>
        <time>2017-01-14T13:14:59Z</time>
      </trkpt>
      <trkpt lat="48.58806" lon="-1.60417">
        <ele>48</ele>
        <time>2017-01-14T13:16:59Z</time>
      </trkpt>
      <trkpt lat="48.58797" lon="-1.60398">
        <ele>48</ele>
        <time>2017-01-14T13:18:59Z</time>
      </trkpt>
      <trkpt lat="48.58796" lon="-1.60379">
        <ele>48</ele>
        <time>2017-01-14T13:20:59Z</time>
      </trkpt>
      <trkpt lat="48.58785" lon="-1.60359">
        <ele>48</ele>
        <time>2017-01-14T13:22:59Z</time>
      </trkpt>
      <trkpt lat="48.5877" lon="-1.60335">
        <ele>49</ele>
        <time>2017-01-14T13:24:59Z</time>
      </trkpt>
      <trkpt lat="48.5876" lon="-1.60329">
        <ele>49</ele>
        <time>2017-01-14T13:26:59Z</time>
      </trkpt>
      <trkpt lat="48.58745" lon="-1.60304">
        <ele>49</ele>
        <time>2017-01-14T13:28:59Z</time>
      </trkpt>
      <trkpt lat="48.58743" lon="-1.60274">
        <ele>50</ele>
        <time>2017-01-14T13:30:59Z</time>
      </trkpt>
      <trkpt lat="48.58751" lon="-1.60229">
        <ele>50</ele>
        <time>2017-01-14T13:32:59Z</time>
      </trkpt>
      <trkpt lat="48.58748" lon="-1.60205">
        <ele>51</ele>
        <time>2017-01-14T13:34:59Z</time>
      </trkpt>
      <trkpt lat="48.58733" lon="-1.60178">
        <ele>50</ele>
        <time>2017-01-14T13:36:59Z</time>
      </trkpt>
      <trkpt lat="48.58724" lon="-1.60152">
        <ele>51</ele>
        <time>2017-01-14T13:38:59Z</time>
      </trkpt>
      <trkpt lat="48.58712" lon="-1.60135">
        <ele>51</ele>
        <time>2017-01-14T13:40:59Z</time>
      </trkpt>
      <trkpt lat="48.587" lon="-1.60125">
        <ele>51</ele>
        <time>2017-01-14T13:42:59Z</time>
      </trkpt>
      <trkpt lat="48.5869" lon="-1.60111">
        <ele>52</ele>
        <time>2017-01-14T13:44:59Z</time>
      </trkpt>
      <trkpt lat="48.58678" lon="-1.601">
        <ele>52</ele>
        <time>2017-01-14T13:46:59Z</time>
      </trkpt>
      <trkpt lat="48.58668" lon="-1.60093">
        <ele>52</ele>
        <time>2017-01-14T13:48:59Z</time>
      </trkpt>
      <trkpt lat="48.58661" lon="-1.60094">
        <ele>51</ele>
        <time>2017-01-14T13:50:59Z</time>
      </trkpt>
      <trkpt lat="48.58649" lon="-1.60089">
        <ele>51</ele>
        <time>2017-01-14T13:52:59Z</time>
      </trkpt>
      <trkpt lat="48.58614" lon="-1.60081">
        <ele>50</ele>
        <time>2017-01-14T13:54:59Z</time>
      </trkpt>
      <trkpt lat="48.58596" lon="-1.60075">
        <ele>50</ele>
        <time>2017-01-14T13:56:59Z</time>
      </trkpt>
      <trkpt lat="48.58587" lon="-1.60075">
        <ele>49</ele>
        <time>2017-01-14T13:58:59Z</time>
      </trkpt>
      <trkpt lat="48.58578" lon="-1.60079">
        <ele>49</ele>
        <time>2017-01-14T14:00:59Z</time>
      </trkpt>
      <trkpt lat="48.58567" lon="-1.60078">
        <ele>50</ele>
        <time>2017-01-14T14:02:59Z</time>
      </trkpt>
      <trkpt lat="48.58558" lon="-1.60069">
        <ele>50</ele>
        <time>2017-01-14T14:04:59Z</time>
      </trkpt>
      <trkpt lat="48.58549" lon="-1.60078">
        <ele>50</ele>
        <time>2017-01-14T14:06:59Z</time>
      </trkpt>
      <trkpt lat="48.58539" lon="-1.60082">
        <ele>51</ele>
        <time>2017-01-14T14:08:59Z</time>
      </trkpt>
      <trkpt lat="48.58521" lon="-1.60092">
        <ele>52</ele>
        <time>2017-01-14T14:10:59Z</time>
      </trkpt>
      <trkpt lat="48.5851" lon="-1.60093">
        <ele>52</ele>
        <time>2017-01-14T14:12:59Z</time>
      </trkpt>
      <trkpt lat="48.58499" lon="-1.60092">
        <ele>52</ele>
        <time>2017-01-14T14:14:59Z</time>
      </trkpt>
      <trkpt lat="48.58462" lon="-1.60069">
        <ele>53</ele>
        <time>2017-01-14T14:16:59Z</time>
      </trkpt>
      <trkpt lat="48.58449" lon="-1.60061">
        <ele>54</ele>
        <time>2017-01-14T14:18:59Z</time>
      </trkpt>
      <trkpt lat="48.58439" lon="-1.60054">
        <ele>55</ele>
        <time>2017-01-14T14:20:59Z</time>
      </trkpt>
      <trkpt lat="48.5843" lon="-1.60048">
        <ele>55</ele>
        <time>2017-01-14T14:22:59Z</time>
      </trkpt>
      <trkpt lat="48.58422" lon="-1.60039">
        <ele>55</ele>
        <time>2017-01-14T14:24:59Z</time>
      </trkpt>
      <trkpt lat="48.58407" lon="-1.60037">
        <ele>56</ele>
        <time>2017-01-14T14:26:59Z</time>
      </trkpt>
      <trkpt lat="48.58398" lon="-1.60032">
        <ele>56</ele>
        <time>2017-01-14T14:28:59Z</time>
      </trkpt>
      <trkpt lat="48.5839" lon="-1.60026">
        <ele>56</ele>
        <time>2017-01-14T14:30:59Z</time>
      </trkpt>
      <trkpt lat="48.58377" lon="-1.60022">
        <ele>56</ele>
        <time>2017-01-14T14:32:59Z</time>
      </trkpt>
      <trkpt lat="48.58371" lon="-1.60027">
        <ele>56</ele>
        <time>2017-01-14T14:34:59Z</time>
      </trkpt>
      <trkpt lat="48.58371" lon="-1.60042">
        <ele>56</ele>
        <time>2017-01-14T14:36:59Z</time>
      </trkpt>
      <trkpt lat="48.58368" lon="-1.6006">
        <ele>56</ele>
        <time>2017-01-14T14:38:59Z</time>
      </trkpt>
      <trkpt lat="48.58364" lon="-1.60076">
        <ele>56</ele>
        <time>2017-01-14T14:40:59Z</time>
      </trkpt>
      <trkpt lat="48.58361" lon="-1.60089">
        <ele>56</ele>
        <time>2017-01-14T14:42:59Z</time>
      </trkpt>
      <trkpt lat="48.58351" lon="-1.60088">
        <ele>57</ele>
        <time>2017-01-14T14:44:59Z</time>
      </trkpt>
      <trkpt lat="48.58341" lon="-1.60092">
        <ele>57</ele>
        <time>2017-01-14T14:46:59Z</time>
      </trkpt>
      <trkpt lat="48.58333" lon="-1.60101">
        <ele>58</ele>
        <time>2017-01-14T14:48:59Z</time>
      </trkpt>
      <trkpt lat="48.58326" lon="-1.60109">
        <ele>58</ele>
        <time>2017-01-14T14:50:59Z</time>
      </trkpt>
      <trkpt lat="48.58311" lon="-1.60132">
        <ele>60</ele>
        <time>2017-01-14T14:52:59Z</time>
      </trkpt>
      <trkpt lat="48.58302" lon="-1.60143">
        <ele>60</ele>
        <time>2017-01-14T14:54:59Z</time>
      </trkpt>
      <trkpt lat="48.58297" lon="-1.60159">
        <ele>61</ele>
        <time>2017-01-14T14:56:59Z</time>
      </trkpt>
      <trkpt lat="48.58293" lon="-1.60177">
        <ele>62</ele>
        <time>2017-01-14T14:58:59Z</time>
      </trkpt>
      <trkpt lat="48.58288" lon="-1.60193">
        <ele>62</ele>
        <time>2017-01-14T15:00:59Z</time>
      </trkpt>
      <trkpt lat="48.5828" lon="-1.60223">
        <ele>63</ele>
        <time>2017-01-14T15:02:59Z</time>
      </trkpt>
      <trkpt lat="48.58279" lon="-1.60238">
        <ele>64</ele>
        <time>2017-01-14T15:04:59Z</time>
      </trkpt>
      <trkpt lat="48.58278" lon="-1.60256">
        <ele>64</ele>
        <time>2017-01-14T15:06:59Z</time>
      </trkpt>
      <trkpt lat="48.58283" lon="-1.60273">
        <ele>64</ele>
        <time>2017-01-14T15:08:59Z</time>
      </trkpt>
      <trkpt lat="48.58289" lon="-1.60289">
        <ele>64</ele>
        <time>2017-01-14T15:10:59Z</time>
      </trkpt>
      <trkpt lat="48.58298" lon="-1.60321">
        <ele>64</ele>
        <time>2017-01-14T15:12:59Z</time>
      </trkpt>
      <trkpt lat="48.58302" lon="-1.60333">
        <ele>64</ele>
        <time>2017-01-14T15:14:59Z</time>
      </trkpt>
      <trkpt lat="48.5831" lon="-1.60345">
        <ele>63</ele>
        <time>2017-01-14T15:16:59Z</time>
      </trkpt>
      <trkpt lat="48.58318" lon="-1.60355">
        <ele>63</ele>
        <time>2017-01-14T15:18:59Z</time>
      </trkpt>
      <trkpt lat="48.58326" lon="-1.60362">
        <ele>62</ele>
        <time>2017-01-14T15:20:59Z</time>
      </trkpt>
      <trkpt lat="48.58335" lon="-1.60372">
        <ele>62</ele>
        <time>2017-01-14T15:22:59Z</time>
      </trkpt>
      <trkpt lat="48.58338" lon="-1.60387">
        <ele>62</ele>
        <time>2017-01-14T15:24:59Z</time>
      </trkpt>
      <trkpt lat="48.58336" lon="-1.60404">
        <ele>61</ele>
        <time>2017-01-14T15:26:59Z</time>
      </trkpt>
      <trkpt lat="48.58334" lon="-1.60419">
        <ele>61</ele>
        <time>2017-01-14T15:28:59Z</time>
      </trkpt>
      <trkpt lat="48.58331" lon="-1.60434">
        <ele>61</ele>
        <time>2017-01-14T15:30:59Z</time>
      </trkpt>
      <trkpt lat="48.5833" lon="-1.60449">
        <ele>61</ele>
        <time>2017-01-14T15:32:59Z</time>
      </trkpt>
      <trkpt lat="48.58326" lon="-1.60467">
        <ele>60</ele>
        <time>2017-01-14T15:34:59Z</time>
      </trkpt>
      <trkpt lat="48.58323" lon="-1.60484">
        <ele>60</ele>
        <time>2017-01-14T15:36:59Z</time>
      </trkpt>
      <trkpt lat="48.58321" lon="-1.605">
        <ele>60</ele>
        <time>2017-01-14T15:38:59Z</time>
      </trkpt>
      <trkpt lat="48.58319" lon="-1.60517">
        <ele>60</ele>
        <time>2017-01-14T15:40:59Z</time>
      </trkpt>
      <trkpt lat="48.58315" lon="-1.60534">
        <ele>59</ele>
        <time>2017-01-14T15:42:59Z</time>
      </trkpt>
      <trkpt lat="48.58307" lon="-1.60541">
        <ele>59</ele>
        <time>2017-01-14T15:44:59Z</time>
      </trkpt>
      <trkpt lat="48.58298" lon="-1.60538">
        <ele>59</ele>
        <time>2017-01-14T15:46:59Z</time>
      </trkpt>
      <trkpt lat="48.58278" lon="-1.6053">
        <ele>59</ele>
        <time>2017-01-14T15:48:59Z</time>
      </trkpt>
      <trkpt lat="48.5827" lon="-1.60524">
        <ele>59</ele>
        <time>2017-01-14T15:50:59Z</time>
      </trkpt>
      <trkpt lat="48.58262" lon="-1.60518">
        <ele>59</ele>
        <time>2017-01-14T15:52:59Z</time>
      </trkpt>
      <trkpt lat="48.58254" lon="-1.60512">
        <ele>59</ele>
        <time>2017-01-14T15:54:59Z</time>
      </trkpt>
      <trkpt lat="48.58245" lon="-1.60505">
        <ele>59</ele>
        <time>2017-01-14T15:56:59Z</time>
      </trkpt>
      <trkpt lat="48.58235" lon="-1.60498">
        <ele>59</ele>
        <time>2017-01-14T15:58:59Z</time>
      </trkpt>
      <trkpt lat="48.58226" lon="-1.60493">
        <ele>59</ele>
        <time>2017-01-14T16:00:59Z</time>
      </trkpt>
      <trkpt lat="48.58216" lon="-1.60492">
        <ele>59</ele>
        <time>2017-01-14T16:02:59Z</time>
      </trkpt>
      <trkpt lat="48.58206" lon="-1.60493">
        <ele>59</ele>
        <time>2017-01-14T16:04:59Z</time>
      </trkpt>
      <trkpt lat="48.58187" lon="-1.60498">
        <ele>58</ele>
        <time>2017-01-14T16:06:59Z</time>
      </trkpt>
      <trkpt lat="48.58176" lon="-1.60501">
        <ele>58</ele>
        <time>2017-01-14T16:08:59Z</time>
      </trkpt>
      <trkpt lat="48.58166" lon="-1.60505">
        <ele>58</ele>
        <time>2017-01-14T16:10:59Z</time>
      </trkpt>
      <trkpt lat="48.58157" lon="-1.60509">
        <ele>58</ele>
        <time>2017-01-14T16:12:59Z</time>
      </trkpt>
      <trkpt lat="48.58153" lon="-1.60523">
        <ele>58</ele>
        <time>2017-01-14T16:14:59Z</time>
      </trkpt>
      <trkpt lat="48.58159" lon="-1.60536">
        <ele>58</ele>
        <time>2017-01-14T16:16:59Z</time>
      </trkpt>
      <trkpt lat="48.58168" lon="-1.60543">
        <ele>58</ele>
        <time>2017-01-14T16:18:59Z</time>
      </trkpt>
      <trkpt lat="48.58177" lon="-1.60553">
        <ele>58</ele>
        <time>2017-01-14T16:20:59Z</time>
      </trkpt>
      <trkpt lat="48.58186" lon="-1.60561">
        <ele>58</ele>
        <time>2017-01-14T16:22:59Z</time>
      </trkpt>
      <trkpt lat="48.58193" lon="-1.6057">
        <ele>58</ele>
        <time>2017-01-14T16:24:59Z</time>
      </trkpt>
      <trkpt lat="48.5821" lon="-1.60587">
        <ele>58</ele>
        <time>2017-01-14T16:26:59Z</time>
      </trkpt>
      <trkpt lat="48.58219" lon="-1.60598">
        <ele>58</ele>
        <time>2017-01-14T16:28:59Z</time>
      </trkpt>
      <trkpt lat="48.58227" lon="-1.60605">
        <ele>58</ele>
        <time>2017-01-14T16:30:59Z</time>
      </trkpt>
      <trkpt lat="48.58235" lon="-1.60613">
        <ele>57</ele>
        <time>2017-01-14T16:32:59Z</time>
      </trkpt>
      <trkpt lat="48.58243" lon="-1.60623">
        <ele>57</ele>
        <time>2017-01-14T16:34:59Z</time>
      </trkpt>
      <trkpt lat="48.58251" lon="-1.6063">
        <ele>57</ele>
        <time>2017-01-14T16:36:59Z</time>
      </trkpt>
      <trkpt lat="48.58259" lon="-1.60638">
        <ele>56</ele>
        <time>2017-01-14T16:38:59Z</time>
      </trkpt>
      <trkpt lat="48.58268" lon="-1.6065">
        <ele>56</ele>
        <time>2017-01-14T16:40:59Z</time>
      </trkpt>
      <trkpt lat="48.58276" lon="-1.60657">
        <ele>55</ele>
        <time>2017-01-14T16:42:59Z</time>
      </trkpt>
      <trkpt lat="48.58285" lon="-1.60666">
        <ele>55</ele>
        <time>2017-01-14T16:44:59Z</time>
      </trkpt>
      <trkpt lat="48.58293" lon="-1.60676">
        <ele>54</ele>
        <time>2017-01-14T16:46:59Z</time>
      </trkpt>
      <trkpt lat="48.58303" lon="-1.60685">
        <ele>54</ele>
        <time>2017-01-14T16:48:59Z</time>
      </trkpt>
      <trkpt lat="48.58312" lon="-1.60693">
        <ele>54</ele>
        <time>2017-01-14T16:50:59Z</time>
      </trkpt>
      <trkpt lat="48.5832" lon="-1.60702">
        <ele>54</ele>
        <time>2017-01-14T16:52:59Z</time>
      </trkpt>
      <trkpt lat="48.58338" lon="-1.60718">
        <ele>54</ele>
        <time>2017-01-14T16:54:59Z</time>
      </trkpt>
      <trkpt lat="48.58348" lon="-1.60729">
        <ele>54</ele>
        <time>2017-01-14T16:56:59Z</time>
      </trkpt>
      <trkpt lat="48.58356" lon="-1.60737">
        <ele>54</ele>
        <time>2017-01-14T16:58:59Z</time>
      </trkpt>
      <trkpt lat="48.58361" lon="-1.6075">
        <ele>54</ele>
        <time>2017-01-14T17:00:59Z</time>
      </trkpt>
      <trkpt lat="48.5836" lon="-1.60767">
        <ele>54</ele>
        <time>2017-01-14T17:02:59Z</time>
      </trkpt>
      <trkpt lat="48.58357" lon="-1.60778">
        <ele>54</ele>
        <time>2017-01-14T17:04:59Z</time>
      </trkpt>
      <trkpt lat="48.58354" lon="-1.60792">
        <ele>55</ele>
        <time>2017-01-14T17:06:59Z</time>
      </trkpt>
      <trkpt lat="48.58339" lon="-1.60821">
        <ele>55</ele>
        <time>2017-01-14T17:08:59Z</time>
      </trkpt>
      <trkpt lat="48.58332" lon="-1.60835">
        <ele>55</ele>
        <time>2017-01-14T17:10:59Z</time>
      </trkpt>
      <trkpt lat="48.58316" lon="-1.60864">
        <ele>56</ele>
        <time>2017-01-14T17:12:59Z</time>
      </trkpt>
      <trkpt lat="48.58308" lon="-1.60879">
        <ele>56</ele>
        <time>2017-01-14T17:14:59Z</time>
      </trkpt>
      <trkpt lat="48.583" lon="-1.60894">
        <ele>56</ele>
        <time>2017-01-14T17:16:59Z</time>
      </trkpt>
      <trkpt lat="48.58293" lon="-1.60908">
        <ele>57</ele>
        <time>2017-01-14T17:18:59Z</time>
      </trkpt>
      <trkpt lat="48.58284" lon="-1.60917">
        <ele>57</ele>
        <time>2017-01-14T17:20:59Z</time>
      </trkpt>
      <trkpt lat="48.58275" lon="-1.60925">
        <ele>58</ele>
        <time>2017-01-14T17:22:59Z</time>
      </trkpt>
      <trkpt lat="48.58265" lon="-1.60928">
        <ele>58</ele>
        <time>2017-01-14T17:24:59Z</time>
      </trkpt>
      <trkpt lat="48.58253" lon="-1.6093">
        <ele>59</ele>
        <time>2017-01-14T17:26:59Z</time>
      </trkpt>
      <trkpt lat="48.58239" lon="-1.60935">
        <ele>59</ele>
        <time>2017-01-14T17:28:59Z</time>
      </trkpt>
      <trkpt lat="48.58225" lon="-1.6094">
        <ele>60</ele>
        <time>2017-01-14T17:30:59Z</time>
      </trkpt>
      <trkpt lat="48.58211" lon="-1.60945">
        <ele>60</ele>
        <time>2017-01-14T17:32:59Z</time>
      </trkpt>
      <trkpt lat="48.58196" lon="-1.60954">
        <ele>61</ele>
        <time>2017-01-14T17:34:59Z</time>
      </trkpt>
      <trkpt lat="48.58185" lon="-1.60962">
        <ele>61</ele>
        <time>2017-01-14T17:36:59Z</time>
      </trkpt>
      <trkpt lat="48.58175" lon="-1.60971">
        <ele>62</ele>
        <time>2017-01-14T17:38:59Z</time>
      </trkpt>
      <trkpt lat="48.58164" lon="-1.60979">
        <ele>62</ele>
        <time>2017-01-14T17:40:59Z</time>
      </trkpt>
      <trkpt lat="48.58153" lon="-1.60986">
        <ele>63</ele>
        <time>2017-01-14T17:42:59Z</time>
      </trkpt>
      <trkpt lat="48.58141" lon="-1.60986">
        <ele>63</ele>
        <time>2017-01-14T17:44:59Z</time>
      </trkpt>
      <trkpt lat="48.58131" lon="-1.60981">
        <ele>63</ele>
        <time>2017-01-14T17:46:59Z</time>
      </trkpt>
      <trkpt lat="48.58112" lon="-1.60968">
        <ele>63</ele>
        <time>2017-01-14T17:48:59Z</time>
      </trkpt>
      <trkpt lat="48.58102" lon="-1.60959">
        <ele>62</ele>
        <time>2017-01-14T17:50:59Z</time>
      </trkpt>
      <trkpt lat="48.5809" lon="-1.6095">
        <ele>62</ele>
        <time>2017-01-14T17:52:59Z</time>
      </trkpt>
      <trkpt lat="48.58078" lon="-1.6094">
        <ele>62</ele>
        <time>2017-01-14T17:54:59Z</time>
      </trkpt>
      <trkpt lat="48.58067" lon="-1.60928">
        <ele>62</ele>
        <time>2017-01-14T17:56:59Z</time>
      </trkpt>
      <trkpt lat="48.58057" lon="-1.60919">
        <ele>61</ele>
        <time>2017-01-14T17:58:59Z</time>
      </trkpt>
      <trkpt lat="48.58046" lon="-1.60915">
        <ele>61</ele>
        <time>2017-01-14T18:00:59Z</time>
      </trkpt>
      <trkpt lat="48.58035" lon="-1.6092">
        <ele>62</ele>
        <time>2017-01-14T18:02:59Z</time>
      </trkpt>
      <trkpt lat="48.58026" lon="-1.60932">
        <ele>62</ele>
        <time>2017-01-14T18:04:59Z</time>
      </trkpt>
      <trkpt lat="48.58018" lon="-1.60947">
        <ele>63</ele>
        <time>2017-01-14T18:06:59Z</time>
      </trkpt>
      <trkpt lat="48.58011" lon="-1.60961">
        <ele>63</ele>
        <time>2017-01-14T18:08:59Z</time>
      </trkpt>
      <trkpt lat="48.58004" lon="-1.60976">
        <ele>64</ele>
        <time>2017-01-14T18:10:59Z</time>
      </trkpt>
      <trkpt lat="48.57989" lon="-1.61001">
        <ele>65</ele>
        <time>2017-01-14T18:12:59Z</time>
      </trkpt>
      <trkpt lat="48.57983" lon="-1.61011">
        <ele>65</ele>
        <time>2017-01-14T18:14:59Z</time>
      </trkpt>
      <trkpt lat="48.57972" lon="-1.61023">
        <ele>66</ele>
        <time>2017-01-14T18:16:59Z</time>
      </trkpt>
      <trkpt lat="48.57961" lon="-1.6103">
        <ele>66</ele>
        <time>2017-01-14T18:18:59Z</time>
      </trkpt>
      <trkpt lat="48.57948" lon="-1.61031">
        <ele>66</ele>
        <time>2017-01-14T18:20:59Z</time>
      </trkpt>
      <trkpt lat="48.57938" lon="-1.61033">
        <ele>66</ele>
        <time>2017-01-14T18:22:59Z</time>
      </trkpt>
      <trkpt lat="48.57928" lon="-1.6103">
        <ele>65</ele>
        <time>2017-01-14T18:24:59Z</time>
      </trkpt>
      <trkpt lat="48.57919" lon="-1.61027">
        <ele>65</ele>
        <time>2017-01-14T18:26:59Z</time>
      </trkpt>
      <trkpt lat="48.57893" lon="-1.61026">
        <ele>66</ele>
        <time>2017-01-14T18:28:59Z</time>
      </trkpt>
      <trkpt lat="48.57879" lon="-1.61024">
        <ele>66</ele>
        <time>2017-01-14T18:30:59Z</time>
      </trkpt>
      <trkpt lat="48.57864" lon="-1.61023">
        <ele>66</ele>
        <time>2017-01-14T18:32:59Z</time>
      </trkpt>
      <trkpt lat="48.5785" lon="-1.61022">
        <ele>67</ele>
        <time>2017-01-14T18:34:59Z</time>
      </trkpt>
      <trkpt lat="48.57837" lon="-1.61023">
        <ele>67</ele>
        <time>2017-01-14T18:36:59Z</time>
      </trkpt>
      <trkpt lat="48.57825" lon="-1.61032">
        <ele>68</ele>
        <time>2017-01-14T18:38:59Z</time>
      </trkpt>
      <trkpt lat="48.57806" lon="-1.61049">
        <ele>70</ele>
        <time>2017-01-14T18:40:59Z</time>
      </trkpt>
      <trkpt lat="48.57797" lon="-1.61059">
        <ele>71</ele>
        <time>2017-01-14T18:42:59Z</time>
      </trkpt>
      <trkpt lat="48.57797" lon="-1.61075">
        <ele>72</ele>
        <time>2017-01-14T18:44:59Z</time>
      </trkpt>
      <trkpt lat="48.57807" lon="-1.61082">
        <ele>72</ele>
        <time>2017-01-14T18:46:59Z</time>
      </trkpt>
      <trkpt lat="48.57816" lon="-1.61092">
        <ele>72</ele>
        <time>2017-01-14T18:48:59Z</time>
      </trkpt>
      <trkpt lat="48.57824" lon="-1.61104">
        <ele>73</ele>
        <time>2017-01-14T18:50:59Z</time>
      </trkpt>
      <trkpt lat="48.57832" lon="-1.61114">
        <ele>73</ele>
        <time>2017-01-14T18:52:59Z</time>
      </trkpt>
      <trkpt lat="48.5784" lon="-1.61123">
        <ele>74</ele>
        <time>2017-01-14T18:54:59Z</time>
      </trkpt>
      <trkpt lat="48.57855" lon="-1.61144">
        <ele>75</ele>
        <time>2017-01-14T18:56:59Z</time>
      </trkpt>
      <trkpt lat="48.57872" lon="-1.61163">
        <ele>76</ele>
        <time>2017-01-14T18:58:59Z</time>
      </trkpt>
      <trkpt lat="48.57887" lon="-1.61184">
        <ele>76</ele>
        <time>2017-01-14T19:00:59Z</time>
      </trkpt>
      <trkpt lat="48.57896" lon="-1.61194">
        <ele>77</ele>
        <time>2017-01-14T19:02:59Z</time>
      </trkpt>
      <trkpt lat="48.57902" lon="-1.61204">
        <ele>77</ele>
        <time>2017-01-14T19:04:59Z</time>
      </trkpt>
      <trkpt lat="48.57911" lon="-1.61213">
        <ele>77</ele>
        <time>2017-01-14T19:06:59Z</time>
      </trkpt>
      <trkpt lat="48.57927" lon="-1.61233">
        <ele>78</ele>
        <time>2017-01-14T19:08:59Z</time>
      </trkpt>
      <trkpt lat="48.57934" lon="-1.61244">
        <ele>78</ele>
        <time>2017-01-14T19:10:59Z</time>
      </trkpt>
      <trkpt lat="48.57925" lon="-1.61261">
        <ele>79</ele>
        <time>2017-01-14T19:12:59Z</time>
      </trkpt>
      <trkpt lat="48.57916" lon="-1.61269">
        <ele>79</ele>
        <time>2017-01-14T19:14:59Z</time>
      </trkpt>
      <trkpt lat="48.57908" lon="-1.61277">
        <ele>79</ele>
        <time>2017-01-14T19:16:59Z</time>
      </trkpt>
      <trkpt lat="48.57899" lon="-1.61285">
        <ele>80</ele>
        <time>2017-01-14T19:18:59Z</time>
      </trkpt>
      <trkpt lat="48.5789" lon="-1.61281">
        <ele>80</ele>
        <time>2017-01-14T19:20:59Z</time>
      </trkpt>
      <trkpt lat="48.57883" lon="-1.6127">
        <ele>80</ele>
        <time>2017-01-14T19:22:59Z</time>
      </trkpt>
      <trkpt lat="48.57877" lon="-1.61259">
        <ele>80</ele>
        <time>2017-01-14T19:24:59Z</time>
      </trkpt>
      <trkpt lat="48.57871" lon="-1.61245">
        <ele>79</ele>
        <time>2017-01-14T19:26:59Z</time>
      </trkpt>
      <trkpt lat="48.57862" lon="-1.61234">
        <ele>79</ele>
        <time>2017-01-14T19:28:59Z</time>
      </trkpt>
      <trkpt lat="48.57854" lon="-1.61227">
        <ele>79</ele>
        <time>2017-01-14T19:30:59Z</time>
      </trkpt>
      <trkpt lat="48.57846" lon="-1.61218">
        <ele>79</ele>
        <time>2017-01-14T19:32:59Z</time>
      </trkpt>
      <trkpt lat="48.57824" lon="-1.61207">
        <ele>79</ele>
        <time>2017-01-14T19:34:59Z</time>
      </trkpt>
      <trkpt lat="48.57813" lon="-1.61201">
        <ele>79</ele>
        <time>2017-01-14T19:36:59Z</time>
      </trkpt>
      <trkpt lat="48.57803" lon="-1.61195">
        <ele>79</ele>
        <time>2017-01-14T19:38:59Z</time>
      </trkpt>
      <trkpt lat="48.57791" lon="-1.61195">
        <ele>79</ele>
        <time>2017-01-14T19:40:59Z</time>
      </trkpt>
      <trkpt lat="48.57783" lon="-1.612">
        <ele>79</ele>
        <time>2017-01-14T19:42:59Z</time>
      </trkpt>
      <trkpt lat="48.57776" lon="-1.61213">
        <ele>80</ele>
        <time>2017-01-14T19:44:59Z</time>
      </trkpt>
      <trkpt lat="48.57767" lon="-1.61243">
        <ele>80</ele>
        <time>2017-01-14T19:46:59Z</time>
      </trkpt>
      <trkpt lat="48.57754" lon="-1.61274">
        <ele>80</ele>
        <time>2017-01-14T19:48:59Z</time>
      </trkpt>
      <trkpt lat="48.57751" lon="-1.61288">
        <ele>80</ele>
        <time>2017-01-14T19:50:59Z</time>
      </trkpt>
      <trkpt lat="48.57748" lon="-1.61302">
        <ele>80</ele>
        <time>2017-01-14T19:52:59Z</time>
      </trkpt>
      <trkpt lat="48.57745" lon="-1.61316">
        <ele>80</ele>
        <time>2017-01-14T19:54:59Z</time>
      </trkpt>
      <trkpt lat="48.57744" lon="-1.61331">
        <ele>80</ele>
        <time>2017-01-14T19:56:59Z</time>
      </trkpt>
      <trkpt lat="48.57746" lon="-1.61346">
        <ele>80</ele>
        <time>2017-01-14T19:58:59Z</time>
      </trkpt>
      <trkpt lat="48.57752" lon="-1.61391">
        <ele>81</ele>
        <time>2017-01-14T20:00:59Z</time>
      </trkpt>
      <trkpt lat="48.5775" lon="-1.61409">
        <ele>81</ele>
        <time>2017-01-14T20:02:59Z</time>
      </trkpt>
      <trkpt lat="48.57746" lon="-1.61424">
        <ele>81</ele>
        <time>2017-01-14T20:04:59Z</time>
      </trkpt>
      <trkpt lat="48.57742" lon="-1.61438">
        <ele>81</ele>
        <time>2017-01-14T20:06:59Z</time>
      </trkpt>
      <trkpt lat="48.57736" lon="-1.6145">
        <ele>81</ele>
        <time>2017-01-14T20:08:59Z</time>
      </trkpt>
      <trkpt lat="48.57728" lon="-1.61457">
        <ele>81</ele>
        <time>2017-01-14T20:10:59Z</time>
      </trkpt>
      <trkpt lat="48.57719" lon="-1.61463">
        <ele>81</ele>
        <time>2017-01-14T20:12:59Z</time>
      </trkpt>
      <trkpt lat="48.57711" lon="-1.61469">
        <ele>81</ele>
        <time>2017-01-14T20:14:59Z</time>
      </trkpt>
      <trkpt lat="48.57702" lon="-1.61475">
        <ele>81</ele>
        <time>2017-01-14T20:16:59Z</time>
      </trkpt>
      <trkpt lat="48.57684" lon="-1.61485">
        <ele>80</ele>
        <time>2017-01-14T20:18:59Z</time>
      </trkpt>
      <trkpt lat="48.57664" lon="-1.61505">
        <ele>80</ele>
        <time>2017-01-14T20:20:59Z</time>
      </trkpt>
      <trkpt lat="48.57656" lon="-1.61515">
        <ele>80</ele>
        <time>2017-01-14T20:22:59Z</time>
      </trkpt>
      <trkpt lat="48.57647" lon="-1.61528">
        <ele>80</ele>
        <time>2017-01-14T20:24:59Z</time>
      </trkpt>
      <trkpt lat="48.5764" lon="-1.61542">
        <ele>80</ele>
        <time>2017-01-14T20:26:59Z</time>
      </trkpt>
      <trkpt lat="48.57637" lon="-1.61558">
        <ele>80</ele>
        <time>2017-01-14T20:28:59Z</time>
      </trkpt>
      <trkpt lat="48.57636" lon="-1.61575">
        <ele>80</ele>
        <time>2017-01-14T20:30:59Z</time>
      </trkpt>
      <trkpt lat="48.57631" lon="-1.61588">
        <ele>81</ele>
        <time>2017-01-14T20:32:59Z</time>
      </trkpt>
      <trkpt lat="48.57623" lon="-1.61595">
        <ele>81</ele>
        <time>2017-01-14T20:34:59Z</time>
      </trkpt>
      <trkpt lat="48.57614" lon="-1.61607">
        <ele>81</ele>
        <time>2017-01-14T20:36:59Z</time>
      </trkpt>
      <trkpt lat="48.57595" lon="-1.61621">
        <ele>82</ele>
        <time>2017-01-14T20:38:59Z</time>
      </trkpt>
      <trkpt lat="48.57585" lon="-1.61628">
        <ele>82</ele>
        <time>2017-01-14T20:40:59Z</time>
      </trkpt>
      <trkpt lat="48.57577" lon="-1.61637">
        <ele>83</ele>
        <time>2017-01-14T20:42:59Z</time>
      </trkpt>
      <trkpt lat="48.57569" lon="-1.61644">
        <ele>84</ele>
        <time>2017-01-14T20:44:59Z</time>
      </trkpt>
      <trkpt lat="48.57558" lon="-1.61649">
        <ele>84</ele>
        <time>2017-01-14T20:46:59Z</time>
      </trkpt>
      <trkpt lat="48.5755" lon="-1.61657">
        <ele>85</ele>
        <time>2017-01-14T20:48:59Z</time>
      </trkpt>
      <trkpt lat="48.57538" lon="-1.61657">
        <ele>86</ele>
        <time>2017-01-14T20:50:59Z</time>
      </trkpt>
      <trkpt lat="48.57529" lon="-1.6165">
        <ele>86</ele>
        <time>2017-01-14T20:52:59Z</time>
      </trkpt>
      <trkpt lat="48.57522" lon="-1.61639">
        <ele>85</ele>
        <time>2017-01-14T20:54:59Z</time>
      </trkpt>
      <trkpt lat="48.57515" lon="-1.61628">
        <ele>85</ele>
        <time>2017-01-14T20:56:59Z</time>
      </trkpt>
      <trkpt lat="48.575" lon="-1.61606">
        <ele>84</ele>
        <time>2017-01-14T20:58:59Z</time>
      </trkpt>
      <trkpt lat="48.57489" lon="-1.61598">
        <ele>83</ele>
        <time>2017-01-14T21:00:59Z</time>
      </trkpt>
      <trkpt lat="48.57476" lon="-1.61599">
        <ele>84</ele>
        <time>2017-01-14T21:02:59Z</time>
      </trkpt>
      <trkpt lat="48.57467" lon="-1.61608">
        <ele>84</ele>
        <time>2017-01-14T21:04:59Z</time>
      </trkpt>
      <trkpt lat="48.57461" lon="-1.6162">
        <ele>85</ele>
        <time>2017-01-14T21:06:59Z</time>
      </trkpt>
      <trkpt lat="48.57458" lon="-1.61637">
        <ele>86</ele>
        <time>2017-01-14T21:08:59Z</time>
      </trkpt>
      <trkpt lat="48.57455" lon="-1.61655">
        <ele>87</ele>
        <time>2017-01-14T21:10:59Z</time>
      </trkpt>
      <trkpt lat="48.57453" lon="-1.61671">
        <ele>88</ele>
        <time>2017-01-14T21:12:59Z</time>
      </trkpt>
      <trkpt lat="48.57448" lon="-1.61688">
        <ele>88</ele>
        <time>2017-01-14T21:14:59Z</time>
      </trkpt>
      <trkpt lat="48.57442" lon="-1.6172">
        <ele>88</ele>
        <time>2017-01-14T21:16:59Z</time>
      </trkpt>
      <trkpt lat="48.57444" lon="-1.61736">
        <ele>88</ele>
        <time>2017-01-14T21:18:59Z</time>
      </trkpt>
      <trkpt lat="48.57451" lon="-1.61746">
        <ele>88</ele>
        <time>2017-01-14T21:20:59Z</time>
      </trkpt>
      <trkpt lat="48.57461" lon="-1.61753">
        <ele>89</ele>
        <time>2017-01-14T21:22:59Z</time>
      </trkpt>
      <trkpt lat="48.57472" lon="-1.61757">
        <ele>89</ele>
        <time>2017-01-14T21:24:59Z</time>
      </trkpt>
      <trkpt lat="48.57496" lon="-1.61768">
        <ele>90</ele>
        <time>2017-01-14T21:26:59Z</time>
      </trkpt>
      <trkpt lat="48.57509" lon="-1.61778">
        <ele>90</ele>
        <time>2017-01-14T21:28:59Z</time>
      </trkpt>
      <trkpt lat="48.57516" lon="-1.61788">
        <ele>90</ele>
        <time>2017-01-14T21:30:59Z</time>
      </trkpt>
      <trkpt lat="48.57517" lon="-1.61803">
        <ele>90</ele>
        <time>2017-01-14T21:32:59Z</time>
      </trkpt>
      <trkpt lat="48.57518" lon="-1.6182">
        <ele>90</ele>
        <time>2017-01-14T21:34:59Z</time>
      </trkpt>
      <trkpt lat="48.57522" lon="-1.61835">
        <ele>90</ele>
        <time>2017-01-14T21:36:59Z</time>
      </trkpt>
      <trkpt lat="48.57526" lon="-1.6185">
        <ele>90</ele>
        <time>2017-01-14T21:38:59Z</time>
      </trkpt>
      <trkpt lat="48.57529" lon="-1.61876">
        <ele>91</ele>
        <time>2017-01-14T21:40:59Z</time>
      </trkpt>
      <trkpt lat="48.57535" lon="-1.61894">
        <ele>91</ele>
        <time>2017-01-14T21:42:59Z</time>
      </trkpt>
      <trkpt lat="48.57538" lon="-1.61914">
        <ele>92</ele>
        <time>2017-01-14T21:44:59Z</time>
      </trkpt>
      <trkpt lat="48.57542" lon="-1.61928">
        <ele>91</ele>
        <time>2017-01-14T21:46:59Z</time>
      </trkpt>
      <trkpt lat="48.57547" lon="-1.61943">
        <ele>91</ele>
        <time>2017-01-14T21:48:59Z</time>
      </trkpt>
      <trkpt lat="48.57549" lon="-1.6196">
        <ele>91</ele>
        <time>2017-01-14T21:50:59Z</time>
      </trkpt>
      <trkpt lat="48.57553" lon="-1.61979">
        <ele>91</ele>
        <time>2017-01-14T21:52:59Z</time>
      </trkpt>
      <trkpt lat="48.57556" lon="-1.61995">
        <ele>91</ele>
        <time>2017-01-14T21:54:59Z</time>
      </trkpt>
      <trkpt lat="48.57556" lon="-1.62012">
        <ele>91</ele>
        <time>2017-01-14T21:56:59Z</time>
      </trkpt>
      <trkpt lat="48.57558" lon="-1.62026">
        <ele>91</ele>
        <time>2017-01-14T21:58:59Z</time>
      </trkpt>
      <trkpt lat="48.57559" lon="-1.62042">
        <ele>91</ele>
        <time>2017-01-14T22:00:59Z</time>
      </trkpt>
      <trkpt lat="48.57561" lon="-1.62059">
        <ele>91</ele>
        <time>2017-01-14T22:02:59Z</time>
      </trkpt>
      <trkpt lat="48.57561" lon="-1.62075">
        <ele>91</ele>
        <time>2017-01-14T22:04:59Z</time>
      </trkpt>
      <trkpt lat="48.57563" lon="-1.62092">
        <ele>92</ele>
        <time>2017-01-14T22:06:59Z</time>
      </trkpt>
      <trkpt lat="48.57567" lon="-1.62122">
        <ele>92</ele>
        <time>2017-01-14T22:08:59Z</time>
      </trkpt>
      <trkpt lat="48.57573" lon="-1.62152">
        <ele>92</ele>
        <time>2017-01-14T22:10:59Z</time>
      </trkpt>
      <trkpt lat="48.57576" lon="-1.62167">
        <ele>92</ele>
        <time>2017-01-14T22:12:59Z</time>
      </trkpt>
      <trkpt lat="48.57578" lon="-1.62182">
        <ele>92</ele>
        <time>2017-01-14T22:14:59Z</time>
      </trkpt>
      <trkpt lat="48.5758" lon="-1.62196">
        <ele>92</ele>
        <time>2017-01-14T22:16:59Z</time>
      </trkpt>
      <trkpt lat="48.57582" lon="-1.62212">
        <ele>93</ele>
        <time>2017-01-14T22:18:59Z</time>
      </trkpt>
      <trkpt lat="48.57589" lon="-1.62242">
        <ele>93</ele>
        <time>2017-01-14T22:20:59Z</time>
      </trkpt>
      <trkpt lat="48.57591" lon="-1.62259">
        <ele>93</ele>
        <time>2017-01-14T22:22:59Z</time>
      </trkpt>
      <trkpt lat="48.57593" lon="-1.62273">
        <ele>93</ele>
        <time>2017-01-14T22:24:59Z</time>
      </trkpt>
      <trkpt lat="48.57597" lon="-1.62287">
        <ele>93</ele>
        <time>2017-01-14T22:26:59Z</time>
      </trkpt>
      <trkpt lat="48.57598" lon="-1.62302">
        <ele>93</ele>
        <time>2017-01-14T22:28:59Z</time>
      </trkpt>
      <trkpt lat="48.576" lon="-1.62318">
        <ele>93</ele>
        <time>2017-01-14T22:30:59Z</time>
      </trkpt>
      <trkpt lat="48.57606" lon="-1.6235">
        <ele>93</ele>
        <time>2017-01-14T22:32:59Z</time>
      </trkpt>
      <trkpt lat="48.57609" lon="-1.62367">
        <ele>93</ele>
        <time>2017-01-14T22:34:59Z</time>
      </trkpt>
      <trkpt lat="48.5761" lon="-1.62382">
        <ele>93</ele>
        <time>2017-01-14T22:36:59Z</time>
      </trkpt>
      <trkpt lat="48.57613" lon="-1.62397">
        <ele>93</ele>
        <time>2017-01-14T22:38:59Z</time>
      </trkpt>
      <trkpt lat="48.57615" lon="-1.62412">
        <ele>92</ele>
        <time>2017-01-14T22:40:59Z</time>
      </trkpt>
      <trkpt lat="48.5761" lon="-1.62425">
        <ele>92</ele>
        <time>2017-01-14T22:42:59Z</time>
      </trkpt>
      <trkpt lat="48.576" lon="-1.62431">
        <ele>92</ele>
        <time>2017-01-14T22:44:59Z</time>
      </trkpt>
      <trkpt lat="48.57591" lon="-1.62435">
        <ele>92</ele>
        <time>2017-01-14T22:46:59Z</time>
      </trkpt>
      <trkpt lat="48.57581" lon="-1.62438">
        <ele>92</ele>
        <time>2017-01-14T22:48:59Z</time>
      </trkpt>
      <trkpt lat="48.57561" lon="-1.62441">
        <ele>92</ele>
        <time>2017-01-14T22:50:59Z</time>
      </trkpt>
      <trkpt lat="48.57552" lon="-1.62439">
        <ele>92</ele>
        <time>2017-01-14T22:52:59Z</time>
      </trkpt>
      <trkpt lat="48.57551" lon="-1.62439">
        <ele>92</ele>
        <time>2017-01-14T22:54:59Z</time>
      </trkpt>
      <trkpt lat="48.57561" lon="-1.62441">
        <ele>92</ele>
        <time>2017-01-14T22:56:59Z</time>
      </trkpt>
      <trkpt lat="48.57566" lon="-1.6245">
        <ele>92</ele>
        <time>2017-01-14T22:58:59Z</time>
      </trkpt>
      <trkpt lat="48.57561" lon="-1.62463">
        <ele>92</ele>
        <time>2017-01-14T23:00:59Z</time>
      </trkpt>
      <trkpt lat="48.57546" lon="-1.62486">
        <ele>92</ele>
        <time>2017-01-14T23:02:59Z</time>
      </trkpt>
      <trkpt lat="48.57541" lon="-1.62498">
        <ele>91</ele>
        <time>2017-01-14T23:04:59Z</time>
      </trkpt>
      <trkpt lat="48.57538" lon="-1.62513">
        <ele>91</ele>
        <time>2017-01-14T23:06:59Z</time>
      </trkpt>
      <trkpt lat="48.57537" lon="-1.6253">
        <ele>91</ele>
        <time>2017-01-14T23:08:59Z</time>
      </trkpt>
      <trkpt lat="48.57543" lon="-1.62543">
        <ele>92</ele>
        <time>2017-01-14T23:10:59Z</time>
      </trkpt>
      <trkpt lat="48.57553" lon="-1.62549">
        <ele>92</ele>
        <time>2017-01-14T23:12:59Z</time>
      </trkpt>
      <trkpt lat="48.57565" lon="-1.62551">
        <ele>92</ele>
        <time>2017-01-14T23:14:59Z</time>
      </trkpt>
      <trkpt lat="48.57589" lon="-1.62558">
        <ele>93</ele>
        <time>2017-01-14T23:16:59Z</time>
      </trkpt>
      <trkpt lat="48.57602" lon="-1.62558">
        <ele>93</ele>
        <time>2017-01-14T23:18:59Z</time>
      </trkpt>
      <trkpt lat="48.57612" lon="-1.62551">
        <ele>93</ele>
        <time>2017-01-14T23:20:59Z</time>
      </trkpt>
      <trkpt lat="48.57623" lon="-1.62549">
        <ele>93</ele>
        <time>2017-01-14T23:22:59Z</time>
      </trkpt>
      <trkpt lat="48.57626" lon="-1.6257">
        <ele>93</ele>
        <time>2017-01-14T23:24:59Z</time>
      </trkpt>
      <trkpt lat="48.57624" lon="-1.62618">
        <ele>92</ele>
        <time>2017-01-14T23:26:59Z</time>
      </trkpt>
      <trkpt lat="48.57623" lon="-1.6264">
        <ele>91</ele>
        <time>2017-01-14T23:28:59Z</time>
      </trkpt>
      <trkpt lat="48.57621" lon="-1.62667">
        <ele>91</ele>
        <time>2017-01-14T23:30:59Z</time>
      </trkpt>
      <trkpt lat="48.57615" lon="-1.62749">
        <ele>89</ele>
        <time>2017-01-14T23:32:59Z</time>
      </trkpt>
      <trkpt lat="48.57615" lon="-1.62768">
        <ele>89</ele>
        <time>2017-01-14T23:34:59Z</time>
      </trkpt>
      <trkpt lat="48.57615" lon="-1.62788">
        <ele>88</ele>
        <time>2017-01-14T23:36:59Z</time>
      </trkpt>
      <trkpt lat="48.57616" lon="-1.62806">
        <ele>87</ele>
        <time>2017-01-14T23:38:59Z</time>
      </trkpt>
      <trkpt lat="48.57621" lon="-1.62818">
        <ele>87</ele>
        <time>2017-01-14T23:40:59Z</time>
      </trkpt>
      <trkpt lat="48.57643" lon="-1.62829">
        <ele>86</ele>
        <time>2017-01-14T23:42:59Z</time>
      </trkpt>
      <trkpt lat="48.57648" lon="-1.6284">
        <ele>86</ele>
        <time>2017-01-14T23:44:59Z</time>
      </trkpt>
      <trkpt lat="48.57651" lon="-1.62855">
        <ele>85</ele>
        <time>2017-01-14T23:46:59Z</time>
      </trkpt>
      <trkpt lat="48.57653" lon="-1.62871">
        <ele>84</ele>
        <time>2017-01-14T23:48:59Z</time>
      </trkpt>
      <trkpt lat="48.57652" lon="-1.62887">
        <ele>84</ele>
        <time>2017-01-14T23:50:59Z</time>
      </trkpt>
      <trkpt lat="48.57651" lon="-1.62903">
        <ele>83</ele>
        <time>2017-01-14T23:52:59Z</time>
      </trkpt>
      <trkpt lat="48.57651" lon="-1.62919">
        <ele>82</ele>
        <time>2017-01-14T23:54:59Z</time>
      </trkpt>
      <trkpt lat="48.57651" lon="-1.62948">
        <ele>81</ele>
        <time>2017-01-14T23:56:59Z</time>
      </trkpt>
      <trkpt lat="48.57651" lon="-1.62963">
        <ele>80</ele>
        <time>2017-01-14T23:58:59Z</time>
      </trkpt>
      <trkpt lat="48.57651" lon="-1.62979">
        <ele>79</ele>
        <time>2017-01-15T00:00:59Z</time>
      </trkpt>
      <trkpt lat="48.57651" lon="-1.63008">
        <ele>78</ele>
        <time>2017-01-15T00:02:59Z</time>
      </trkpt>
      <trkpt lat="48.57653" lon="-1.63023">
        <ele>77</ele>
        <time>2017-01-15T00:04:59Z</time>
      </trkpt>
      <trkpt lat="48.57657" lon="-1.63037">
        <ele>77</ele>
        <time>2017-01-15T00:06:59Z</time>
      </trkpt>
      <trkpt lat="48.57659" lon="-1.63051">
        <ele>76</ele>
        <time>2017-01-15T00:08:59Z</time>
      </trkpt>
      <trkpt lat="48.57661" lon="-1.63065">
        <ele>75</ele>
        <time>2017-01-15T00:10:59Z</time>
      </trkpt>
      <trkpt lat="48.5766" lon="-1.63111">
        <ele>74</ele>
        <time>2017-01-15T00:12:59Z</time>
      </trkpt>
      <trkpt lat="48.57662" lon="-1.63126">
        <ele>74</ele>
        <time>2017-01-15T00:14:59Z</time>
      </trkpt>
      <trkpt lat="48.57666" lon="-1.6314">
        <ele>74</ele>
        <time>2017-01-15T00:16:59Z</time>
      </trkpt>
      <trkpt lat="48.57672" lon="-1.63151">
        <ele>74</ele>
        <time>2017-01-15T00:18:59Z</time>
      </trkpt>
      <trkpt lat="48.57682" lon="-1.63158">
        <ele>73</ele>
        <time>2017-01-15T00:20:59Z</time>
      </trkpt>
      <trkpt lat="48.57691" lon="-1.63166">
        <ele>73</ele>
        <time>2017-01-15T00:22:59Z</time>
      </trkpt>
      <trkpt lat="48.57698" lon="-1.63178">
        <ele>73</ele>
        <time>2017-01-15T00:24:59Z</time>
      </trkpt>
      <trkpt lat="48.57703" lon="-1.63194">
        <ele>73</ele>
        <time>2017-01-15T00:26:59Z</time>
      </trkpt>
      <trkpt lat="48.57705" lon="-1.63215">
        <ele>73</ele>
        <time>2017-01-15T00:28:59Z</time>
      </trkpt>
      <trkpt lat="48.57708" lon="-1.63232">
        <ele>73</ele>
        <time>2017-01-15T00:30:59Z</time>
      </trkpt>
      <trkpt lat="48.57709" lon="-1.63246">
        <ele>73</ele>
        <time>2017-01-15T00:32:59Z</time>
      </trkpt>
      <trkpt lat="48.57714" lon="-1.63278">
        <ele>73</ele>
        <time>2017-01-15T00:34:59Z</time>
      </trkpt>
      <trkpt lat="48.57719" lon="-1.63296">
        <ele>73</ele>
        <time>2017-01-15T00:36:59Z</time>
      </trkpt>
      <trkpt lat="48.57724" lon="-1.63315">
        <ele>73</ele>
        <time>2017-01-15T00:38:59Z</time>
      </trkpt>
      <trkpt lat="48.57731" lon="-1.63353">
        <ele>73</ele>
        <time>2017-01-15T00:40:59Z</time>
      </trkpt>
      <trkpt lat="48.57739" lon="-1.63387">
        <ele>72</ele>
        <time>2017-01-15T00:42:59Z</time>
      </trkpt>
      <trkpt lat="48.57743" lon="-1.63405">
        <ele>72</ele>
        <time>2017-01-15T00:44:59Z</time>
      </trkpt>
      <trkpt lat="48.57746" lon="-1.6342">
        <ele>72</ele>
        <time>2017-01-15T00:46:59Z</time>
      </trkpt>
      <trkpt lat="48.57748" lon="-1.63438">
        <ele>72</ele>
        <time>2017-01-15T00:48:59Z</time>
      </trkpt>
      <trkpt lat="48.57751" lon="-1.63455">
        <ele>72</ele>
        <time>2017-01-15T00:50:59Z</time>
      </trkpt>
      <trkpt lat="48.57741" lon="-1.63466">
        <ele>72</ele>
        <time>2017-01-15T00:52:59Z</time>
      </trkpt>
      <trkpt lat="48.57729" lon="-1.63471">
        <ele>72</ele>
        <time>2017-01-15T00:54:59Z</time>
      </trkpt>
      <trkpt lat="48.5771" lon="-1.63486">
        <ele>73</ele>
        <time>2017-01-15T00:56:59Z</time>
      </trkpt>
      <trkpt lat="48.57694" lon="-1.63503">
        <ele>73</ele>
        <time>2017-01-15T00:58:59Z</time>
      </trkpt>
      <trkpt lat="48.57684" lon="-1.63509">
        <ele>73</ele>
        <time>2017-01-15T01:00:59Z</time>
      </trkpt>
      <trkpt lat="48.57676" lon="-1.63517">
        <ele>73</ele>
        <time>2017-01-15T01:02:59Z</time>
      </trkpt>
      <trkpt lat="48.57667" lon="-1.63523">
        <ele>73</ele>
        <time>2017-01-15T01:04:59Z</time>
      </trkpt>
      <trkpt lat="48.57659" lon="-1.63531">
        <ele>73</ele>
        <time>2017-01-15T01:06:59Z</time>
      </trkpt>
      <trkpt lat="48.5764" lon="-1.63542">
        <ele>74</ele>
        <time>2017-01-15T01:08:59Z</time>
      </trkpt>
      <trkpt lat="48.5762" lon="-1.63546">
        <ele>74</ele>
        <time>2017-01-15T01:10:59Z</time>
      </trkpt>
      <trkpt lat="48.5761" lon="-1.63547">
        <ele>74</ele>
        <time>2017-01-15T01:12:59Z</time>
      </trkpt>
      <trkpt lat="48.576" lon="-1.63548">
        <ele>74</ele>
        <time>2017-01-15T01:14:59Z</time>
      </trkpt>
      <trkpt lat="48.5758" lon="-1.63547">
        <ele>75</ele>
        <time>2017-01-15T01:16:59Z</time>
      </trkpt>
      <trkpt lat="48.57569" lon="-1.63546">
        <ele>75</ele>
        <time>2017-01-15T01:18:59Z</time>
      </trkpt>
      <trkpt lat="48.5756" lon="-1.63546">
        <ele>75</ele>
        <time>2017-01-15T01:20:59Z</time>
      </trkpt>
      <trkpt lat="48.57549" lon="-1.63544">
        <ele>75</ele>
        <time>2017-01-15T01:22:59Z</time>
      </trkpt>
      <trkpt lat="48.57538" lon="-1.63542">
        <ele>75</ele>
        <time>2017-01-15T01:24:59Z</time>
      </trkpt>
      <trkpt lat="48.57528" lon="-1.63541">
        <ele>75</ele>
        <time>2017-01-15T01:26:59Z</time>
      </trkpt>
      <trkpt lat="48.57508" lon="-1.63537">
        <ele>76</ele>
        <time>2017-01-15T01:28:59Z</time>
      </trkpt>
      <trkpt lat="48.57498" lon="-1.63534">
        <ele>76</ele>
        <time>2017-01-15T01:30:59Z</time>
      </trkpt>
      <trkpt lat="48.57478" lon="-1.6353">
        <ele>77</ele>
        <time>2017-01-15T01:32:59Z</time>
      </trkpt>
      <trkpt lat="48.57459" lon="-1.63528">
        <ele>77</ele>
        <time>2017-01-15T01:34:59Z</time>
      </trkpt>
      <trkpt lat="48.57439" lon="-1.63522">
        <ele>78</ele>
        <time>2017-01-15T01:36:59Z</time>
      </trkpt>
      <trkpt lat="48.57396" lon="-1.6352">
        <ele>80</ele>
        <time>2017-01-15T01:38:59Z</time>
      </trkpt>
      <trkpt lat="48.57383" lon="-1.6352">
        <ele>80</ele>
        <time>2017-01-15T01:40:59Z</time>
      </trkpt>
      <trkpt lat="48.5737" lon="-1.63523">
        <ele>81</ele>
        <time>2017-01-15T01:42:59Z</time>
      </trkpt>
      <trkpt lat="48.57338" lon="-1.63522">
        <ele>82</ele>
        <time>2017-01-15T01:44:59Z</time>
      </trkpt>
      <trkpt lat="48.57326" lon="-1.6352">
        <ele>82</ele>
        <time>2017-01-15T01:46:59Z</time>
      </trkpt>
      <trkpt lat="48.57312" lon="-1.63517">
        <ele>83</ele>
        <time>2017-01-15T01:48:59Z</time>
      </trkpt>
      <trkpt lat="48.57299" lon="-1.63513">
        <ele>83</ele>
        <time>2017-01-15T01:50:59Z</time>
      </trkpt>
      <trkpt lat="48.57286" lon="-1.63513">
        <ele>83</ele>
        <time>2017-01-15T01:52:59Z</time>
      </trkpt>
      <trkpt lat="48.57275" lon="-1.63506">
        <ele>83</ele>
        <time>2017-01-15T01:54:59Z</time>
      </trkpt>
      <trkpt lat="48.57263" lon="-1.63507">
        <ele>84</ele>
        <time>2017-01-15T01:56:59Z</time>
      </trkpt>
      <trkpt lat="48.57252" lon="-1.63499">
        <ele>84</ele>
        <time>2017-01-15T01:58:59Z</time>
      </trkpt>
      <trkpt lat="48.5724" lon="-1.63498">
        <ele>84</ele>
        <time>2017-01-15T02:00:59Z</time>
      </trkpt>
      <trkpt lat="48.57229" lon="-1.63501">
        <ele>84</ele>
        <time>2017-01-15T02:02:59Z</time>
      </trkpt>
      <trkpt lat="48.57217" lon="-1.635">
        <ele>84</ele>
        <time>2017-01-15T02:04:59Z</time>
      </trkpt>
      <trkpt lat="48.57206" lon="-1.63498">
        <ele>83</ele>
        <time>2017-01-15T02:06:59Z</time>
      </trkpt>
      <trkpt lat="48.57196" lon="-1.63492">
        <ele>83</ele>
        <time>2017-01-15T02:08:59Z</time>
      </trkpt>
      <trkpt lat="48.57186" lon="-1.63492">
        <ele>83</ele>
        <time>2017-01-15T02:10:59Z</time>
      </trkpt>
      <trkpt lat="48.57176" lon="-1.6349">
        <ele>83</ele>
        <time>2017-01-15T02:12:59Z</time>
      </trkpt>
      <trkpt lat="48.57165" lon="-1.63486">
        <ele>83</ele>
        <time>2017-01-15T02:14:59Z</time>
      </trkpt>
      <trkpt lat="48.57155" lon="-1.63482">
        <ele>83</ele>
        <time>2017-01-15T02:16:59Z</time>
      </trkpt>
      <trkpt lat="48.57146" lon="-1.63476">
        <ele>84</ele>
        <time>2017-01-15T02:18:59Z</time>
      </trkpt>
      <trkpt lat="48.57135" lon="-1.63471">
        <ele>84</ele>
        <time>2017-01-15T02:20:59Z</time>
      </trkpt>
      <trkpt lat="48.57126" lon="-1.63465">
        <ele>84</ele>
        <time>2017-01-15T02:22:59Z</time>
      </trkpt>
      <trkpt lat="48.57117" lon="-1.63461">
        <ele>85</ele>
        <time>2017-01-15T02:24:59Z</time>
      </trkpt>
      <trkpt lat="48.57109" lon="-1.63453">
        <ele>85</ele>
        <time>2017-01-15T02:26:59Z</time>
      </trkpt>
      <trkpt lat="48.57098" lon="-1.63446">
        <ele>85</ele>
        <time>2017-01-15T02:28:59Z</time>
      </trkpt>
      <trkpt lat="48.57075" lon="-1.63435">
        <ele>86</ele>
        <time>2017-01-15T02:30:59Z</time>
      </trkpt>
      <trkpt lat="48.57063" lon="-1.63428">
        <ele>86</ele>
        <time>2017-01-15T02:32:59Z</time>
      </trkpt>
      <trkpt lat="48.57052" lon="-1.63423">
        <ele>86</ele>
        <time>2017-01-15T02:34:59Z</time>
      </trkpt>
      <trkpt lat="48.57041" lon="-1.63416">
        <ele>87</ele>
        <time>2017-01-15T02:36:59Z</time>
      </trkpt>
      <trkpt lat="48.57027" lon="-1.63414">
        <ele>87</ele>
        <time>2017-01-15T02:38:59Z</time>
      </trkpt>
      <trkpt lat="48.57014" lon="-1.63409">
        <ele>87</ele>
        <time>2017-01-15T02:40:59Z</time>
      </trkpt>
      <trkpt lat="48.57003" lon="-1.63402">
        <ele>87</ele>
        <time>2017-01-15T02:42:59Z</time>
      </trkpt>
      <trkpt lat="48.56976" lon="-1.6338">
        <ele>87</ele>
        <time>2017-01-15T02:44:59Z</time>
      </trkpt>
      <trkpt lat="48.56961" lon="-1.63375">
        <ele>87</ele>
        <time>2017-01-15T02:46:59Z</time>
      </trkpt>
      <trkpt lat="48.56946" lon="-1.6337">
        <ele>87</ele>
        <time>2017-01-15T02:48:59Z</time>
      </trkpt>
      <trkpt lat="48.56935" lon="-1.6337">
        <ele>87</ele>
        <time>2017-01-15T02:50:59Z</time>
      </trkpt>
      <trkpt lat="48.56912" lon="-1.63384">
        <ele>86</ele>
        <time>2017-01-15T02:52:59Z</time>
      </trkpt>
      <trkpt lat="48.56902" lon="-1.63389">
        <ele>86</ele>
        <time>2017-01-15T02:54:59Z</time>
      </trkpt>
      <trkpt lat="48.56891" lon="-1.63392">
        <ele>85</ele>
        <time>2017-01-15T02:56:59Z</time>
      </trkpt>
      <trkpt lat="48.56868" lon="-1.63378">
        <ele>84</ele>
        <time>2017-01-15T02:58:59Z</time>
      </trkpt>
      <trkpt lat="48.56858" lon="-1.63372">
        <ele>83</ele>
        <time>2017-01-15T03:00:59Z</time>
      </trkpt>
      <trkpt lat="48.5685" lon="-1.6336">
        <ele>83</ele>
        <time>2017-01-15T03:02:59Z</time>
      </trkpt>
      <trkpt lat="48.56841" lon="-1.63348">
        <ele>83</ele>
        <time>2017-01-15T03:04:59Z</time>
      </trkpt>
      <trkpt lat="48.56832" lon="-1.63337">
        <ele>83</ele>
        <time>2017-01-15T03:06:59Z</time>
      </trkpt>
      <trkpt lat="48.56825" lon="-1.63325">
        <ele>83</ele>
        <time>2017-01-15T03:08:59Z</time>
      </trkpt>
      <trkpt lat="48.56814" lon="-1.63311">
        <ele>83</ele>
        <time>2017-01-15T03:10:59Z</time>
      </trkpt>
      <trkpt lat="48.56806" lon="-1.63296">
        <ele>84</ele>
        <time>2017-01-15T03:12:59Z</time>
      </trkpt>
      <trkpt lat="48.56792" lon="-1.63283">
        <ele>84</ele>
        <time>2017-01-15T03:14:59Z</time>
      </trkpt>
      <trkpt lat="48.56781" lon="-1.63271">
        <ele>84</ele>
        <time>2017-01-15T03:16:59Z</time>
      </trkpt>
      <trkpt lat="48.56767" lon="-1.63246">
        <ele>85</ele>
        <time>2017-01-15T03:18:59Z</time>
      </trkpt>
      <trkpt lat="48.56753" lon="-1.63225">
        <ele>86</ele>
        <time>2017-01-15T03:20:59Z</time>
      </trkpt>
      <trkpt lat="48.56744" lon="-1.63216">
        <ele>86</ele>
        <time>2017-01-15T03:22:59Z</time>
      </trkpt>
      <trkpt lat="48.56729" lon="-1.63196">
        <ele>87</ele>
        <time>2017-01-15T03:24:59Z</time>
      </trkpt>
      <trkpt lat="48.56715" lon="-1.6317">
        <ele>87</ele>
        <time>2017-01-15T03:26:59Z</time>
      </trkpt>
      <trkpt lat="48.56714" lon="-1.6315">
        <ele>87</ele>
        <time>2017-01-15T03:28:59Z</time>
      </trkpt>
      <trkpt lat="48.56719" lon="-1.63126">
        <ele>88</ele>
        <time>2017-01-15T03:30:59Z</time>
      </trkpt>
      <trkpt lat="48.56726" lon="-1.63106">
        <ele>88</ele>
        <time>2017-01-15T03:32:59Z</time>
      </trkpt>
      <trkpt lat="48.56731" lon="-1.63077">
        <ele>88</ele>
        <time>2017-01-15T03:34:59Z</time>
      </trkpt>
      <trkpt lat="48.56735" lon="-1.63057">
        <ele>88</ele>
        <time>2017-01-15T03:36:59Z</time>
      </trkpt>
      <trkpt lat="48.5674" lon="-1.63042">
        <ele>88</ele>
        <time>2017-01-15T03:38:59Z</time>
      </trkpt>
      <trkpt lat="48.56744" lon="-1.63027">
        <ele>88</ele>
        <time>2017-01-15T03:40:59Z</time>
      </trkpt>
      <trkpt lat="48.56748" lon="-1.63012">
        <ele>88</ele>
        <time>2017-01-15T03:42:59Z</time>
      </trkpt>
      <trkpt lat="48.56755" lon="-1.62996">
        <ele>88</ele>
        <time>2017-01-15T03:44:59Z</time>
      </trkpt>
      <trkpt lat="48.5676" lon="-1.62981">
        <ele>87</ele>
        <time>2017-01-15T03:46:59Z</time>
      </trkpt>
      <trkpt lat="48.56765" lon="-1.62964">
        <ele>87</ele>
        <time>2017-01-15T03:48:59Z</time>
      </trkpt>
      <trkpt lat="48.56772" lon="-1.6295">
        <ele>87</ele>
        <time>2017-01-15T03:50:59Z</time>
      </trkpt>
      <trkpt lat="48.56777" lon="-1.62935">
        <ele>86</ele>
        <time>2017-01-15T03:52:59Z</time>
      </trkpt>
      <trkpt lat="48.56782" lon="-1.62919">
        <ele>86</ele>
        <time>2017-01-15T03:54:59Z</time>
      </trkpt>
      <trkpt lat="48.56784" lon="-1.62904">
        <ele>86</ele>
        <time>2017-01-15T03:56:59Z</time>
      </trkpt>
      <trkpt lat="48.56786" lon="-1.62888">
        <ele>87</ele>
        <time>2017-01-15T03:58:59Z</time>
      </trkpt>
      <trkpt lat="48.56791" lon="-1.62859">
        <ele>87</ele>
        <time>2017-01-15T04:00:59Z</time>
      </trkpt>
      <trkpt lat="48.56798" lon="-1.6283">
        <ele>88</ele>
        <time>2017-01-15T04:02:59Z</time>
      </trkpt>
      <trkpt lat="48.56799" lon="-1.62815">
        <ele>87</ele>
        <time>2017-01-15T04:04:59Z</time>
      </trkpt>
      <trkpt lat="48.56802" lon="-1.62801">
        <ele>87</ele>
        <time>2017-01-15T04:06:59Z</time>
      </trkpt>
      <trkpt lat="48.56803" lon="-1.62786">
        <ele>87</ele>
        <time>2017-01-15T04:08:59Z</time>
      </trkpt>
      <trkpt lat="48.56807" lon="-1.62772">
        <ele>87</ele>
        <time>2017-01-15T04:10:59Z</time>
      </trkpt>
      <trkpt lat="48.56809" lon="-1.62757">
        <ele>87</ele>
        <time>2017-01-15T04:12:59Z</time>
      </trkpt>
      <trkpt lat="48.56814" lon="-1.62741">
        <ele>87</ele>
        <time>2017-01-15T04:14:59Z</time>
      </trkpt>
      <trkpt lat="48.56816" lon="-1.62725">
        <ele>87</ele>
        <time>2017-01-15T04:16:59Z</time>
      </trkpt>
      <trkpt lat="48.56819" lon="-1.62709">
        <ele>87</ele>
        <time>2017-01-15T04:18:59Z</time>
      </trkpt>
      <trkpt lat="48.56825" lon="-1.62678">
        <ele>87</ele>
        <time>2017-01-15T04:20:59Z</time>
      </trkpt>
      <trkpt lat="48.56827" lon="-1.62662">
        <ele>87</ele>
        <time>2017-01-15T04:22:59Z</time>
      </trkpt>
      <trkpt lat="48.5683" lon="-1.62647">
        <ele>87</ele>
        <time>2017-01-15T04:24:59Z</time>
      </trkpt>
      <trkpt lat="48.56834" lon="-1.62631">
        <ele>87</ele>
        <time>2017-01-15T04:26:59Z</time>
      </trkpt>
      <trkpt lat="48.56839" lon="-1.62613">
        <ele>87</ele>
        <time>2017-01-15T04:28:59Z</time>
      </trkpt>
      <trkpt lat="48.56843" lon="-1.62594">
        <ele>87</ele>
        <time>2017-01-15T04:30:59Z</time>
      </trkpt>
      <trkpt lat="48.56849" lon="-1.62576">
        <ele>87</ele>
        <time>2017-01-15T04:32:59Z</time>
      </trkpt>
      <trkpt lat="48.56853" lon="-1.62561">
        <ele>87</ele>
        <time>2017-01-15T04:34:59Z</time>
      </trkpt>
      <trkpt lat="48.56857" lon="-1.62543">
        <ele>87</ele>
        <time>2017-01-15T04:36:59Z</time>
      </trkpt>
      <trkpt lat="48.5686" lon="-1.62526">
        <ele>87</ele>
        <time>2017-01-15T04:38:59Z</time>
      </trkpt>
      <trkpt lat="48.56865" lon="-1.6251">
        <ele>86</ele>
        <time>2017-01-15T04:40:59Z</time>
      </trkpt>
      <trkpt lat="48.56868" lon="-1.62495">
        <ele>86</ele>
        <time>2017-01-15T04:42:59Z</time>
      </trkpt>
      <trkpt lat="48.56869" lon="-1.62477">
        <ele>86</ele>
        <time>2017-01-15T04:44:59Z</time>
      </trkpt>
      <trkpt lat="48.56874" lon="-1.6246">
        <ele>86</ele>
        <time>2017-01-15T04:46:59Z</time>
      </trkpt>
      <trkpt lat="48.56879" lon="-1.62429">
        <ele>86</ele>
        <time>2017-01-15T04:48:59Z</time>
      </trkpt>
      <trkpt lat="48.56884" lon="-1.62394">
        <ele>86</ele>
        <time>2017-01-15T04:50:59Z</time>
      </trkpt>
      <trkpt lat="48.56886" lon="-1.62378">
        <ele>86</ele>
        <time>2017-01-15T04:52:59Z</time>
      </trkpt>
      <trkpt lat="48.56888" lon="-1.62364">
        <ele>86</ele>
        <time>2017-01-15T04:54:59Z</time>
      </trkpt>
      <trkpt lat="48.56893" lon="-1.62319">
        <ele>86</ele>
        <time>2017-01-15T04:56:59Z</time>
      </trkpt>
      <trkpt lat="48.56896" lon="-1.62304">
        <ele>86</ele>
        <time>2017-01-15T04:58:59Z</time>
      </trkpt>
      <trkpt lat="48.56898" lon="-1.62273">
        <ele>86</ele>
        <time>2017-01-15T05:00:59Z</time>
      </trkpt>
      <trkpt lat="48.569" lon="-1.62241">
        <ele>86</ele>
        <time>2017-01-15T05:02:59Z</time>
      </trkpt>
      <trkpt lat="48.56901" lon="-1.62226">
        <ele>87</ele>
        <time>2017-01-15T05:04:59Z</time>
      </trkpt>
      <trkpt lat="48.56902" lon="-1.62212">
        <ele>87</ele>
        <time>2017-01-15T05:06:59Z</time>
      </trkpt>
      <trkpt lat="48.56905" lon="-1.62198">
        <ele>87</ele>
        <time>2017-01-15T05:08:59Z</time>
      </trkpt>
      <trkpt lat="48.56905" lon="-1.62186">
        <ele>88</ele>
        <time>2017-01-15T05:10:59Z</time>
      </trkpt>
      <trkpt lat="48.5691" lon="-1.62161">
        <ele>88</ele>
        <time>2017-01-15T05:12:59Z</time>
      </trkpt>
      <trkpt lat="48.56913" lon="-1.62146">
        <ele>88</ele>
        <time>2017-01-15T05:14:59Z</time>
      </trkpt>
      <trkpt lat="48.56915" lon="-1.62133">
        <ele>88</ele>
        <time>2017-01-15T05:16:59Z</time>
      </trkpt>
      <trkpt lat="48.56923" lon="-1.62102">
        <ele>88</ele>
        <time>2017-01-15T05:18:59Z</time>
      </trkpt>
      <trkpt lat="48.56927" lon="-1.62088">
        <ele>88</ele>
        <time>2017-01-15T05:20:59Z</time>
      </trkpt>
      <trkpt lat="48.56933" lon="-1.62059">
        <ele>88</ele>
        <time>2017-01-15T05:22:59Z</time>
      </trkpt>
      <trkpt lat="48.56933" lon="-1.62043">
        <ele>88</ele>
        <time>2017-01-15T05:24:59Z</time>
      </trkpt>
      <trkpt lat="48.56924" lon="-1.62036">
        <ele>88</ele>
        <time>2017-01-15T05:26:59Z</time>
      </trkpt>
      <trkpt lat="48.56913" lon="-1.62031">
        <ele>88</ele>
        <time>2017-01-15T05:28:59Z</time>
      </trkpt>
      <trkpt lat="48.56905" lon="-1.62023">
        <ele>88</ele>
        <time>2017-01-15T05:30:59Z</time>
      </trkpt>
      <trkpt lat="48.56896" lon="-1.62015">
        <ele>88</ele>
        <time>2017-01-15T05:32:59Z</time>
      </trkpt>
      <trkpt lat="48.56888" lon="-1.62007">
        <ele>88</ele>
        <time>2017-01-15T05:34:59Z</time>
      </trkpt>
      <trkpt lat="48.56878" lon="-1.61999">
        <ele>88</ele>
        <time>2017-01-15T05:36:59Z</time>
      </trkpt>
      <trkpt lat="48.56867" lon="-1.61994">
        <ele>88</ele>
        <time>2017-01-15T05:38:59Z</time>
      </trkpt>
      <trkpt lat="48.56848" lon="-1.61974">
        <ele>89</ele>
        <time>2017-01-15T05:40:59Z</time>
      </trkpt>
      <trkpt lat="48.56839" lon="-1.61968">
        <ele>89</ele>
        <time>2017-01-15T05:42:59Z</time>
      </trkpt>
      <trkpt lat="48.56831" lon="-1.6196">
        <ele>89</ele>
        <time>2017-01-15T05:44:59Z</time>
      </trkpt>
      <trkpt lat="48.5682" lon="-1.61955">
        <ele>90</ele>
        <time>2017-01-15T05:46:59Z</time>
      </trkpt>
      <trkpt lat="48.56806" lon="-1.61951">
        <ele>90</ele>
        <time>2017-01-15T05:48:59Z</time>
      </trkpt>
      <trkpt lat="48.56785" lon="-1.61939">
        <ele>90</ele>
        <time>2017-01-15T05:50:59Z</time>
      </trkpt>
      <trkpt lat="48.56774" lon="-1.61931">
        <ele>89</ele>
        <time>2017-01-15T05:52:59Z</time>
      </trkpt>
      <trkpt lat="48.56764" lon="-1.61926">
        <ele>89</ele>
        <time>2017-01-15T05:54:59Z</time>
      </trkpt>
      <trkpt lat="48.56747" lon="-1.61914">
        <ele>89</ele>
        <time>2017-01-15T05:56:59Z</time>
      </trkpt>
      <trkpt lat="48.56738" lon="-1.61908">
        <ele>89</ele>
        <time>2017-01-15T05:58:59Z</time>
      </trkpt>
      <trkpt lat="48.5672" lon="-1.61895">
        <ele>89</ele>
        <time>2017-01-15T06:00:59Z</time>
      </trkpt>
      <trkpt lat="48.5671" lon="-1.61891">
        <ele>89</ele>
        <time>2017-01-15T06:02:59Z</time>
      </trkpt>
      <trkpt lat="48.56701" lon="-1.61889">
        <ele>89</ele>
        <time>2017-01-15T06:04:59Z</time>
      </trkpt>
      <trkpt lat="48.56692" lon="-1.61889">
        <ele>89</ele>
        <time>2017-01-15T06:06:59Z</time>
      </trkpt>
      <trkpt lat="48.56681" lon="-1.61892">
        <ele>89</ele>
        <time>2017-01-15T06:08:59Z</time>
      </trkpt>
      <trkpt lat="48.56671" lon="-1.61894">
        <ele>89</ele>
        <time>2017-01-15T06:10:59Z</time>
      </trkpt>
      <trkpt lat="48.56651" lon="-1.619">
        <ele>89</ele>
        <time>2017-01-15T06:12:59Z</time>
      </trkpt>
      <trkpt lat="48.56641" lon="-1.61904">
        <ele>89</ele>
        <time>2017-01-15T06:14:59Z</time>
      </trkpt>
      <trkpt lat="48.5663" lon="-1.61906">
        <ele>89</ele>
        <time>2017-01-15T06:16:59Z</time>
      </trkpt>
      <trkpt lat="48.5662" lon="-1.61909">
        <ele>89</ele>
        <time>2017-01-15T06:18:59Z</time>
      </trkpt>
      <trkpt lat="48.56602" lon="-1.6192">
        <ele>89</ele>
        <time>2017-01-15T06:20:59Z</time>
      </trkpt>
      <trkpt lat="48.56591" lon="-1.61928">
        <ele>89</ele>
        <time>2017-01-15T06:22:59Z</time>
      </trkpt>
      <trkpt lat="48.56582" lon="-1.61935">
        <ele>89</ele>
        <time>2017-01-15T06:24:59Z</time>
      </trkpt>
      <trkpt lat="48.56572" lon="-1.61939">
        <ele>89</ele>
        <time>2017-01-15T06:26:59Z</time>
      </trkpt>
      <trkpt lat="48.56563" lon="-1.61945">
        <ele>89</ele>
        <time>2017-01-15T06:28:59Z</time>
      </trkpt>
      <trkpt lat="48.56553" lon="-1.61949">
        <ele>90</ele>
        <time>2017-01-15T06:30:59Z</time>
      </trkpt>
      <trkpt lat="48.56542" lon="-1.6195">
        <ele>90</ele>
        <time>2017-01-15T06:32:59Z</time>
      </trkpt>
      <trkpt lat="48.56533" lon="-1.6195">
        <ele>90</ele>
        <time>2017-01-15T06:34:59Z</time>
      </trkpt>
      <trkpt lat="48.56513" lon="-1.61947">
        <ele>90</ele>
        <time>2017-01-15T06:36:59Z</time>
      </trkpt>
      <trkpt lat="48.56502" lon="-1.61946">
        <ele>90</ele>
        <time>2017-01-15T06:38:59Z</time>
      </trkpt>
      <trkpt lat="48.56491" lon="-1.61946">
        <ele>90</ele>
        <time>2017-01-15T06:40:59Z</time>
      </trkpt>
      <trkpt lat="48.56481" lon="-1.61947">
        <ele>90</ele>
        <time>2017-01-15T06:42:59Z</time>
      </trkpt>
      <trkpt lat="48.56473" lon="-1.61948">
        <ele>90</ele>
        <time>2017-01-15T06:44:59Z</time>
      </trkpt>
      <trkpt lat="48.56445" lon="-1.61945">
        <ele>90</ele>
        <time>2017-01-15T06:46:59Z</time>
      </trkpt>
      <trkpt lat="48.56434" lon="-1.61944">
        <ele>90</ele>
        <time>2017-01-15T06:48:59Z</time>
      </trkpt>
      <trkpt lat="48.56415" lon="-1.61944">
        <ele>90</ele>
        <time>2017-01-15T06:50:59Z</time>
      </trkpt>
      <trkpt lat="48.56406" lon="-1.61944">
        <ele>90</ele>
        <time>2017-01-15T06:52:59Z</time>
      </trkpt>
      <trkpt lat="48.56387" lon="-1.61942">
        <ele>90</ele>
        <time>2017-01-15T06:54:59Z</time>
      </trkpt>
      <trkpt lat="48.56376" lon="-1.61939">
        <ele>89</ele>
        <time>2017-01-15T06:56:59Z</time>
      </trkpt>
      <trkpt lat="48.56366" lon="-1.61938">
        <ele>89</ele>
        <time>2017-01-15T06:58:59Z</time>
      </trkpt>
      <trkpt lat="48.56357" lon="-1.61937">
        <ele>89</ele>
        <time>2017-01-15T07:00:59Z</time>
      </trkpt>
      <trkpt lat="48.56347" lon="-1.61935">
        <ele>89</ele>
        <time>2017-01-15T07:02:59Z</time>
      </trkpt>
      <trkpt lat="48.56337" lon="-1.61936">
        <ele>89</ele>
        <time>2017-01-15T07:04:59Z</time>
      </trkpt>
      <trkpt lat="48.56328" lon="-1.61935">
        <ele>89</ele>
        <time>2017-01-15T07:06:59Z</time>
      </trkpt>
      <trkpt lat="48.56308" lon="-1.61937">
        <ele>88</ele>
        <time>2017-01-15T07:08:59Z</time>
      </trkpt>
      <trkpt lat="48.56296" lon="-1.61938">
        <ele>88</ele>
        <time>2017-01-15T07:10:59Z</time>
      </trkpt>
      <trkpt lat="48.56285" lon="-1.61937">
        <ele>88</ele>
        <time>2017-01-15T07:12:59Z</time>
      </trkpt>
      <trkpt lat="48.56275" lon="-1.61936">
        <ele>88</ele>
        <time>2017-01-15T07:14:59Z</time>
      </trkpt>
      <trkpt lat="48.56257" lon="-1.61933">
        <ele>87</ele>
        <time>2017-01-15T07:16:59Z</time>
      </trkpt>
      <trkpt lat="48.56247" lon="-1.61932">
        <ele>87</ele>
        <time>2017-01-15T07:18:59Z</time>
      </trkpt>
      <trkpt lat="48.56237" lon="-1.6193">
        <ele>87</ele>
        <time>2017-01-15T07:20:59Z</time>
      </trkpt>
      <trkpt lat="48.56227" lon="-1.61929">
        <ele>87</ele>
        <time>2017-01-15T07:22:59Z</time>
      </trkpt>
      <trkpt lat="48.56216" lon="-1.61926">
        <ele>86</ele>
        <time>2017-01-15T07:24:59Z</time>
      </trkpt>
      <trkpt lat="48.56205" lon="-1.61922">
        <ele>86</ele>
        <time>2017-01-15T07:26:59Z</time>
      </trkpt>
      <trkpt lat="48.56198" lon="-1.61915">
        <ele>86</ele>
        <time>2017-01-15T07:28:59Z</time>
      </trkpt>
      <trkpt lat="48.56188" lon="-1.6191">
        <ele>85</ele>
        <time>2017-01-15T07:30:59Z</time>
      </trkpt>
      <trkpt lat="48.56179" lon="-1.61904">
        <ele>85</ele>
        <time>2017-01-15T07:32:59Z</time>
      </trkpt>
      <trkpt lat="48.56169" lon="-1.619">
        <ele>84</ele>
        <time>2017-01-15T07:34:59Z</time>
      </trkpt>
      <trkpt lat="48.5616" lon="-1.61907">
        <ele>84</ele>
        <time>2017-01-15T07:36:59Z</time>
      </trkpt>
      <trkpt lat="48.56155" lon="-1.61919">
        <ele>85</ele>
        <time>2017-01-15T07:38:59Z</time>
      </trkpt>
      <trkpt lat="48.56151" lon="-1.61931">
        <ele>85</ele>
        <time>2017-01-15T07:40:59Z</time>
      </trkpt>
      <trkpt lat="48.56148" lon="-1.61945">
        <ele>86</ele>
        <time>2017-01-15T07:42:59Z</time>
      </trkpt>
      <trkpt lat="48.56145" lon="-1.61958">
        <ele>87</ele>
        <time>2017-01-15T07:44:59Z</time>
      </trkpt>
      <trkpt lat="48.56141" lon="-1.61973">
        <ele>87</ele>
        <time>2017-01-15T07:46:59Z</time>
      </trkpt>
      <trkpt lat="48.56135" lon="-1.61983">
        <ele>88</ele>
        <time>2017-01-15T07:48:59Z</time>
      </trkpt>
      <trkpt lat="48.56125" lon="-1.61986">
        <ele>88</ele>
        <time>2017-01-15T07:50:59Z</time>
      </trkpt>
      <trkpt lat="48.56114" lon="-1.61986">
        <ele>88</ele>
        <time>2017-01-15T07:52:59Z</time>
      </trkpt>
      <trkpt lat="48.56104" lon="-1.61989">
        <ele>88</ele>
        <time>2017-01-15T07:54:59Z</time>
      </trkpt>
      <trkpt lat="48.56096" lon="-1.61998">
        <ele>88</ele>
        <time>2017-01-15T07:56:59Z</time>
      </trkpt>
      <trkpt lat="48.56092" lon="-1.62013">
        <ele>88</ele>
        <time>2017-01-15T07:58:59Z</time>
      </trkpt>
      <trkpt lat="48.56091" lon="-1.62028">
        <ele>89</ele>
        <time>2017-01-15T08:00:59Z</time>
      </trkpt>
      <trkpt lat="48.56089" lon="-1.62059">
        <ele>89</ele>
        <time>2017-01-15T08:02:59Z</time>
      </trkpt>
      <trkpt lat="48.56088" lon="-1.62075">
        <ele>90</ele>
        <time>2017-01-15T08:04:59Z</time>
      </trkpt>
      <trkpt lat="48.56088" lon="-1.6209">
        <ele>90</ele>
        <time>2017-01-15T08:06:59Z</time>
      </trkpt>
      <trkpt lat="48.56088" lon="-1.62104">
        <ele>91</ele>
        <time>2017-01-15T08:08:59Z</time>
      </trkpt>
      <trkpt lat="48.56087" lon="-1.62119">
        <ele>91</ele>
        <time>2017-01-15T08:10:59Z</time>
      </trkpt>
      <trkpt lat="48.56084" lon="-1.62147">
        <ele>92</ele>
        <time>2017-01-15T08:12:59Z</time>
      </trkpt>
      <trkpt lat="48.5608" lon="-1.62162">
        <ele>93</ele>
        <time>2017-01-15T08:14:59Z</time>
      </trkpt>
      <trkpt lat="48.56078" lon="-1.62169">
        <ele>93</ele>
        <time>2017-01-15T08:16:59Z</time>
      </trkpt>
      <trkpt lat="48.56076" lon="-1.6217">
        <ele>93</ele>
        <time>2017-01-15T08:18:59Z</time>
      </trkpt>
      <trkpt lat="48.56072" lon="-1.62175">
        <ele>92</ele>
        <time>2017-01-15T08:20:59Z</time>
      </trkpt>
      <trkpt lat="48.56067" lon="-1.6218">
        <ele>92</ele>
        <time>2017-01-15T08:22:59Z</time>
      </trkpt>
      <trkpt lat="48.56057" lon="-1.62179">
        <ele>92</ele>
        <time>2017-01-15T08:24:59Z</time>
      </trkpt>
      <trkpt lat="48.56043" lon="-1.62179">
        <ele>91</ele>
        <time>2017-01-15T08:26:59Z</time>
      </trkpt>
      <trkpt lat="48.56033" lon="-1.62176">
        <ele>90</ele>
        <time>2017-01-15T08:28:59Z</time>
      </trkpt>
      <trkpt lat="48.56024" lon="-1.62174">
        <ele>89</ele>
        <time>2017-01-15T08:30:59Z</time>
      </trkpt>
      <trkpt lat="48.56014" lon="-1.62172">
        <ele>89</ele>
        <time>2017-01-15T08:32:59Z</time>
      </trkpt>
      <trkpt lat="48.56005" lon="-1.6217">
        <ele>88</ele>
        <time>2017-01-15T08:34:59Z</time>
      </trkpt>
      <trkpt lat="48.55986" lon="-1.62167">
        <ele>87</ele>
        <time>2017-01-15T08:36:59Z</time>
      </trkpt>
      <trkpt lat="48.55967" lon="-1.62164">
        <ele>86</ele>
        <time>2017-01-15T08:38:59Z</time>
      </trkpt>
      <trkpt lat="48.55959" lon="-1.62162">
        <ele>85</ele>
        <time>2017-01-15T08:40:59Z</time>
      </trkpt>
      <trkpt lat="48.55938" lon="-1.6216">
        <ele>84</ele>
        <time>2017-01-15T08:42:59Z</time>
      </trkpt>
      <trkpt lat="48.55932" lon="-1.62158">
        <ele>84</ele>
        <time>2017-01-15T08:44:59Z</time>
      </trkpt>
      <trkpt lat="48.55926" lon="-1.62158">
        <ele>83</ele>
        <time>2017-01-15T08:46:59Z</time>
      </trkpt>
      <trkpt lat="48.55913" lon="-1.62155">
        <ele>83</ele>
        <time>2017-01-15T08:48:59Z</time>
      </trkpt>
      <trkpt lat="48.559" lon="-1.62156">
        <ele>83</ele>
        <time>2017-01-15T08:50:59Z</time>
      </trkpt>
      <trkpt lat="48.5587" lon="-1.62155">
        <ele>84</ele>
        <time>2017-01-15T08:52:59Z</time>
      </trkpt>
      <trkpt lat="48.55856" lon="-1.6215">
        <ele>84</ele>
        <time>2017-01-15T08:54:59Z</time>
      </trkpt>
      <trkpt lat="48.55838" lon="-1.62144">
        <ele>84</ele>
        <time>2017-01-15T08:56:59Z</time>
      </trkpt>
      <trkpt lat="48.5583" lon="-1.62143">
        <ele>84</ele>
        <time>2017-01-15T08:58:59Z</time>
      </trkpt>
      <trkpt lat="48.55823" lon="-1.62144">
        <ele>83</ele>
        <time>2017-01-15T09:00:59Z</time>
      </trkpt>
      <trkpt lat="48.55815" lon="-1.62141">
        <ele>83</ele>
        <time>2017-01-15T09:02:59Z</time>
      </trkpt>
      <trkpt lat="48.55808" lon="-1.6214">
        <ele>83</ele>
        <time>2017-01-15T09:04:59Z</time>
      </trkpt>
      <trkpt lat="48.55802" lon="-1.62139">
        <ele>82</ele>
        <time>2017-01-15T09:06:59Z</time>
      </trkpt>
      <trkpt lat="48.55789" lon="-1.6214">
        <ele>82</ele>
        <time>2017-01-15T09:08:59Z</time>
      </trkpt>
      <trkpt lat="48.55783" lon="-1.62141">
        <ele>82</ele>
        <time>2017-01-15T09:10:59Z</time>
      </trkpt>
      <trkpt lat="48.55762" lon="-1.6215">
        <ele>81</ele>
        <time>2017-01-15T09:12:59Z</time>
      </trkpt>
      <trkpt lat="48.5575" lon="-1.62152">
        <ele>81</ele>
        <time>2017-01-15T09:14:59Z</time>
      </trkpt>
      <trkpt lat="48.55734" lon="-1.62162">
        <ele>80</ele>
        <time>2017-01-15T09:16:59Z</time>
      </trkpt>
      <trkpt lat="48.55722" lon="-1.62165">
        <ele>80</ele>
        <time>2017-01-15T09:18:59Z</time>
      </trkpt>
      <trkpt lat="48.55712" lon="-1.62169">
        <ele>80</ele>
        <time>2017-01-15T09:20:59Z</time>
      </trkpt>
      <trkpt lat="48.55703" lon="-1.62171">
        <ele>80</ele>
        <time>2017-01-15T09:22:59Z</time>
      </trkpt>
      <trkpt lat="48.55696" lon="-1.62172">
        <ele>80</ele>
        <time>2017-01-15T09:24:59Z</time>
      </trkpt>
      <trkpt lat="48.55689" lon="-1.62174">
        <ele>80</ele>
        <time>2017-01-15T09:26:59Z</time>
      </trkpt>
      <trkpt lat="48.55683" lon="-1.62167">
        <ele>79</ele>
        <time>2017-01-15T09:28:59Z</time>
      </trkpt>
      <trkpt lat="48.55676" lon="-1.62157">
        <ele>79</ele>
        <time>2017-01-15T09:30:59Z</time>
      </trkpt>
      <trkpt lat="48.55668" lon="-1.62148">
        <ele>78</ele>
        <time>2017-01-15T09:32:59Z</time>
      </trkpt>
      <trkpt lat="48.5566" lon="-1.62143">
        <ele>78</ele>
        <time>2017-01-15T09:34:59Z</time>
      </trkpt>
      <trkpt lat="48.55653" lon="-1.62139">
        <ele>78</ele>
        <time>2017-01-15T09:36:59Z</time>
      </trkpt>
      <trkpt lat="48.55641" lon="-1.62146">
        <ele>78</ele>
        <time>2017-01-15T09:38:59Z</time>
      </trkpt>
      <trkpt lat="48.55631" lon="-1.62152">
        <ele>79</ele>
        <time>2017-01-15T09:40:59Z</time>
      </trkpt>
      <trkpt lat="48.55621" lon="-1.62155">
        <ele>79</ele>
        <time>2017-01-15T09:42:59Z</time>
      </trkpt>
      <trkpt lat="48.55613" lon="-1.62156">
        <ele>79</ele>
        <time>2017-01-15T09:44:59Z</time>
      </trkpt>
      <trkpt lat="48.55605" lon="-1.62155">
        <ele>79</ele>
        <time>2017-01-15T09:46:59Z</time>
      </trkpt>
      <trkpt lat="48.55598" lon="-1.62152">
        <ele>79</ele>
        <time>2017-01-15T09:48:59Z</time>
      </trkpt>
      <trkpt lat="48.5559" lon="-1.6215">
        <ele>79</ele>
        <time>2017-01-15T09:50:59Z</time>
      </trkpt>
      <trkpt lat="48.5558" lon="-1.62143">
        <ele>79</ele>
        <time>2017-01-15T09:52:59Z</time>
      </trkpt>
      <trkpt lat="48.55571" lon="-1.62141">
        <ele>79</ele>
        <time>2017-01-15T09:54:59Z</time>
      </trkpt>
      <trkpt lat="48.55561" lon="-1.62137">
        <ele>79</ele>
        <time>2017-01-15T09:56:59Z</time>
      </trkpt>
      <trkpt lat="48.55552" lon="-1.62129">
        <ele>78</ele>
        <time>2017-01-15T09:58:59Z</time>
      </trkpt>
      <trkpt lat="48.55546" lon="-1.62124">
        <ele>78</ele>
        <time>2017-01-15T10:00:59Z</time>
      </trkpt>
      <trkpt lat="48.55532" lon="-1.62124">
        <ele>78</ele>
        <time>2017-01-15T10:02:59Z</time>
      </trkpt>
      <trkpt lat="48.55527" lon="-1.62118">
        <ele>78</ele>
        <time>2017-01-15T10:04:59Z</time>
      </trkpt>
      <trkpt lat="48.55524" lon="-1.62106">
        <ele>77</ele>
        <time>2017-01-15T10:06:59Z</time>
      </trkpt>
      <trkpt lat="48.55526" lon="-1.62094">
        <ele>77</ele>
        <time>2017-01-15T10:08:59Z</time>
      </trkpt>
      <trkpt lat="48.55527" lon="-1.62081">
        <ele>76</ele>
        <time>2017-01-15T10:10:59Z</time>
      </trkpt>
      <trkpt lat="48.55525" lon="-1.62068">
        <ele>76</ele>
        <time>2017-01-15T10:12:59Z</time>
      </trkpt>
      <trkpt lat="48.55525" lon="-1.62052">
        <ele>76</ele>
        <time>2017-01-15T10:14:59Z</time>
      </trkpt>
      <trkpt lat="48.55522" lon="-1.62039">
        <ele>76</ele>
        <time>2017-01-15T10:16:59Z</time>
      </trkpt>
      <trkpt lat="48.55515" lon="-1.62013">
        <ele>76</ele>
        <time>2017-01-15T10:18:59Z</time>
      </trkpt>
      <trkpt lat="48.55509" lon="-1.62001">
        <ele>75</ele>
        <time>2017-01-15T10:20:59Z</time>
      </trkpt>
      <trkpt lat="48.55496" lon="-1.61974">
        <ele>76</ele>
        <time>2017-01-15T10:22:59Z</time>
      </trkpt>
      <trkpt lat="48.5549" lon="-1.6196">
        <ele>76</ele>
        <time>2017-01-15T10:24:59Z</time>
      </trkpt>
      <trkpt lat="48.55484" lon="-1.61949">
        <ele>76</ele>
        <time>2017-01-15T10:26:59Z</time>
      </trkpt>
      <trkpt lat="48.55475" lon="-1.61935">
        <ele>77</ele>
        <time>2017-01-15T10:28:59Z</time>
      </trkpt>
      <trkpt lat="48.55469" lon="-1.61917">
        <ele>77</ele>
        <time>2017-01-15T10:30:59Z</time>
      </trkpt>
      <trkpt lat="48.55464" lon="-1.61903">
        <ele>77</ele>
        <time>2017-01-15T10:32:59Z</time>
      </trkpt>
      <trkpt lat="48.55457" lon="-1.61892">
        <ele>77</ele>
        <time>2017-01-15T10:34:59Z</time>
      </trkpt>
      <trkpt lat="48.55452" lon="-1.61876">
        <ele>76</ele>
        <time>2017-01-15T10:36:59Z</time>
      </trkpt>
      <trkpt lat="48.55446" lon="-1.61859">
        <ele>76</ele>
        <time>2017-01-15T10:38:59Z</time>
      </trkpt>
      <trkpt lat="48.55438" lon="-1.6183">
        <ele>75</ele>
        <time>2017-01-15T10:40:59Z</time>
      </trkpt>
      <trkpt lat="48.55432" lon="-1.61819">
        <ele>75</ele>
        <time>2017-01-15T10:42:59Z</time>
      </trkpt>
      <trkpt lat="48.5542" lon="-1.61795">
        <ele>75</ele>
        <time>2017-01-15T10:44:59Z</time>
      </trkpt>
      <trkpt lat="48.55413" lon="-1.61777">
        <ele>75</ele>
        <time>2017-01-15T10:46:59Z</time>
      </trkpt>
      <trkpt lat="48.55407" lon="-1.61765">
        <ele>75</ele>
        <time>2017-01-15T10:48:59Z</time>
      </trkpt>
      <trkpt lat="48.55404" lon="-1.61752">
        <ele>75</ele>
        <time>2017-01-15T10:50:59Z</time>
      </trkpt>
      <trkpt lat="48.55399" lon="-1.61744">
        <ele>75</ele>
        <time>2017-01-15T10:52:59Z</time>
      </trkpt>
      <trkpt lat="48.55397" lon="-1.61731">
        <ele>76</ele>
        <time>2017-01-15T10:54:59Z</time>
      </trkpt>
      <trkpt lat="48.55398" lon="-1.61727">
        <ele>76</ele>
        <time>2017-01-15T10:56:59Z</time>
      </trkpt>
      <trkpt lat="48.55394" lon="-1.61726">
        <ele>76</ele>
        <time>2017-01-15T10:58:59Z</time>
      </trkpt>
      <trkpt lat="48.55392" lon="-1.61734">
        <ele>75</ele>
        <time>2017-01-15T11:00:59Z</time>
      </trkpt>
      <trkpt lat="48.55403" lon="-1.61728">
        <ele>76</ele>
        <time>2017-01-15T11:02:59Z</time>
      </trkpt>
      <trkpt lat="48.55413" lon="-1.61721">
        <ele>76</ele>
        <time>2017-01-15T11:04:59Z</time>
      </trkpt>
      <trkpt lat="48.55419" lon="-1.61715">
        <ele>77</ele>
        <time>2017-01-15T11:06:59Z</time>
      </trkpt>
      <trkpt lat="48.55419" lon="-1.61712">
        <ele>77</ele>
        <time>2017-01-15T11:08:59Z</time>
      </trkpt>
      <trkpt lat="48.55411" lon="-1.61722">
        <ele>76</ele>
        <time>2017-01-15T11:10:59Z</time>
      </trkpt>
      <trkpt lat="48.55402" lon="-1.61727">
        <ele>76</ele>
        <time>2017-01-15T11:12:59Z</time>
      </trkpt>
      <trkpt lat="48.55393" lon="-1.61717">
        <ele>76</ele>
        <time>2017-01-15T11:14:59Z</time>
      </trkpt>
      <trkpt lat="48.55386" lon="-1.61703">
        <ele>76</ele>
        <time>2017-01-15T11:16:59Z</time>
      </trkpt>
      <trkpt lat="48.55382" lon="-1.61687">
        <ele>77</ele>
        <time>2017-01-15T11:18:59Z</time>
      </trkpt>
      <trkpt lat="48.55377" lon="-1.61674">
        <ele>77</ele>
        <time>2017-01-15T11:20:59Z</time>
      </trkpt>
      <trkpt lat="48.55367" lon="-1.61647">
        <ele>77</ele>
        <time>2017-01-15T11:22:59Z</time>
      </trkpt>
      <trkpt lat="48.55363" lon="-1.61631">
        <ele>77</ele>
        <time>2017-01-15T11:24:59Z</time>
      </trkpt>
      <trkpt lat="48.55357" lon="-1.61618">
        <ele>78</ele>
        <time>2017-01-15T11:26:59Z</time>
      </trkpt>
      <trkpt lat="48.5535" lon="-1.61603">
        <ele>78</ele>
        <time>2017-01-15T11:28:59Z</time>
      </trkpt>
      <trkpt lat="48.55345" lon="-1.61586">
        <ele>78</ele>
        <time>2017-01-15T11:30:59Z</time>
      </trkpt>
      <trkpt lat="48.55342" lon="-1.61572">
        <ele>78</ele>
        <time>2017-01-15T11:32:59Z</time>
      </trkpt>
      <trkpt lat="48.55339" lon="-1.61558">
        <ele>78</ele>
        <time>2017-01-15T11:34:59Z</time>
      </trkpt>
      <trkpt lat="48.55338" lon="-1.61542">
        <ele>78</ele>
        <time>2017-01-15T11:36:59Z</time>
      </trkpt>
      <trkpt lat="48.55339" lon="-1.61511">
        <ele>77</ele>
        <time>2017-01-15T11:38:59Z</time>
      </trkpt>
      <trkpt lat="48.55339" lon="-1.6148">
        <ele>77</ele>
        <time>2017-01-15T11:40:59Z</time>
      </trkpt>
      <trkpt lat="48.5534" lon="-1.61461">
        <ele>77</ele>
        <time>2017-01-15T11:42:59Z</time>
      </trkpt>
      <trkpt lat="48.55339" lon="-1.61443">
        <ele>76</ele>
        <time>2017-01-15T11:44:59Z</time>
      </trkpt>
      <trkpt lat="48.5534" lon="-1.61427">
        <ele>76</ele>
        <time>2017-01-15T11:46:59Z</time>
      </trkpt>
      <trkpt lat="48.55339" lon="-1.61409">
        <ele>76</ele>
        <time>2017-01-15T11:48:59Z</time>
      </trkpt>
      <trkpt lat="48.55331" lon="-1.61396">
        <ele>76</ele>
        <time>2017-01-15T11:50:59Z</time>
      </trkpt>
      <trkpt lat="48.55321" lon="-1.61389">
        <ele>76</ele>
        <time>2017-01-15T11:52:59Z</time>
      </trkpt>
      <trkpt lat="48.55311" lon="-1.61388">
        <ele>76</ele>
        <time>2017-01-15T11:54:59Z</time>
      </trkpt>
      <trkpt lat="48.55301" lon="-1.61389">
        <ele>76</ele>
        <time>2017-01-15T11:56:59Z</time>
      </trkpt>
      <trkpt lat="48.55292" lon="-1.61388">
        <ele>76</ele>
        <time>2017-01-15T11:58:59Z</time>
      </trkpt>
      <trkpt lat="48.55285" lon="-1.61376">
        <ele>76</ele>
        <time>2017-01-15T12:00:59Z</time>
      </trkpt>
      <trkpt lat="48.55286" lon="-1.61359">
        <ele>76</ele>
        <time>2017-01-15T12:02:59Z</time>
      </trkpt>
      <trkpt lat="48.55289" lon="-1.61345">
        <ele>76</ele>
        <time>2017-01-15T12:04:59Z</time>
      </trkpt>
      <trkpt lat="48.55296" lon="-1.61318">
        <ele>75</ele>
        <time>2017-01-15T12:06:59Z</time>
      </trkpt>
      <trkpt lat="48.553" lon="-1.61304">
        <ele>75</ele>
        <time>2017-01-15T12:08:59Z</time>
      </trkpt>
      <trkpt lat="48.55303" lon="-1.61289">
        <ele>75</ele>
        <time>2017-01-15T12:10:59Z</time>
      </trkpt>
      <trkpt lat="48.55307" lon="-1.61276">
        <ele>75</ele>
        <time>2017-01-15T12:12:59Z</time>
      </trkpt>
      <trkpt lat="48.55311" lon="-1.61262">
        <ele>75</ele>
        <time>2017-01-15T12:14:59Z</time>
      </trkpt>
      <trkpt lat="48.55316" lon="-1.61248">
        <ele>75</ele>
        <time>2017-01-15T12:16:59Z</time>
      </trkpt>
      <trkpt lat="48.55319" lon="-1.61233">
        <ele>75</ele>
        <time>2017-01-15T12:18:59Z</time>
      </trkpt>
      <trkpt lat="48.55322" lon="-1.61218">
        <ele>75</ele>
        <time>2017-01-15T12:20:59Z</time>
      </trkpt>
      <trkpt lat="48.55325" lon="-1.61187">
        <ele>74</ele>
        <time>2017-01-15T12:22:59Z</time>
      </trkpt>
      <trkpt lat="48.55327" lon="-1.61172">
        <ele>74</ele>
        <time>2017-01-15T12:24:59Z</time>
      </trkpt>
      <trkpt lat="48.55327" lon="-1.61158">
        <ele>74</ele>
        <time>2017-01-15T12:26:59Z</time>
      </trkpt>
      <trkpt lat="48.55326" lon="-1.61143">
        <ele>74</ele>
        <time>2017-01-15T12:28:59Z</time>
      </trkpt>
      <trkpt lat="48.55327" lon="-1.61125">
        <ele>74</ele>
        <time>2017-01-15T12:30:59Z</time>
      </trkpt>
      <trkpt lat="48.55324" lon="-1.61111">
        <ele>74</ele>
        <time>2017-01-15T12:32:59Z</time>
      </trkpt>
      <trkpt lat="48.55324" lon="-1.61095">
        <ele>74</ele>
        <time>2017-01-15T12:34:59Z</time>
      </trkpt>
      <trkpt lat="48.55329" lon="-1.61082">
        <ele>74</ele>
        <time>2017-01-15T12:36:59Z</time>
      </trkpt>
      <trkpt lat="48.55339" lon="-1.61073">
        <ele>74</ele>
        <time>2017-01-15T12:38:59Z</time>
      </trkpt>
      <trkpt lat="48.55358" lon="-1.61062">
        <ele>74</ele>
        <time>2017-01-15T12:40:59Z</time>
      </trkpt>
      <trkpt lat="48.55368" lon="-1.61057">
        <ele>74</ele>
        <time>2017-01-15T12:42:59Z</time>
      </trkpt>
      <trkpt lat="48.55388" lon="-1.6105">
        <ele>74</ele>
        <time>2017-01-15T12:44:59Z</time>
      </trkpt>
      <trkpt lat="48.55397" lon="-1.61048">
        <ele>74</ele>
        <time>2017-01-15T12:46:59Z</time>
      </trkpt>
      <trkpt lat="48.55406" lon="-1.61044">
        <ele>74</ele>
        <time>2017-01-15T12:48:59Z</time>
      </trkpt>
      <trkpt lat="48.55417" lon="-1.61042">
        <ele>74</ele>
        <time>2017-01-15T12:50:59Z</time>
      </trkpt>
      <trkpt lat="48.55427" lon="-1.61041">
        <ele>74</ele>
        <time>2017-01-15T12:52:59Z</time>
      </trkpt>
      <trkpt lat="48.55436" lon="-1.61041">
        <ele>74</ele>
        <time>2017-01-15T12:54:59Z</time>
      </trkpt>
      <trkpt lat="48.55446" lon="-1.6104">
        <ele>74</ele>
        <time>2017-01-15T12:56:59Z</time>
      </trkpt>
      <trkpt lat="48.55456" lon="-1.61041">
        <ele>74</ele>
        <time>2017-01-15T12:58:59Z</time>
      </trkpt>
      <trkpt lat="48.55466" lon="-1.61043">
        <ele>75</ele>
        <time>2017-01-15T13:00:59Z</time>
      </trkpt>
      <trkpt lat="48.55478" lon="-1.61042">
        <ele>75</ele>
        <time>2017-01-15T13:02:59Z</time>
      </trkpt>
      <trkpt lat="48.55491" lon="-1.61041">
        <ele>75</ele>
        <time>2017-01-15T13:04:59Z</time>
      </trkpt>
      <trkpt lat="48.55513" lon="-1.61038">
        <ele>75</ele>
        <time>2017-01-15T13:06:59Z</time>
      </trkpt>
      <trkpt lat="48.55523" lon="-1.61038">
        <ele>75</ele>
        <time>2017-01-15T13:08:59Z</time>
      </trkpt>
      <trkpt lat="48.55534" lon="-1.61039">
        <ele>75</ele>
        <time>2017-01-15T13:10:59Z</time>
      </trkpt>
      <trkpt lat="48.55545" lon="-1.61036">
        <ele>75</ele>
        <time>2017-01-15T13:12:59Z</time>
      </trkpt>
      <trkpt lat="48.55555" lon="-1.61036">
        <ele>75</ele>
        <time>2017-01-15T13:14:59Z</time>
      </trkpt>
      <trkpt lat="48.55566" lon="-1.61034">
        <ele>75</ele>
        <time>2017-01-15T13:16:59Z</time>
      </trkpt>
      <trkpt lat="48.55578" lon="-1.61032">
        <ele>74</ele>
        <time>2017-01-15T13:18:59Z</time>
      </trkpt>
      <trkpt lat="48.5559" lon="-1.61031">
        <ele>74</ele>
        <time>2017-01-15T13:20:59Z</time>
      </trkpt>
      <trkpt lat="48.55601" lon="-1.61031">
        <ele>74</ele>
        <time>2017-01-15T13:22:59Z</time>
      </trkpt>
      <trkpt lat="48.55613" lon="-1.6103">
        <ele>73</ele>
        <time>2017-01-15T13:24:59Z</time>
      </trkpt>
      <trkpt lat="48.55622" lon="-1.61033">
        <ele>73</ele>
        <time>2017-01-15T13:26:59Z</time>
      </trkpt>
      <trkpt lat="48.55632" lon="-1.61034">
        <ele>72</ele>
        <time>2017-01-15T13:28:59Z</time>
      </trkpt>
      <trkpt lat="48.55642" lon="-1.61038">
        <ele>72</ele>
        <time>2017-01-15T13:30:59Z</time>
      </trkpt>
      <trkpt lat="48.55651" lon="-1.61045">
        <ele>72</ele>
        <time>2017-01-15T13:32:59Z</time>
      </trkpt>
      <trkpt lat="48.55657" lon="-1.61053">
        <ele>72</ele>
        <time>2017-01-15T13:34:59Z</time>
      </trkpt>
      <trkpt lat="48.55664" lon="-1.61065">
        <ele>72</ele>
        <time>2017-01-15T13:36:59Z</time>
      </trkpt>
      <trkpt lat="48.55672" lon="-1.61075">
        <ele>72</ele>
        <time>2017-01-15T13:38:59Z</time>
      </trkpt>
      <trkpt lat="48.55677" lon="-1.6109">
        <ele>72</ele>
        <time>2017-01-15T13:40:59Z</time>
      </trkpt>
      <trkpt lat="48.55672" lon="-1.611">
        <ele>72</ele>
        <time>2017-01-15T13:42:59Z</time>
      </trkpt>
      <trkpt lat="48.55663" lon="-1.61106">
        <ele>72</ele>
        <time>2017-01-15T13:44:59Z</time>
      </trkpt>
      <trkpt lat="48.55655" lon="-1.61112">
        <ele>73</ele>
        <time>2017-01-15T13:46:59Z</time>
      </trkpt>
      <trkpt lat="48.55646" lon="-1.61115">
        <ele>73</ele>
        <time>2017-01-15T13:48:59Z</time>
      </trkpt>
      <trkpt lat="48.55639" lon="-1.61111">
        <ele>73</ele>
        <time>2017-01-15T13:50:59Z</time>
      </trkpt>
      <trkpt lat="48.55643" lon="-1.61113">
        <ele>73</ele>
        <time>2017-01-15T13:52:59Z</time>
      </trkpt>
      <trkpt lat="48.55648" lon="-1.61117">
        <ele>73</ele>
        <time>2017-01-15T13:54:59Z</time>
      </trkpt>
      <trkpt lat="48.55709" lon="-1.61155">
        <ele>72</ele>
        <time>2017-01-15T13:56:59Z</time>
      </trkpt>
      <trkpt lat="48.55653" lon="-1.61116">
        <ele>73</ele>
        <time>2017-01-15T13:58:59Z</time>
      </trkpt>
      <trkpt lat="48.55639" lon="-1.61111">
        <ele>73</ele>
        <time>2017-01-15T14:00:59Z</time>
      </trkpt>
      <trkpt lat="48.55638" lon="-1.61117">
        <ele>73</ele>
        <time>2017-01-15T14:02:59Z</time>
      </trkpt>
      <trkpt lat="48.55639" lon="-1.61105">
        <ele>73</ele>
        <time>2017-01-15T14:04:59Z</time>
      </trkpt>
      <trkpt lat="48.55638" lon="-1.61113">
        <ele>73</ele>
        <time>2017-01-15T14:06:59Z</time>
      </trkpt>
      <trkpt lat="48.55644" lon="-1.61119">
        <ele>73</ele>
        <time>2017-01-15T14:08:59Z</time>
      </trkpt>
      <trkpt lat="48.5565" lon="-1.61123">
        <ele>73</ele>
        <time>2017-01-15T14:10:59Z</time>
      </trkpt>
      <trkpt lat="48.55657" lon="-1.61121">
        <ele>73</ele>
        <time>2017-01-15T14:12:59Z</time>
      </trkpt>
      <trkpt lat="48.55668" lon="-1.61115">
        <ele>72</ele>
        <time>2017-01-15T14:14:59Z</time>
      </trkpt>
      <trkpt lat="48.55677" lon="-1.61113">
        <ele>72</ele>
        <time>2017-01-15T14:16:59Z</time>
      </trkpt>
      <trkpt lat="48.55681" lon="-1.61101">
        <ele>72</ele>
        <time>2017-01-15T14:18:59Z</time>
      </trkpt>
      <trkpt lat="48.55678" lon="-1.61087">
        <ele>72</ele>
        <time>2017-01-15T14:20:59Z</time>
      </trkpt>
      <trkpt lat="48.55672" lon="-1.61075">
        <ele>72</ele>
        <time>2017-01-15T14:22:59Z</time>
      </trkpt>
      <trkpt lat="48.55665" lon="-1.61065">
        <ele>72</ele>
        <time>2017-01-15T14:24:59Z</time>
      </trkpt>
      <trkpt lat="48.55662" lon="-1.61055">
        <ele>72</ele>
        <time>2017-01-15T14:26:59Z</time>
      </trkpt>
      <trkpt lat="48.55656" lon="-1.61044">
        <ele>72</ele>
        <time>2017-01-15T14:28:59Z</time>
      </trkpt>
      <trkpt lat="48.55652" lon="-1.61032">
        <ele>71</ele>
        <time>2017-01-15T14:30:59Z</time>
      </trkpt>
      <trkpt lat="48.55649" lon="-1.61019">
        <ele>71</ele>
        <time>2017-01-15T14:32:59Z</time>
      </trkpt>
      <trkpt lat="48.55647" lon="-1.60996">
        <ele>71</ele>
        <time>2017-01-15T14:34:59Z</time>
      </trkpt>
      <trkpt lat="48.55645" lon="-1.60983">
        <ele>71</ele>
        <time>2017-01-15T14:36:59Z</time>
      </trkpt>
      <trkpt lat="48.55643" lon="-1.60975">
        <ele>71</ele>
        <time>2017-01-15T14:38:59Z</time>
      </trkpt>
      <trkpt lat="48.55642" lon="-1.60962">
        <ele>72</ele>
        <time>2017-01-15T14:40:59Z</time>
      </trkpt>
      <trkpt lat="48.5564" lon="-1.60948">
        <ele>72</ele>
        <time>2017-01-15T14:42:59Z</time>
      </trkpt>
      <trkpt lat="48.55635" lon="-1.60933">
        <ele>72</ele>
        <time>2017-01-15T14:44:59Z</time>
      </trkpt>
      <trkpt lat="48.55631" lon="-1.6092">
        <ele>72</ele>
        <time>2017-01-15T14:46:59Z</time>
      </trkpt>
      <trkpt lat="48.55623" lon="-1.60905">
        <ele>73</ele>
        <time>2017-01-15T14:48:59Z</time>
      </trkpt>
      <trkpt lat="48.55618" lon="-1.60893">
        <ele>73</ele>
        <time>2017-01-15T14:50:59Z</time>
      </trkpt>
      <trkpt lat="48.55614" lon="-1.60881">
        <ele>73</ele>
        <time>2017-01-15T14:52:59Z</time>
      </trkpt>
      <trkpt lat="48.55609" lon="-1.60867">
        <ele>73</ele>
        <time>2017-01-15T14:54:59Z</time>
      </trkpt>
      <trkpt lat="48.55604" lon="-1.60854">
        <ele>74</ele>
        <time>2017-01-15T14:56:59Z</time>
      </trkpt>
      <trkpt lat="48.55598" lon="-1.60841">
        <ele>74</ele>
        <time>2017-01-15T14:58:59Z</time>
      </trkpt>
      <trkpt lat="48.55593" lon="-1.60828">
        <ele>74</ele>
        <time>2017-01-15T15:00:59Z</time>
      </trkpt>
      <trkpt lat="48.55588" lon="-1.60817">
        <ele>74</ele>
        <time>2017-01-15T15:02:59Z</time>
      </trkpt>
      <trkpt lat="48.55579" lon="-1.60791">
        <ele>74</ele>
        <time>2017-01-15T15:04:59Z</time>
      </trkpt>
      <trkpt lat="48.55569" lon="-1.60766">
        <ele>74</ele>
        <time>2017-01-15T15:06:59Z</time>
      </trkpt>
      <trkpt lat="48.55563" lon="-1.60753">
        <ele>74</ele>
        <time>2017-01-15T15:08:59Z</time>
      </trkpt>
      <trkpt lat="48.55553" lon="-1.60728">
        <ele>74</ele>
        <time>2017-01-15T15:10:59Z</time>
      </trkpt>
      <trkpt lat="48.55545" lon="-1.60701">
        <ele>74</ele>
        <time>2017-01-15T15:12:59Z</time>
      </trkpt>
      <trkpt lat="48.55535" lon="-1.60675">
        <ele>74</ele>
        <time>2017-01-15T15:14:59Z</time>
      </trkpt>
      <trkpt lat="48.55527" lon="-1.60647">
        <ele>74</ele>
        <time>2017-01-15T15:16:59Z</time>
      </trkpt>
      <trkpt lat="48.5552" lon="-1.60621">
        <ele>75</ele>
        <time>2017-01-15T15:18:59Z</time>
      </trkpt>
      <trkpt lat="48.55515" lon="-1.60607">
        <ele>75</ele>
        <time>2017-01-15T15:20:59Z</time>
      </trkpt>
      <trkpt lat="48.55506" lon="-1.6058">
        <ele>75</ele>
        <time>2017-01-15T15:22:59Z</time>
      </trkpt>
      <trkpt lat="48.55501" lon="-1.60567">
        <ele>75</ele>
        <time>2017-01-15T15:24:59Z</time>
      </trkpt>
      <trkpt lat="48.55497" lon="-1.60554">
        <ele>75</ele>
        <time>2017-01-15T15:26:59Z</time>
      </trkpt>
      <trkpt lat="48.55495" lon="-1.60539">
        <ele>75</ele>
        <time>2017-01-15T15:28:59Z</time>
      </trkpt>
      <trkpt lat="48.55488" lon="-1.60524">
        <ele>75</ele>
        <time>2017-01-15T15:30:59Z</time>
      </trkpt>
      <trkpt lat="48.55484" lon="-1.60509">
        <ele>74</ele>
        <time>2017-01-15T15:32:59Z</time>
      </trkpt>
      <trkpt lat="48.55481" lon="-1.60496">
        <ele>74</ele>
        <time>2017-01-15T15:34:59Z</time>
      </trkpt>
      <trkpt lat="48.55477" lon="-1.60483">
        <ele>74</ele>
        <time>2017-01-15T15:36:59Z</time>
      </trkpt>
      <trkpt lat="48.55472" lon="-1.60466">
        <ele>74</ele>
        <time>2017-01-15T15:38:59Z</time>
      </trkpt>
      <trkpt lat="48.55469" lon="-1.60448">
        <ele>73</ele>
        <time>2017-01-15T15:40:59Z</time>
      </trkpt>
      <trkpt lat="48.5547" lon="-1.60435">
        <ele>73</ele>
        <time>2017-01-15T15:42:59Z</time>
      </trkpt>
      <trkpt lat="48.55474" lon="-1.60421">
        <ele>73</ele>
        <time>2017-01-15T15:44:59Z</time>
      </trkpt>
      <trkpt lat="48.5548" lon="-1.60409">
        <ele>72</ele>
        <time>2017-01-15T15:46:59Z</time>
      </trkpt>
      <trkpt lat="48.55487" lon="-1.60399">
        <ele>72</ele>
        <time>2017-01-15T15:48:59Z</time>
      </trkpt>
      <trkpt lat="48.55494" lon="-1.60388">
        <ele>72</ele>
        <time>2017-01-15T15:50:59Z</time>
      </trkpt>
      <trkpt lat="48.55501" lon="-1.60377">
        <ele>71</ele>
        <time>2017-01-15T15:52:59Z</time>
      </trkpt>
      <trkpt lat="48.55516" lon="-1.60356">
        <ele>71</ele>
        <time>2017-01-15T15:54:59Z</time>
      </trkpt>
      <trkpt lat="48.55529" lon="-1.60333">
        <ele>70</ele>
        <time>2017-01-15T15:56:59Z</time>
      </trkpt>
      <trkpt lat="48.55535" lon="-1.60321">
        <ele>70</ele>
        <time>2017-01-15T15:58:59Z</time>
      </trkpt>
      <trkpt lat="48.55538" lon="-1.60308">
        <ele>70</ele>
        <time>2017-01-15T16:00:59Z</time>
      </trkpt>
      <trkpt lat="48.5554" lon="-1.60292">
        <ele>70</ele>
        <time>2017-01-15T16:02:59Z</time>
      </trkpt>
      <trkpt lat="48.55539" lon="-1.60277">
        <ele>70</ele>
        <time>2017-01-15T16:04:59Z</time>
      </trkpt>
      <trkpt lat="48.55538" lon="-1.60262">
        <ele>70</ele>
        <time>2017-01-15T16:06:59Z</time>
      </trkpt>
      <trkpt lat="48.55535" lon="-1.60247">
        <ele>70</ele>
        <time>2017-01-15T16:08:59Z</time>
      </trkpt>
      <trkpt lat="48.55534" lon="-1.60219">
        <ele>70</ele>
        <time>2017-01-15T16:10:59Z</time>
      </trkpt>
      <trkpt lat="48.55542" lon="-1.60213">
        <ele>70</ele>
        <time>2017-01-15T16:12:59Z</time>
      </trkpt>
      <trkpt lat="48.5555" lon="-1.60204">
        <ele>70</ele>
        <time>2017-01-15T16:14:59Z</time>
      </trkpt>
      <trkpt lat="48.5556" lon="-1.60197">
        <ele>70</ele>
        <time>2017-01-15T16:16:59Z</time>
      </trkpt>
      <trkpt lat="48.55568" lon="-1.60188">
        <ele>70</ele>
        <time>2017-01-15T16:18:59Z</time>
      </trkpt>
      <trkpt lat="48.55577" lon="-1.60181">
        <ele>70</ele>
        <time>2017-01-15T16:20:59Z</time>
      </trkpt>
      <trkpt lat="48.55586" lon="-1.60173">
        <ele>70</ele>
        <time>2017-01-15T16:22:59Z</time>
      </trkpt>
      <trkpt lat="48.55595" lon="-1.60164">
        <ele>70</ele>
        <time>2017-01-15T16:24:59Z</time>
      </trkpt>
      <trkpt lat="48.55603" lon="-1.60159">
        <ele>69</ele>
        <time>2017-01-15T16:26:59Z</time>
      </trkpt>
      <trkpt lat="48.55612" lon="-1.60151">
        <ele>69</ele>
        <time>2017-01-15T16:28:59Z</time>
      </trkpt>
      <trkpt lat="48.55621" lon="-1.60142">
        <ele>69</ele>
        <time>2017-01-15T16:30:59Z</time>
      </trkpt>
      <trkpt lat="48.5563" lon="-1.60134">
        <ele>69</ele>
        <time>2017-01-15T16:32:59Z</time>
      </trkpt>
      <trkpt lat="48.55647" lon="-1.60114">
        <ele>69</ele>
        <time>2017-01-15T16:34:59Z</time>
      </trkpt>
      <trkpt lat="48.55655" lon="-1.60106">
        <ele>69</ele>
        <time>2017-01-15T16:36:59Z</time>
      </trkpt>
      <trkpt lat="48.55663" lon="-1.60096">
        <ele>70</ele>
        <time>2017-01-15T16:38:59Z</time>
      </trkpt>
      <trkpt lat="48.55671" lon="-1.60086">
        <ele>70</ele>
        <time>2017-01-15T16:40:59Z</time>
      </trkpt>
      <trkpt lat="48.55679" lon="-1.60079">
        <ele>70</ele>
        <time>2017-01-15T16:42:59Z</time>
      </trkpt>
      <trkpt lat="48.55687" lon="-1.60068">
        <ele>69</ele>
        <time>2017-01-15T16:44:59Z</time>
      </trkpt>
      <trkpt lat="48.55693" lon="-1.60057">
        <ele>69</ele>
        <time>2017-01-15T16:46:59Z</time>
      </trkpt>
      <trkpt lat="48.55702" lon="-1.60046">
        <ele>69</ele>
        <time>2017-01-15T16:48:59Z</time>
      </trkpt>
      <trkpt lat="48.55712" lon="-1.60036">
        <ele>68</ele>
        <time>2017-01-15T16:50:59Z</time>
      </trkpt>
      <trkpt lat="48.5572" lon="-1.60025">
        <ele>68</ele>
        <time>2017-01-15T16:52:59Z</time>
      </trkpt>
      <trkpt lat="48.5573" lon="-1.60018">
        <ele>67</ele>
        <time>2017-01-15T16:54:59Z</time>
      </trkpt>
      <trkpt lat="48.55752" lon="-1.59985">
        <ele>66</ele>
        <time>2017-01-15T16:56:59Z</time>
      </trkpt>
      <trkpt lat="48.55759" lon="-1.59976">
        <ele>65</ele>
        <time>2017-01-15T16:58:59Z</time>
      </trkpt>
      <trkpt lat="48.55769" lon="-1.59972">
        <ele>65</ele>
        <time>2017-01-15T17:00:59Z</time>
      </trkpt>
      <trkpt lat="48.5578" lon="-1.59971">
        <ele>65</ele>
        <time>2017-01-15T17:02:59Z</time>
      </trkpt>
      <trkpt lat="48.55787" lon="-1.59968">
        <ele>65</ele>
        <time>2017-01-15T17:04:59Z</time>
      </trkpt>
      <trkpt lat="48.55792" lon="-1.59971">
        <ele>64</ele>
        <time>2017-01-15T17:06:59Z</time>
      </trkpt>
      <trkpt lat="48.55811" lon="-1.59985">
        <ele>64</ele>
        <time>2017-01-15T17:08:59Z</time>
      </trkpt>
      <trkpt lat="48.5583" lon="-1.59987">
        <ele>63</ele>
        <time>2017-01-15T17:10:59Z</time>
      </trkpt>
      <trkpt lat="48.55866" lon="-1.60002">
        <ele>63</ele>
        <time>2017-01-15T17:12:59Z</time>
      </trkpt>
      <trkpt lat="48.55877" lon="-1.60014">
        <ele>63</ele>
        <time>2017-01-15T17:14:59Z</time>
      </trkpt>
      <trkpt lat="48.55893" lon="-1.60023">
        <ele>63</ele>
        <time>2017-01-15T17:16:59Z</time>
      </trkpt>
      <trkpt lat="48.55908" lon="-1.60027">
        <ele>63</ele>
        <time>2017-01-15T17:18:59Z</time>
      </trkpt>
      <trkpt lat="48.55922" lon="-1.6003">
        <ele>63</ele>
        <time>2017-01-15T17:20:59Z</time>
      </trkpt>
      <trkpt lat="48.5593" lon="-1.6003">
        <ele>63</ele>
        <time>2017-01-15T17:22:59Z</time>
      </trkpt>
      <trkpt lat="48.55941" lon="-1.60031">
        <ele>64</ele>
        <time>2017-01-15T17:24:59Z</time>
      </trkpt>
      <trkpt lat="48.55951" lon="-1.60027">
        <ele>64</ele>
        <time>2017-01-15T17:26:59Z</time>
      </trkpt>
      <trkpt lat="48.55958" lon="-1.6002">
        <ele>64</ele>
        <time>2017-01-15T17:28:59Z</time>
      </trkpt>
      <trkpt lat="48.55962" lon="-1.60007">
        <ele>65</ele>
        <time>2017-01-15T17:30:59Z</time>
      </trkpt>
      <trkpt lat="48.55964" lon="-1.59993">
        <ele>65</ele>
        <time>2017-01-15T17:32:59Z</time>
      </trkpt>
      <trkpt lat="48.55968" lon="-1.5998">
        <ele>65</ele>
        <time>2017-01-15T17:34:59Z</time>
      </trkpt>
      <trkpt lat="48.55978" lon="-1.59976">
        <ele>66</ele>
        <time>2017-01-15T17:36:59Z</time>
      </trkpt>
      <trkpt lat="48.55989" lon="-1.59978">
        <ele>66</ele>
        <time>2017-01-15T17:38:59Z</time>
      </trkpt>
      <trkpt lat="48.55999" lon="-1.59979">
        <ele>66</ele>
        <time>2017-01-15T17:40:59Z</time>
      </trkpt>
      <trkpt lat="48.56007" lon="-1.59969">
        <ele>66</ele>
        <time>2017-01-15T17:42:59Z</time>
      </trkpt>
      <trkpt lat="48.56012" lon="-1.59957">
        <ele>66</ele>
        <time>2017-01-15T17:44:59Z</time>
      </trkpt>
      <trkpt lat="48.56025" lon="-1.59918">
        <ele>66</ele>
        <time>2017-01-15T17:46:59Z</time>
      </trkpt>
      <trkpt lat="48.56036" lon="-1.59892">
        <ele>66</ele>
        <time>2017-01-15T17:48:59Z</time>
      </trkpt>
      <trkpt lat="48.56042" lon="-1.59878">
        <ele>65</ele>
        <time>2017-01-15T17:50:59Z</time>
      </trkpt>
      <trkpt lat="48.56051" lon="-1.5985">
        <ele>65</ele>
        <time>2017-01-15T17:52:59Z</time>
      </trkpt>
      <trkpt lat="48.56057" lon="-1.5984">
        <ele>64</ele>
        <time>2017-01-15T17:54:59Z</time>
      </trkpt>
      <trkpt lat="48.56071" lon="-1.59801">
        <ele>64</ele>
        <time>2017-01-15T17:56:59Z</time>
      </trkpt>
      <trkpt lat="48.56076" lon="-1.59787">
        <ele>63</ele>
        <time>2017-01-15T17:58:59Z</time>
      </trkpt>
      <trkpt lat="48.5608" lon="-1.59773">
        <ele>63</ele>
        <time>2017-01-15T18:00:59Z</time>
      </trkpt>
      <trkpt lat="48.56089" lon="-1.59745">
        <ele>62</ele>
        <time>2017-01-15T18:02:59Z</time>
      </trkpt>
      <trkpt lat="48.56092" lon="-1.5973">
        <ele>62</ele>
        <time>2017-01-15T18:04:59Z</time>
      </trkpt>
      <trkpt lat="48.5609" lon="-1.59718">
        <ele>63</ele>
        <time>2017-01-15T18:06:59Z</time>
      </trkpt>
      <trkpt lat="48.5608" lon="-1.59716">
        <ele>63</ele>
        <time>2017-01-15T18:08:59Z</time>
      </trkpt>
      <trkpt lat="48.56058" lon="-1.59713">
        <ele>63</ele>
        <time>2017-01-15T18:10:59Z</time>
      </trkpt>
      <trkpt lat="48.56027" lon="-1.59708">
        <ele>64</ele>
        <time>2017-01-15T18:12:59Z</time>
      </trkpt>
      <trkpt lat="48.56016" lon="-1.59706">
        <ele>64</ele>
        <time>2017-01-15T18:14:59Z</time>
      </trkpt>
      <trkpt lat="48.56005" lon="-1.59704">
        <ele>65</ele>
        <time>2017-01-15T18:16:59Z</time>
      </trkpt>
      <trkpt lat="48.55995" lon="-1.59702">
        <ele>65</ele>
        <time>2017-01-15T18:18:59Z</time>
      </trkpt>
      <trkpt lat="48.55985" lon="-1.59699">
        <ele>65</ele>
        <time>2017-01-15T18:20:59Z</time>
      </trkpt>
      <trkpt lat="48.55974" lon="-1.59697">
        <ele>64</ele>
        <time>2017-01-15T18:22:59Z</time>
      </trkpt>
      <trkpt lat="48.55964" lon="-1.59694">
        <ele>64</ele>
        <time>2017-01-15T18:24:59Z</time>
      </trkpt>
      <trkpt lat="48.55955" lon="-1.5969">
        <ele>64</ele>
        <time>2017-01-15T18:26:59Z</time>
      </trkpt>
      <trkpt lat="48.55945" lon="-1.59686">
        <ele>64</ele>
        <time>2017-01-15T18:28:59Z</time>
      </trkpt>
      <trkpt lat="48.55933" lon="-1.59681">
        <ele>64</ele>
        <time>2017-01-15T18:30:59Z</time>
      </trkpt>
      <trkpt lat="48.55924" lon="-1.59679">
        <ele>63</ele>
        <time>2017-01-15T18:32:59Z</time>
      </trkpt>
      <trkpt lat="48.55914" lon="-1.59674">
        <ele>63</ele>
        <time>2017-01-15T18:34:59Z</time>
      </trkpt>
      <trkpt lat="48.55904" lon="-1.59668">
        <ele>63</ele>
        <time>2017-01-15T18:36:59Z</time>
      </trkpt>
      <trkpt lat="48.55886" lon="-1.59659">
        <ele>62</ele>
        <time>2017-01-15T18:38:59Z</time>
      </trkpt>
      <trkpt lat="48.55868" lon="-1.59646">
        <ele>61</ele>
        <time>2017-01-15T18:40:59Z</time>
      </trkpt>
      <trkpt lat="48.5586" lon="-1.59639">
        <ele>61</ele>
        <time>2017-01-15T18:42:59Z</time>
      </trkpt>
      <trkpt lat="48.55851" lon="-1.59634">
        <ele>61</ele>
        <time>2017-01-15T18:44:59Z</time>
      </trkpt>
      <trkpt lat="48.55841" lon="-1.59627">
        <ele>61</ele>
        <time>2017-01-15T18:46:59Z</time>
      </trkpt>
      <trkpt lat="48.55831" lon="-1.59619">
        <ele>61</ele>
        <time>2017-01-15T18:48:59Z</time>
      </trkpt>
      <trkpt lat="48.55822" lon="-1.59613">
        <ele>61</ele>
        <time>2017-01-15T18:50:59Z</time>
      </trkpt>
      <trkpt lat="48.55813" lon="-1.59607">
        <ele>61</ele>
        <time>2017-01-15T18:52:59Z</time>
      </trkpt>
      <trkpt lat="48.55803" lon="-1.596">
        <ele>61</ele>
        <time>2017-01-15T18:54:59Z</time>
      </trkpt>
      <trkpt lat="48.55794" lon="-1.59593">
        <ele>62</ele>
        <time>2017-01-15T18:56:59Z</time>
      </trkpt>
      <trkpt lat="48.55784" lon="-1.59587">
        <ele>62</ele>
        <time>2017-01-15T18:58:59Z</time>
      </trkpt>
      <trkpt lat="48.55775" lon="-1.59581">
        <ele>62</ele>
        <time>2017-01-15T19:00:59Z</time>
      </trkpt>
      <trkpt lat="48.55766" lon="-1.59573">
        <ele>62</ele>
        <time>2017-01-15T19:02:59Z</time>
      </trkpt>
      <trkpt lat="48.55758" lon="-1.59567">
        <ele>63</ele>
        <time>2017-01-15T19:04:59Z</time>
      </trkpt>
      <trkpt lat="48.55749" lon="-1.59559">
        <ele>63</ele>
        <time>2017-01-15T19:06:59Z</time>
      </trkpt>
      <trkpt lat="48.55739" lon="-1.59553">
        <ele>63</ele>
        <time>2017-01-15T19:08:59Z</time>
      </trkpt>
      <trkpt lat="48.55716" lon="-1.59535">
        <ele>64</ele>
        <time>2017-01-15T19:10:59Z</time>
      </trkpt>
      <trkpt lat="48.55706" lon="-1.59528">
        <ele>65</ele>
        <time>2017-01-15T19:12:59Z</time>
      </trkpt>
      <trkpt lat="48.55699" lon="-1.59521">
        <ele>65</ele>
        <time>2017-01-15T19:14:59Z</time>
      </trkpt>
      <trkpt lat="48.55691" lon="-1.59515">
        <ele>66</ele>
        <time>2017-01-15T19:16:59Z</time>
      </trkpt>
      <trkpt lat="48.55682" lon="-1.59512">
        <ele>66</ele>
        <time>2017-01-15T19:18:59Z</time>
      </trkpt>
      <trkpt lat="48.55677" lon="-1.59499">
        <ele>66</ele>
        <time>2017-01-15T19:20:59Z</time>
      </trkpt>
      <trkpt lat="48.55678" lon="-1.59486">
        <ele>66</ele>
        <time>2017-01-15T19:22:59Z</time>
      </trkpt>
      <trkpt lat="48.5568" lon="-1.5947">
        <ele>66</ele>
        <time>2017-01-15T19:24:59Z</time>
      </trkpt>
      <trkpt lat="48.55683" lon="-1.59455">
        <ele>66</ele>
        <time>2017-01-15T19:26:59Z</time>
      </trkpt>
      <trkpt lat="48.55685" lon="-1.5944">
        <ele>65</ele>
        <time>2017-01-15T19:28:59Z</time>
      </trkpt>
      <trkpt lat="48.55687" lon="-1.59424">
        <ele>65</ele>
        <time>2017-01-15T19:30:59Z</time>
      </trkpt>
      <trkpt lat="48.55688" lon="-1.59409">
        <ele>65</ele>
        <time>2017-01-15T19:32:59Z</time>
      </trkpt>
      <trkpt lat="48.55694" lon="-1.59363">
        <ele>63</ele>
        <time>2017-01-15T19:34:59Z</time>
      </trkpt>
      <trkpt lat="48.557" lon="-1.5935">
        <ele>62</ele>
        <time>2017-01-15T19:36:59Z</time>
      </trkpt>
      <trkpt lat="48.55709" lon="-1.59342">
        <ele>62</ele>
        <time>2017-01-15T19:38:59Z</time>
      </trkpt>
      <trkpt lat="48.55719" lon="-1.5934">
        <ele>61</ele>
        <time>2017-01-15T19:40:59Z</time>
      </trkpt>
      <trkpt lat="48.55727" lon="-1.59336">
        <ele>61</ele>
        <time>2017-01-15T19:42:59Z</time>
      </trkpt>
      <trkpt lat="48.55734" lon="-1.59327">
        <ele>60</ele>
        <time>2017-01-15T19:44:59Z</time>
      </trkpt>
      <trkpt lat="48.55738" lon="-1.59313">
        <ele>60</ele>
        <time>2017-01-15T19:46:59Z</time>
      </trkpt>
      <trkpt lat="48.55738" lon="-1.59297">
        <ele>60</ele>
        <time>2017-01-15T19:48:59Z</time>
      </trkpt>
      <trkpt lat="48.55737" lon="-1.59282">
        <ele>60</ele>
        <time>2017-01-15T19:50:59Z</time>
      </trkpt>
      <trkpt lat="48.55735" lon="-1.59266">
        <ele>59</ele>
        <time>2017-01-15T19:52:59Z</time>
      </trkpt>
      <trkpt lat="48.55735" lon="-1.59249">
        <ele>59</ele>
        <time>2017-01-15T19:54:59Z</time>
      </trkpt>
      <trkpt lat="48.55732" lon="-1.59236">
        <ele>59</ele>
        <time>2017-01-15T19:56:59Z</time>
      </trkpt>
      <trkpt lat="48.55732" lon="-1.59205">
        <ele>58</ele>
        <time>2017-01-15T19:58:59Z</time>
      </trkpt>
      <trkpt lat="48.55734" lon="-1.59191">
        <ele>58</ele>
        <time>2017-01-15T20:00:59Z</time>
      </trkpt>
      <trkpt lat="48.55743" lon="-1.59187">
        <ele>58</ele>
        <time>2017-01-15T20:02:59Z</time>
      </trkpt>
      <trkpt lat="48.55753" lon="-1.59185">
        <ele>57</ele>
        <time>2017-01-15T20:04:59Z</time>
      </trkpt>
      <trkpt lat="48.55764" lon="-1.59185">
        <ele>57</ele>
        <time>2017-01-15T20:06:59Z</time>
      </trkpt>
      <trkpt lat="48.55784" lon="-1.59179">
        <ele>57</ele>
        <time>2017-01-15T20:08:59Z</time>
      </trkpt>
      <trkpt lat="48.55794" lon="-1.5918">
        <ele>57</ele>
        <time>2017-01-15T20:10:59Z</time>
      </trkpt>
      <trkpt lat="48.55803" lon="-1.59179">
        <ele>57</ele>
        <time>2017-01-15T20:12:59Z</time>
      </trkpt>
      <trkpt lat="48.55813" lon="-1.59179">
        <ele>57</ele>
        <time>2017-01-15T20:14:59Z</time>
      </trkpt>
      <trkpt lat="48.55823" lon="-1.59181">
        <ele>57</ele>
        <time>2017-01-15T20:16:59Z</time>
      </trkpt>
      <trkpt lat="48.55833" lon="-1.59185">
        <ele>57</ele>
        <time>2017-01-15T20:18:59Z</time>
      </trkpt>
      <trkpt lat="48.55843" lon="-1.5919">
        <ele>57</ele>
        <time>2017-01-15T20:20:59Z</time>
      </trkpt>
      <trkpt lat="48.55852" lon="-1.59195">
        <ele>57</ele>
        <time>2017-01-15T20:22:59Z</time>
      </trkpt>
      <trkpt lat="48.55858" lon="-1.59191">
        <ele>57</ele>
        <time>2017-01-15T20:24:59Z</time>
      </trkpt>
      <trkpt lat="48.55858" lon="-1.59176">
        <ele>57</ele>
        <time>2017-01-15T20:26:59Z</time>
      </trkpt>
      <trkpt lat="48.55859" lon="-1.59159">
        <ele>57</ele>
        <time>2017-01-15T20:28:59Z</time>
      </trkpt>
      <trkpt lat="48.55864" lon="-1.59123">
        <ele>56</ele>
        <time>2017-01-15T20:30:59Z</time>
      </trkpt>
      <trkpt lat="48.55859" lon="-1.59102">
        <ele>56</ele>
        <time>2017-01-15T20:32:59Z</time>
      </trkpt>
      <trkpt lat="48.55854" lon="-1.59077">
        <ele>56</ele>
        <time>2017-01-15T20:34:59Z</time>
      </trkpt>
      <trkpt lat="48.55846" lon="-1.59051">
        <ele>57</ele>
        <time>2017-01-15T20:36:59Z</time>
      </trkpt>
      <trkpt lat="48.55839" lon="-1.5903">
        <ele>57</ele>
        <time>2017-01-15T20:38:59Z</time>
      </trkpt>
      <trkpt lat="48.5583" lon="-1.59012">
        <ele>58</ele>
        <time>2017-01-15T20:40:59Z</time>
      </trkpt>
      <trkpt lat="48.55826" lon="-1.5899">
        <ele>58</ele>
        <time>2017-01-15T20:42:59Z</time>
      </trkpt>
      <trkpt lat="48.55809" lon="-1.58966">
        <ele>57</ele>
        <time>2017-01-15T20:44:59Z</time>
      </trkpt>
      <trkpt lat="48.55786" lon="-1.58938">
        <ele>56</ele>
        <time>2017-01-15T20:46:59Z</time>
      </trkpt>
      <trkpt lat="48.55779" lon="-1.58928">
        <ele>56</ele>
        <time>2017-01-15T20:48:59Z</time>
      </trkpt>
      <trkpt lat="48.55762" lon="-1.58915">
        <ele>57</ele>
        <time>2017-01-15T20:50:59Z</time>
      </trkpt>
      <trkpt lat="48.55748" lon="-1.58897">
        <ele>57</ele>
        <time>2017-01-15T20:52:59Z</time>
      </trkpt>
      <trkpt lat="48.55737" lon="-1.58882">
        <ele>57</ele>
        <time>2017-01-15T20:54:59Z</time>
      </trkpt>
      <trkpt lat="48.55716" lon="-1.58867">
        <ele>57</ele>
        <time>2017-01-15T20:56:59Z</time>
      </trkpt>
      <trkpt lat="48.55695" lon="-1.5884">
        <ele>57</ele>
        <time>2017-01-15T20:58:59Z</time>
      </trkpt>
      <trkpt lat="48.55686" lon="-1.58823">
        <ele>57</ele>
        <time>2017-01-15T21:00:59Z</time>
      </trkpt>
      <trkpt lat="48.55682" lon="-1.58802">
        <ele>56</ele>
        <time>2017-01-15T21:02:59Z</time>
      </trkpt>
      <trkpt lat="48.55668" lon="-1.58769">
        <ele>55</ele>
        <time>2017-01-15T21:04:59Z</time>
      </trkpt>
      <trkpt lat="48.55669" lon="-1.58754">
        <ele>55</ele>
        <time>2017-01-15T21:06:59Z</time>
      </trkpt>
      <trkpt lat="48.55678" lon="-1.58745">
        <ele>55</ele>
        <time>2017-01-15T21:08:59Z</time>
      </trkpt>
      <trkpt lat="48.55688" lon="-1.5874">
        <ele>55</ele>
        <time>2017-01-15T21:10:59Z</time>
      </trkpt>
      <trkpt lat="48.55697" lon="-1.58735">
        <ele>55</ele>
        <time>2017-01-15T21:12:59Z</time>
      </trkpt>
      <trkpt lat="48.55706" lon="-1.58728">
        <ele>56</ele>
        <time>2017-01-15T21:14:59Z</time>
      </trkpt>
      <trkpt lat="48.55718" lon="-1.58719">
        <ele>56</ele>
        <time>2017-01-15T21:16:59Z</time>
      </trkpt>
      <trkpt lat="48.55727" lon="-1.58712">
        <ele>56</ele>
        <time>2017-01-15T21:18:59Z</time>
      </trkpt>
      <trkpt lat="48.55728" lon="-1.58699">
        <ele>57</ele>
        <time>2017-01-15T21:20:59Z</time>
      </trkpt>
      <trkpt lat="48.55717" lon="-1.5868">
        <ele>57</ele>
        <time>2017-01-15T21:22:59Z</time>
      </trkpt>
      <trkpt lat="48.55701" lon="-1.58657">
        <ele>57</ele>
        <time>2017-01-15T21:24:59Z</time>
      </trkpt>
      <trkpt lat="48.5569" lon="-1.58644">
        <ele>57</ele>
        <time>2017-01-15T21:26:59Z</time>
      </trkpt>
      <trkpt lat="48.55677" lon="-1.58621">
        <ele>57</ele>
        <time>2017-01-15T21:28:59Z</time>
      </trkpt>
      <trkpt lat="48.5566" lon="-1.58598">
        <ele>58</ele>
        <time>2017-01-15T21:30:59Z</time>
      </trkpt>
      <trkpt lat="48.5565" lon="-1.58578">
        <ele>58</ele>
        <time>2017-01-15T21:32:59Z</time>
      </trkpt>
      <trkpt lat="48.55635" lon="-1.58538">
        <ele>58</ele>
        <time>2017-01-15T21:34:59Z</time>
      </trkpt>
      <trkpt lat="48.55621" lon="-1.58509">
        <ele>59</ele>
        <time>2017-01-15T21:36:59Z</time>
      </trkpt>
      <trkpt lat="48.55619" lon="-1.5849">
        <ele>58</ele>
        <time>2017-01-15T21:38:59Z</time>
      </trkpt>
      <trkpt lat="48.55623" lon="-1.58469">
        <ele>58</ele>
        <time>2017-01-15T21:40:59Z</time>
      </trkpt>
      <trkpt lat="48.55635" lon="-1.58449">
        <ele>57</ele>
        <time>2017-01-15T21:42:59Z</time>
      </trkpt>
      <trkpt lat="48.5564" lon="-1.58423">
        <ele>57</ele>
        <time>2017-01-15T21:44:59Z</time>
      </trkpt>
      <trkpt lat="48.5564" lon="-1.58405">
        <ele>56</ele>
        <time>2017-01-15T21:46:59Z</time>
      </trkpt>
      <trkpt lat="48.55638" lon="-1.58388">
        <ele>56</ele>
        <time>2017-01-15T21:48:59Z</time>
      </trkpt>
      <trkpt lat="48.55632" lon="-1.58345">
        <ele>56</ele>
        <time>2017-01-15T21:50:59Z</time>
      </trkpt>
      <trkpt lat="48.55631" lon="-1.58327">
        <ele>55</ele>
        <time>2017-01-15T21:52:59Z</time>
      </trkpt>
      <trkpt lat="48.55625" lon="-1.58313">
        <ele>56</ele>
        <time>2017-01-15T21:54:59Z</time>
      </trkpt>
      <trkpt lat="48.55604" lon="-1.58295">
        <ele>55</ele>
        <time>2017-01-15T21:56:59Z</time>
      </trkpt>
      <trkpt lat="48.5559" lon="-1.58283">
        <ele>55</ele>
        <time>2017-01-15T21:58:59Z</time>
      </trkpt>
      <trkpt lat="48.55582" lon="-1.58268">
        <ele>54</ele>
        <time>2017-01-15T22:00:59Z</time>
      </trkpt>
      <trkpt lat="48.55573" lon="-1.58257">
        <ele>54</ele>
        <time>2017-01-15T22:02:59Z</time>
      </trkpt>
      <trkpt lat="48.55563" lon="-1.58241">
        <ele>53</ele>
        <time>2017-01-15T22:04:59Z</time>
      </trkpt>
      <trkpt lat="48.55556" lon="-1.58219">
        <ele>53</ele>
        <time>2017-01-15T22:06:59Z</time>
      </trkpt>
      <trkpt lat="48.55544" lon="-1.58191">
        <ele>51</ele>
        <time>2017-01-15T22:08:59Z</time>
      </trkpt>
      <trkpt lat="48.55538" lon="-1.5816">
        <ele>50</ele>
        <time>2017-01-15T22:10:59Z</time>
      </trkpt>
      <trkpt lat="48.55535" lon="-1.58142">
        <ele>50</ele>
        <time>2017-01-15T22:12:59Z</time>
      </trkpt>
      <trkpt lat="48.5553" lon="-1.58125">
        <ele>50</ele>
        <time>2017-01-15T22:14:59Z</time>
      </trkpt>
      <trkpt lat="48.5552" lon="-1.58094">
        <ele>51</ele>
        <time>2017-01-15T22:16:59Z</time>
      </trkpt>
      <trkpt lat="48.55512" lon="-1.58084">
        <ele>50</ele>
        <time>2017-01-15T22:18:59Z</time>
      </trkpt>
      <trkpt lat="48.55505" lon="-1.58077">
        <ele>51</ele>
        <time>2017-01-15T22:20:59Z</time>
      </trkpt>
      <trkpt lat="48.55496" lon="-1.58073">
        <ele>51</ele>
        <time>2017-01-15T22:22:59Z</time>
      </trkpt>
      <trkpt lat="48.55484" lon="-1.58068">
        <ele>51</ele>
        <time>2017-01-15T22:24:59Z</time>
      </trkpt>
      <trkpt lat="48.55473" lon="-1.58064">
        <ele>51</ele>
        <time>2017-01-15T22:26:59Z</time>
      </trkpt>
      <trkpt lat="48.55462" lon="-1.58069">
        <ele>50</ele>
        <time>2017-01-15T22:28:59Z</time>
      </trkpt>
      <trkpt lat="48.55453" lon="-1.58075">
        <ele>50</ele>
        <time>2017-01-15T22:30:59Z</time>
      </trkpt>
      <trkpt lat="48.55443" lon="-1.58079">
        <ele>49</ele>
        <time>2017-01-15T22:32:59Z</time>
      </trkpt>
      <trkpt lat="48.55435" lon="-1.58088">
        <ele>49</ele>
        <time>2017-01-15T22:34:59Z</time>
      </trkpt>
      <trkpt lat="48.55427" lon="-1.58099">
        <ele>50</ele>
        <time>2017-01-15T22:36:59Z</time>
      </trkpt>
      <trkpt lat="48.55419" lon="-1.58112">
        <ele>50</ele>
        <time>2017-01-15T22:38:59Z</time>
      </trkpt>
      <trkpt lat="48.55415" lon="-1.5813">
        <ele>51</ele>
        <time>2017-01-15T22:40:59Z</time>
      </trkpt>
      <trkpt lat="48.55418" lon="-1.58145">
        <ele>52</ele>
        <time>2017-01-15T22:42:59Z</time>
      </trkpt>
      <trkpt lat="48.55424" lon="-1.58157">
        <ele>52</ele>
        <time>2017-01-15T22:44:59Z</time>
      </trkpt>
      <trkpt lat="48.55428" lon="-1.5817">
        <ele>52</ele>
        <time>2017-01-15T22:46:59Z</time>
      </trkpt>
      <trkpt lat="48.55433" lon="-1.58184">
        <ele>52</ele>
        <time>2017-01-15T22:48:59Z</time>
      </trkpt>
      <trkpt lat="48.55436" lon="-1.58199">
        <ele>52</ele>
        <time>2017-01-15T22:50:59Z</time>
      </trkpt>
      <trkpt lat="48.55437" lon="-1.58215">
        <ele>53</ele>
        <time>2017-01-15T22:52:59Z</time>
      </trkpt>
      <trkpt lat="48.55432" lon="-1.58229">
        <ele>53</ele>
        <time>2017-01-15T22:54:59Z</time>
      </trkpt>
      <trkpt lat="48.55427" lon="-1.58242">
        <ele>54</ele>
        <time>2017-01-15T22:56:59Z</time>
      </trkpt>
      <trkpt lat="48.55421" lon="-1.58254">
        <ele>54</ele>
        <time>2017-01-15T22:58:59Z</time>
      </trkpt>
      <trkpt lat="48.55414" lon="-1.58266">
        <ele>55</ele>
        <time>2017-01-15T23:00:59Z</time>
      </trkpt>
      <trkpt lat="48.55408" lon="-1.5828">
        <ele>55</ele>
        <time>2017-01-15T23:02:59Z</time>
      </trkpt>
      <trkpt lat="48.55402" lon="-1.58293">
        <ele>56</ele>
        <time>2017-01-15T23:04:59Z</time>
      </trkpt>
      <trkpt lat="48.55397" lon="-1.58304">
        <ele>57</ele>
        <time>2017-01-15T23:06:59Z</time>
      </trkpt>
      <trkpt lat="48.55391" lon="-1.58318">
        <ele>57</ele>
        <time>2017-01-15T23:08:59Z</time>
      </trkpt>
      <trkpt lat="48.5538" lon="-1.58342">
        <ele>58</ele>
        <time>2017-01-15T23:10:59Z</time>
      </trkpt>
      <trkpt lat="48.55374" lon="-1.58353">
        <ele>59</ele>
        <time>2017-01-15T23:12:59Z</time>
      </trkpt>
      <trkpt lat="48.55366" lon="-1.58364">
        <ele>60</ele>
        <time>2017-01-15T23:14:59Z</time>
      </trkpt>
      <trkpt lat="48.55343" lon="-1.58389">
        <ele>61</ele>
        <time>2017-01-15T23:16:59Z</time>
      </trkpt>
      <trkpt lat="48.55333" lon="-1.58395">
        <ele>61</ele>
        <time>2017-01-15T23:18:59Z</time>
      </trkpt>
      <trkpt lat="48.55323" lon="-1.58399">
        <ele>62</ele>
        <time>2017-01-15T23:20:59Z</time>
      </trkpt>
      <trkpt lat="48.55315" lon="-1.58402">
        <ele>62</ele>
        <time>2017-01-15T23:22:59Z</time>
      </trkpt>
      <trkpt lat="48.55294" lon="-1.5841">
        <ele>63</ele>
        <time>2017-01-15T23:24:59Z</time>
      </trkpt>
      <trkpt lat="48.55284" lon="-1.58411">
        <ele>64</ele>
        <time>2017-01-15T23:26:59Z</time>
      </trkpt>
      <trkpt lat="48.55274" lon="-1.58415">
        <ele>65</ele>
        <time>2017-01-15T23:28:59Z</time>
      </trkpt>
      <trkpt lat="48.55254" lon="-1.58421">
        <ele>66</ele>
        <time>2017-01-15T23:30:59Z</time>
      </trkpt>
      <trkpt lat="48.55244" lon="-1.58422">
        <ele>66</ele>
        <time>2017-01-15T23:32:59Z</time>
      </trkpt>
      <trkpt lat="48.55226" lon="-1.58429">
        <ele>66</ele>
        <time>2017-01-15T23:34:59Z</time>
      </trkpt>
      <trkpt lat="48.55216" lon="-1.58435">
        <ele>66</ele>
        <time>2017-01-15T23:36:59Z</time>
      </trkpt>
      <trkpt lat="48.55206" lon="-1.5844">
        <ele>66</ele>
        <time>2017-01-15T23:38:59Z</time>
      </trkpt>
      <trkpt lat="48.55195" lon="-1.58436">
        <ele>66</ele>
        <time>2017-01-15T23:40:59Z</time>
      </trkpt>
      <trkpt lat="48.55187" lon="-1.58427">
        <ele>66</ele>
        <time>2017-01-15T23:42:59Z</time>
      </trkpt>
      <trkpt lat="48.5518" lon="-1.58418">
        <ele>66</ele>
        <time>2017-01-15T23:44:59Z</time>
      </trkpt>
      <trkpt lat="48.55172" lon="-1.58405">
        <ele>66</ele>
        <time>2017-01-15T23:46:59Z</time>
      </trkpt>
      <trkpt lat="48.55163" lon="-1.58394">
        <ele>66</ele>
        <time>2017-01-15T23:48:59Z</time>
      </trkpt>
      <trkpt lat="48.55156" lon="-1.58383">
        <ele>66</ele>
        <time>2017-01-15T23:50:59Z</time>
      </trkpt>
      <trkpt lat="48.55151" lon="-1.58372">
        <ele>66</ele>
        <time>2017-01-15T23:52:59Z</time>
      </trkpt>
      <trkpt lat="48.55145" lon="-1.58348">
        <ele>65</ele>
        <time>2017-01-15T23:54:59Z</time>
      </trkpt>
      <trkpt lat="48.55146" lon="-1.58363">
        <ele>65</ele>
        <time>2017-01-15T23:56:59Z</time>
      </trkpt>
      <trkpt lat="48.55146" lon="-1.58364">
        <ele>65</ele>
        <time>2017-01-15T23:58:59Z</time>
      </trkpt>
      <trkpt lat="48.55145" lon="-1.58346">
        <ele>65</ele>
        <time>2017-01-16T00:00:59Z</time>
      </trkpt>
      <trkpt lat="48.55146" lon="-1.58332">
        <ele>65</ele>
        <time>2017-01-16T00:02:59Z</time>
      </trkpt>
      <trkpt lat="48.55146" lon="-1.58318">
        <ele>65</ele>
        <time>2017-01-16T00:04:59Z</time>
      </trkpt>
      <trkpt lat="48.55145" lon="-1.58302">
        <ele>65</ele>
        <time>2017-01-16T00:06:59Z</time>
      </trkpt>
      <trkpt lat="48.55147" lon="-1.58288">
        <ele>64</ele>
        <time>2017-01-16T00:08:59Z</time>
      </trkpt>
      <trkpt lat="48.55147" lon="-1.5827">
        <ele>64</ele>
        <time>2017-01-16T00:10:59Z</time>
      </trkpt>
      <trkpt lat="48.55148" lon="-1.58258">
        <ele>64</ele>
        <time>2017-01-16T00:12:59Z</time>
      </trkpt>
      <trkpt lat="48.5515" lon="-1.58243">
        <ele>64</ele>
        <time>2017-01-16T00:14:59Z</time>
      </trkpt>
      <trkpt lat="48.55151" lon="-1.5823">
        <ele>63</ele>
        <time>2017-01-16T00:16:59Z</time>
      </trkpt>
      <trkpt lat="48.5515" lon="-1.58214">
        <ele>62</ele>
        <time>2017-01-16T00:18:59Z</time>
      </trkpt>
      <trkpt lat="48.55151" lon="-1.582">
        <ele>61</ele>
        <time>2017-01-16T00:20:59Z</time>
      </trkpt>
      <trkpt lat="48.5515" lon="-1.58185">
        <ele>60</ele>
        <time>2017-01-16T00:22:59Z</time>
      </trkpt>
      <trkpt lat="48.5515" lon="-1.58169">
        <ele>59</ele>
        <time>2017-01-16T00:24:59Z</time>
      </trkpt>
      <trkpt lat="48.55151" lon="-1.58153">
        <ele>58</ele>
        <time>2017-01-16T00:26:59Z</time>
      </trkpt>
      <trkpt lat="48.5515" lon="-1.58139">
        <ele>58</ele>
        <time>2017-01-16T00:28:59Z</time>
      </trkpt>
      <trkpt lat="48.55151" lon="-1.58122">
        <ele>57</ele>
        <time>2017-01-16T00:30:59Z</time>
      </trkpt>
      <trkpt lat="48.5515" lon="-1.58108">
        <ele>56</ele>
        <time>2017-01-16T00:32:59Z</time>
      </trkpt>
      <trkpt lat="48.5515" lon="-1.58079">
        <ele>54</ele>
        <time>2017-01-16T00:34:59Z</time>
      </trkpt>
      <trkpt lat="48.55151" lon="-1.58064">
        <ele>53</ele>
        <time>2017-01-16T00:36:59Z</time>
      </trkpt>
      <trkpt lat="48.55149" lon="-1.58048">
        <ele>52</ele>
        <time>2017-01-16T00:38:59Z</time>
      </trkpt>
      <trkpt lat="48.55143" lon="-1.58003">
        <ele>49</ele>
        <time>2017-01-16T00:40:59Z</time>
      </trkpt>
      <trkpt lat="48.55139" lon="-1.57987">
        <ele>48</ele>
        <time>2017-01-16T00:42:59Z</time>
      </trkpt>
      <trkpt lat="48.55135" lon="-1.57974">
        <ele>48</ele>
        <time>2017-01-16T00:44:59Z</time>
      </trkpt>
      <trkpt lat="48.55129" lon="-1.57944">
        <ele>46</ele>
        <time>2017-01-16T00:46:59Z</time>
      </trkpt>
      <trkpt lat="48.55117" lon="-1.57899">
        <ele>44</ele>
        <time>2017-01-16T00:48:59Z</time>
      </trkpt>
      <trkpt lat="48.55113" lon="-1.57885">
        <ele>43</ele>
        <time>2017-01-16T00:50:59Z</time>
      </trkpt>
      <trkpt lat="48.5511" lon="-1.57872">
        <ele>42</ele>
        <time>2017-01-16T00:52:59Z</time>
      </trkpt>
      <trkpt lat="48.55107" lon="-1.57859">
        <ele>42</ele>
        <time>2017-01-16T00:54:59Z</time>
      </trkpt>
      <trkpt lat="48.55096" lon="-1.5783">
        <ele>40</ele>
        <time>2017-01-16T00:56:59Z</time>
      </trkpt>
      <trkpt lat="48.55093" lon="-1.57817">
        <ele>40</ele>
        <time>2017-01-16T00:58:59Z</time>
      </trkpt>
      <trkpt lat="48.55087" lon="-1.57803">
        <ele>40</ele>
        <time>2017-01-16T01:00:59Z</time>
      </trkpt>
      <trkpt lat="48.55083" lon="-1.57789">
        <ele>40</ele>
        <time>2017-01-16T01:02:59Z</time>
      </trkpt>
      <trkpt lat="48.55078" lon="-1.57778">
        <ele>40</ele>
        <time>2017-01-16T01:04:59Z</time>
      </trkpt>
      <trkpt lat="48.55066" lon="-1.5774">
        <ele>39</ele>
        <time>2017-01-16T01:06:59Z</time>
      </trkpt>
      <trkpt lat="48.55061" lon="-1.57728">
        <ele>39</ele>
        <time>2017-01-16T01:08:59Z</time>
      </trkpt>
      <trkpt lat="48.55058" lon="-1.57713">
        <ele>38</ele>
        <time>2017-01-16T01:10:59Z</time>
      </trkpt>
      <trkpt lat="48.55053" lon="-1.57699">
        <ele>38</ele>
        <time>2017-01-16T01:12:59Z</time>
      </trkpt>
      <trkpt lat="48.55051" lon="-1.57684">
        <ele>37</ele>
        <time>2017-01-16T01:14:59Z</time>
      </trkpt>
      <trkpt lat="48.55047" lon="-1.57671">
        <ele>37</ele>
        <time>2017-01-16T01:16:59Z</time>
      </trkpt>
      <trkpt lat="48.55043" lon="-1.57659">
        <ele>36</ele>
        <time>2017-01-16T01:18:59Z</time>
      </trkpt>
      <trkpt lat="48.55039" lon="-1.57647">
        <ele>36</ele>
        <time>2017-01-16T01:20:59Z</time>
      </trkpt>
      <trkpt lat="48.5504" lon="-1.57632">
        <ele>36</ele>
        <time>2017-01-16T01:22:59Z</time>
      </trkpt>
      <trkpt lat="48.55047" lon="-1.57602">
        <ele>36</ele>
        <time>2017-01-16T01:24:59Z</time>
      </trkpt>
      <trkpt lat="48.55051" lon="-1.57587">
        <ele>36</ele>
        <time>2017-01-16T01:26:59Z</time>
      </trkpt>
      <trkpt lat="48.55054" lon="-1.57573">
        <ele>36</ele>
        <time>2017-01-16T01:28:59Z</time>
      </trkpt>
      <trkpt lat="48.55055" lon="-1.57561">
        <ele>36</ele>
        <time>2017-01-16T01:30:59Z</time>
      </trkpt>
      <trkpt lat="48.55059" lon="-1.57546">
        <ele>36</ele>
        <time>2017-01-16T01:32:59Z</time>
      </trkpt>
      <trkpt lat="48.55078" lon="-1.5747">
        <ele>36</ele>
        <time>2017-01-16T01:34:59Z</time>
      </trkpt>
      <trkpt lat="48.55082" lon="-1.57457">
        <ele>36</ele>
        <time>2017-01-16T01:36:59Z</time>
      </trkpt>
      <trkpt lat="48.55085" lon="-1.57442">
        <ele>36</ele>
        <time>2017-01-16T01:38:59Z</time>
      </trkpt>
      <trkpt lat="48.55087" lon="-1.57428">
        <ele>36</ele>
        <time>2017-01-16T01:40:59Z</time>
      </trkpt>
      <trkpt lat="48.5508" lon="-1.57419">
        <ele>36</ele>
        <time>2017-01-16T01:42:59Z</time>
      </trkpt>
      <trkpt lat="48.5507" lon="-1.57416">
        <ele>35</ele>
        <time>2017-01-16T01:44:59Z</time>
      </trkpt>
      <trkpt lat="48.55042" lon="-1.57401">
        <ele>34</ele>
        <time>2017-01-16T01:46:59Z</time>
      </trkpt>
      <trkpt lat="48.55032" lon="-1.57395">
        <ele>33</ele>
        <time>2017-01-16T01:48:59Z</time>
      </trkpt>
      <trkpt lat="48.55023" lon="-1.57391">
        <ele>33</ele>
        <time>2017-01-16T01:50:59Z</time>
      </trkpt>
      <trkpt lat="48.55014" lon="-1.57386">
        <ele>32</ele>
        <time>2017-01-16T01:52:59Z</time>
      </trkpt>
      <trkpt lat="48.55005" lon="-1.57381">
        <ele>32</ele>
        <time>2017-01-16T01:54:59Z</time>
      </trkpt>
      <trkpt lat="48.54995" lon="-1.57375">
        <ele>31</ele>
        <time>2017-01-16T01:56:59Z</time>
      </trkpt>
      <trkpt lat="48.54986" lon="-1.57371">
        <ele>31</ele>
        <time>2017-01-16T01:58:59Z</time>
      </trkpt>
      <trkpt lat="48.54977" lon="-1.57367">
        <ele>31</ele>
        <time>2017-01-16T02:00:59Z</time>
      </trkpt>
      <trkpt lat="48.54968" lon="-1.5736">
        <ele>30</ele>
        <time>2017-01-16T02:02:59Z</time>
      </trkpt>
      <trkpt lat="48.54959" lon="-1.57358">
        <ele>30</ele>
        <time>2017-01-16T02:04:59Z</time>
      </trkpt>
      <trkpt lat="48.54948" lon="-1.57357">
        <ele>30</ele>
        <time>2017-01-16T02:06:59Z</time>
      </trkpt>
      <trkpt lat="48.54938" lon="-1.57361">
        <ele>30</ele>
        <time>2017-01-16T02:08:59Z</time>
      </trkpt>
      <trkpt lat="48.54928" lon="-1.57361">
        <ele>29</ele>
        <time>2017-01-16T02:10:59Z</time>
      </trkpt>
      <trkpt lat="48.54918" lon="-1.57359">
        <ele>29</ele>
        <time>2017-01-16T02:12:59Z</time>
      </trkpt>
      <trkpt lat="48.54908" lon="-1.57353">
        <ele>29</ele>
        <time>2017-01-16T02:14:59Z</time>
      </trkpt>
      <trkpt lat="48.54899" lon="-1.5735">
        <ele>29</ele>
        <time>2017-01-16T02:16:59Z</time>
      </trkpt>
      <trkpt lat="48.5489" lon="-1.57345">
        <ele>28</ele>
        <time>2017-01-16T02:18:59Z</time>
      </trkpt>
      <trkpt lat="48.5488" lon="-1.57341">
        <ele>28</ele>
        <time>2017-01-16T02:20:59Z</time>
      </trkpt>
      <trkpt lat="48.54863" lon="-1.57332">
        <ele>28</ele>
        <time>2017-01-16T02:22:59Z</time>
      </trkpt>
      <trkpt lat="48.54845" lon="-1.57321">
        <ele>27</ele>
        <time>2017-01-16T02:24:59Z</time>
      </trkpt>
      <trkpt lat="48.54834" lon="-1.57316">
        <ele>27</ele>
        <time>2017-01-16T02:26:59Z</time>
      </trkpt>
      <trkpt lat="48.54825" lon="-1.5731">
        <ele>26</ele>
        <time>2017-01-16T02:28:59Z</time>
      </trkpt>
      <trkpt lat="48.54816" lon="-1.57305">
        <ele>26</ele>
        <time>2017-01-16T02:30:59Z</time>
      </trkpt>
      <trkpt lat="48.54808" lon="-1.57298">
        <ele>26</ele>
        <time>2017-01-16T02:32:59Z</time>
      </trkpt>
      <trkpt lat="48.54799" lon="-1.57291">
        <ele>26</ele>
        <time>2017-01-16T02:34:59Z</time>
      </trkpt>
      <trkpt lat="48.54795" lon="-1.57278">
        <ele>25</ele>
        <time>2017-01-16T02:36:59Z</time>
      </trkpt>
      <trkpt lat="48.54797" lon="-1.57263">
        <ele>25</ele>
        <time>2017-01-16T02:38:59Z</time>
      </trkpt>
      <trkpt lat="48.548" lon="-1.5725">
        <ele>25</ele>
        <time>2017-01-16T02:40:59Z</time>
      </trkpt>
      <trkpt lat="48.54792" lon="-1.57246">
        <ele>25</ele>
        <time>2017-01-16T02:42:59Z</time>
      </trkpt>
      <trkpt lat="48.54781" lon="-1.57245">
        <ele>25</ele>
        <time>2017-01-16T02:44:59Z</time>
      </trkpt>
      <trkpt lat="48.54766" lon="-1.5724">
        <ele>25</ele>
        <time>2017-01-16T02:46:59Z</time>
      </trkpt>
      <trkpt lat="48.54752" lon="-1.57237">
        <ele>25</ele>
        <time>2017-01-16T02:48:59Z</time>
      </trkpt>
      <trkpt lat="48.54738" lon="-1.57229">
        <ele>25</ele>
        <time>2017-01-16T02:50:59Z</time>
      </trkpt>
      <trkpt lat="48.54731" lon="-1.57224">
        <ele>24</ele>
        <time>2017-01-16T02:52:59Z</time>
      </trkpt>
      <trkpt lat="48.54719" lon="-1.57218">
        <ele>24</ele>
        <time>2017-01-16T02:54:59Z</time>
      </trkpt>
      <trkpt lat="48.5471" lon="-1.57216">
        <ele>24</ele>
        <time>2017-01-16T02:56:59Z</time>
      </trkpt>
      <trkpt lat="48.54702" lon="-1.57208">
        <ele>24</ele>
        <time>2017-01-16T02:58:59Z</time>
      </trkpt>
      <trkpt lat="48.54696" lon="-1.5721">
        <ele>23</ele>
        <time>2017-01-16T03:00:59Z</time>
      </trkpt>
      <trkpt lat="48.54702" lon="-1.57206">
        <ele>24</ele>
        <time>2017-01-16T03:02:59Z</time>
      </trkpt>
      <trkpt lat="48.54698" lon="-1.57201">
        <ele>23</ele>
        <time>2017-01-16T03:04:59Z</time>
      </trkpt>
      <trkpt lat="48.54697" lon="-1.57172">
        <ele>23</ele>
        <time>2017-01-16T03:06:59Z</time>
      </trkpt>
      <trkpt lat="48.54682" lon="-1.57127">
        <ele>21</ele>
        <time>2017-01-16T03:08:59Z</time>
      </trkpt>
      <trkpt lat="48.54671" lon="-1.57117">
        <ele>21</ele>
        <time>2017-01-16T03:10:59Z</time>
      </trkpt>
      <trkpt lat="48.54662" lon="-1.57102">
        <ele>20</ele>
        <time>2017-01-16T03:12:59Z</time>
      </trkpt>
      <trkpt lat="48.54669" lon="-1.57088">
        <ele>20</ele>
        <time>2017-01-16T03:14:59Z</time>
      </trkpt>
      <trkpt lat="48.54671" lon="-1.57077">
        <ele>20</ele>
        <time>2017-01-16T03:16:59Z</time>
      </trkpt>
      <trkpt lat="48.54662" lon="-1.5706">
        <ele>19</ele>
        <time>2017-01-16T03:18:59Z</time>
      </trkpt>
      <trkpt lat="48.54669" lon="-1.57045">
        <ele>19</ele>
        <time>2017-01-16T03:20:59Z</time>
      </trkpt>
      <trkpt lat="48.54671" lon="-1.57028">
        <ele>19</ele>
        <time>2017-01-16T03:22:59Z</time>
      </trkpt>
      <trkpt lat="48.54671" lon="-1.57014">
        <ele>18</ele>
        <time>2017-01-16T03:24:59Z</time>
      </trkpt>
      <trkpt lat="48.54679" lon="-1.57002">
        <ele>18</ele>
        <time>2017-01-16T03:26:59Z</time>
      </trkpt>
      <trkpt lat="48.54691" lon="-1.56993">
        <ele>18</ele>
        <time>2017-01-16T03:28:59Z</time>
      </trkpt>
      <trkpt lat="48.54698" lon="-1.56976">
        <ele>18</ele>
        <time>2017-01-16T03:30:59Z</time>
      </trkpt>
      <trkpt lat="48.54695" lon="-1.5694">
        <ele>18</ele>
        <time>2017-01-16T03:32:59Z</time>
      </trkpt>
      <trkpt lat="48.54695" lon="-1.56922">
        <ele>17</ele>
        <time>2017-01-16T03:34:59Z</time>
      </trkpt>
      <trkpt lat="48.54699" lon="-1.56895">
        <ele>18</ele>
        <time>2017-01-16T03:36:59Z</time>
      </trkpt>
      <trkpt lat="48.54694" lon="-1.56876">
        <ele>18</ele>
        <time>2017-01-16T03:38:59Z</time>
      </trkpt>
      <trkpt lat="48.54685" lon="-1.56871">
        <ele>18</ele>
        <time>2017-01-16T03:40:59Z</time>
      </trkpt>
      <trkpt lat="48.54675" lon="-1.56868">
        <ele>18</ele>
        <time>2017-01-16T03:42:59Z</time>
      </trkpt>
      <trkpt lat="48.54666" lon="-1.56859">
        <ele>18</ele>
        <time>2017-01-16T03:44:59Z</time>
      </trkpt>
      <trkpt lat="48.54661" lon="-1.56855">
        <ele>18</ele>
        <time>2017-01-16T03:46:59Z</time>
      </trkpt>
      <trkpt lat="48.54652" lon="-1.56846">
        <ele>19</ele>
        <time>2017-01-16T03:48:59Z</time>
      </trkpt>
      <trkpt lat="48.54644" lon="-1.5684">
        <ele>19</ele>
        <time>2017-01-16T03:50:59Z</time>
      </trkpt>
      <trkpt lat="48.54635" lon="-1.56833">
        <ele>20</ele>
        <time>2017-01-16T03:52:59Z</time>
      </trkpt>
      <trkpt lat="48.54628" lon="-1.56824">
        <ele>20</ele>
        <time>2017-01-16T03:54:59Z</time>
      </trkpt>
      <trkpt lat="48.54613" lon="-1.56814">
        <ele>21</ele>
        <time>2017-01-16T03:56:59Z</time>
      </trkpt>
      <trkpt lat="48.54605" lon="-1.56807">
        <ele>21</ele>
        <time>2017-01-16T03:58:59Z</time>
      </trkpt>
      <trkpt lat="48.54588" lon="-1.56793">
        <ele>22</ele>
        <time>2017-01-16T04:00:59Z</time>
      </trkpt>
      <trkpt lat="48.54579" lon="-1.56785">
        <ele>23</ele>
        <time>2017-01-16T04:02:59Z</time>
      </trkpt>
      <trkpt lat="48.5457" lon="-1.56778">
        <ele>23</ele>
        <time>2017-01-16T04:04:59Z</time>
      </trkpt>
      <trkpt lat="48.54552" lon="-1.56764">
        <ele>23</ele>
        <time>2017-01-16T04:06:59Z</time>
      </trkpt>
      <trkpt lat="48.54544" lon="-1.56757">
        <ele>23</ele>
        <time>2017-01-16T04:08:59Z</time>
      </trkpt>
      <trkpt lat="48.54539" lon="-1.56747">
        <ele>24</ele>
        <time>2017-01-16T04:10:59Z</time>
      </trkpt>
      <trkpt lat="48.54544" lon="-1.56737">
        <ele>23</ele>
        <time>2017-01-16T04:12:59Z</time>
      </trkpt>
      <trkpt lat="48.54547" lon="-1.56734">
        <ele>23</ele>
        <time>2017-01-16T04:14:59Z</time>
      </trkpt>
      <trkpt lat="48.54554" lon="-1.5672">
        <ele>23</ele>
        <time>2017-01-16T04:16:59Z</time>
      </trkpt>
      <trkpt lat="48.5456" lon="-1.56708">
        <ele>23</ele>
        <time>2017-01-16T04:18:59Z</time>
      </trkpt>
      <trkpt lat="48.54575" lon="-1.5669">
        <ele>23</ele>
        <time>2017-01-16T04:20:59Z</time>
      </trkpt>
      <trkpt lat="48.5459" lon="-1.56673">
        <ele>22</ele>
        <time>2017-01-16T04:22:59Z</time>
      </trkpt>
      <trkpt lat="48.54596" lon="-1.56661">
        <ele>22</ele>
        <time>2017-01-16T04:24:59Z</time>
      </trkpt>
      <trkpt lat="48.54593" lon="-1.56647">
        <ele>22</ele>
        <time>2017-01-16T04:26:59Z</time>
      </trkpt>
      <trkpt lat="48.54549" lon="-1.56588">
        <ele>24</ele>
        <time>2017-01-16T04:28:59Z</time>
      </trkpt>
      <trkpt lat="48.54541" lon="-1.56578">
        <ele>25</ele>
        <time>2017-01-16T04:30:59Z</time>
      </trkpt>
      <trkpt lat="48.54539" lon="-1.56564">
        <ele>25</ele>
        <time>2017-01-16T04:32:59Z</time>
      </trkpt>
      <trkpt lat="48.54546" lon="-1.56551">
        <ele>25</ele>
        <time>2017-01-16T04:34:59Z</time>
      </trkpt>
      <trkpt lat="48.5456" lon="-1.56534">
        <ele>24</ele>
        <time>2017-01-16T04:36:59Z</time>
      </trkpt>
      <trkpt lat="48.54567" lon="-1.56522">
        <ele>24</ele>
        <time>2017-01-16T04:38:59Z</time>
      </trkpt>
      <trkpt lat="48.54572" lon="-1.56508">
        <ele>24</ele>
        <time>2017-01-16T04:40:59Z</time>
      </trkpt>
      <trkpt lat="48.54576" lon="-1.56494">
        <ele>24</ele>
        <time>2017-01-16T04:42:59Z</time>
      </trkpt>
      <trkpt lat="48.54581" lon="-1.56481">
        <ele>25</ele>
        <time>2017-01-16T04:44:59Z</time>
      </trkpt>
      <trkpt lat="48.54584" lon="-1.56466">
        <ele>25</ele>
        <time>2017-01-16T04:46:59Z</time>
      </trkpt>
      <trkpt lat="48.54588" lon="-1.56453">
        <ele>25</ele>
        <time>2017-01-16T04:48:59Z</time>
      </trkpt>
      <trkpt lat="48.54591" lon="-1.56439">
        <ele>25</ele>
        <time>2017-01-16T04:50:59Z</time>
      </trkpt>
      <trkpt lat="48.54593" lon="-1.56425">
        <ele>25</ele>
        <time>2017-01-16T04:52:59Z</time>
      </trkpt>
      <trkpt lat="48.54593" lon="-1.56392">
        <ele>26</ele>
        <time>2017-01-16T04:54:59Z</time>
      </trkpt>
      <trkpt lat="48.54595" lon="-1.56375">
        <ele>25</ele>
        <time>2017-01-16T04:56:59Z</time>
      </trkpt>
      <trkpt lat="48.54594" lon="-1.56355">
        <ele>25</ele>
        <time>2017-01-16T04:58:59Z</time>
      </trkpt>
      <trkpt lat="48.54589" lon="-1.56322">
        <ele>25</ele>
        <time>2017-01-16T05:00:59Z</time>
      </trkpt>
      <trkpt lat="48.54581" lon="-1.56293">
        <ele>25</ele>
        <time>2017-01-16T05:02:59Z</time>
      </trkpt>
      <trkpt lat="48.54574" lon="-1.56263">
        <ele>24</ele>
        <time>2017-01-16T05:04:59Z</time>
      </trkpt>
      <trkpt lat="48.54571" lon="-1.56249">
        <ele>24</ele>
        <time>2017-01-16T05:06:59Z</time>
      </trkpt>
      <trkpt lat="48.54568" lon="-1.56236">
        <ele>24</ele>
        <time>2017-01-16T05:08:59Z</time>
      </trkpt>
      <trkpt lat="48.54564" lon="-1.56223">
        <ele>24</ele>
        <time>2017-01-16T05:10:59Z</time>
      </trkpt>
      <trkpt lat="48.54561" lon="-1.56211">
        <ele>24</ele>
        <time>2017-01-16T05:12:59Z</time>
      </trkpt>
      <trkpt lat="48.54558" lon="-1.56198">
        <ele>24</ele>
        <time>2017-01-16T05:14:59Z</time>
      </trkpt>
      <trkpt lat="48.54552" lon="-1.56169">
        <ele>24</ele>
        <time>2017-01-16T05:16:59Z</time>
      </trkpt>
      <trkpt lat="48.54551" lon="-1.56162">
        <ele>24</ele>
        <time>2017-01-16T05:18:59Z</time>
      </trkpt>
      <trkpt lat="48.54553" lon="-1.56151">
        <ele>24</ele>
        <time>2017-01-16T05:20:59Z</time>
      </trkpt>
      <trkpt lat="48.54561" lon="-1.56144">
        <ele>24</ele>
        <time>2017-01-16T05:22:59Z</time>
      </trkpt>
      <trkpt lat="48.54571" lon="-1.56138">
        <ele>24</ele>
        <time>2017-01-16T05:24:59Z</time>
      </trkpt>
      <trkpt lat="48.546" lon="-1.56121">
        <ele>23</ele>
        <time>2017-01-16T05:26:59Z</time>
      </trkpt>
      <trkpt lat="48.54609" lon="-1.56114">
        <ele>23</ele>
        <time>2017-01-16T05:28:59Z</time>
      </trkpt>
      <trkpt lat="48.54618" lon="-1.56108">
        <ele>23</ele>
        <time>2017-01-16T05:30:59Z</time>
      </trkpt>
      <trkpt lat="48.54629" lon="-1.56103">
        <ele>22</ele>
        <time>2017-01-16T05:32:59Z</time>
      </trkpt>
      <trkpt lat="48.54637" lon="-1.56097">
        <ele>22</ele>
        <time>2017-01-16T05:34:59Z</time>
      </trkpt>
      <trkpt lat="48.54647" lon="-1.56091">
        <ele>22</ele>
        <time>2017-01-16T05:36:59Z</time>
      </trkpt>
      <trkpt lat="48.54656" lon="-1.56085">
        <ele>22</ele>
        <time>2017-01-16T05:38:59Z</time>
      </trkpt>
      <trkpt lat="48.54675" lon="-1.56073">
        <ele>22</ele>
        <time>2017-01-16T05:40:59Z</time>
      </trkpt>
      <trkpt lat="48.54693" lon="-1.56062">
        <ele>21</ele>
        <time>2017-01-16T05:42:59Z</time>
      </trkpt>
      <trkpt lat="48.54702" lon="-1.56058">
        <ele>20</ele>
        <time>2017-01-16T05:44:59Z</time>
      </trkpt>
      <trkpt lat="48.5471" lon="-1.56052">
        <ele>20</ele>
        <time>2017-01-16T05:46:59Z</time>
      </trkpt>
      <trkpt lat="48.54728" lon="-1.5604">
        <ele>19</ele>
        <time>2017-01-16T05:48:59Z</time>
      </trkpt>
      <trkpt lat="48.54755" lon="-1.56024">
        <ele>18</ele>
        <time>2017-01-16T05:50:59Z</time>
      </trkpt>
      <trkpt lat="48.54764" lon="-1.56018">
        <ele>17</ele>
        <time>2017-01-16T05:52:59Z</time>
      </trkpt>
      <trkpt lat="48.54773" lon="-1.56011">
        <ele>17</ele>
        <time>2017-01-16T05:54:59Z</time>
      </trkpt>
      <trkpt lat="48.54784" lon="-1.56005">
        <ele>17</ele>
        <time>2017-01-16T05:56:59Z</time>
      </trkpt>
      <trkpt lat="48.54793" lon="-1.55998">
        <ele>17</ele>
        <time>2017-01-16T05:58:59Z</time>
      </trkpt>
      <trkpt lat="48.54803" lon="-1.55993">
        <ele>16</ele>
        <time>2017-01-16T06:00:59Z</time>
      </trkpt>
      <trkpt lat="48.54812" lon="-1.55986">
        <ele>17</ele>
        <time>2017-01-16T06:02:59Z</time>
      </trkpt>
      <trkpt lat="48.54822" lon="-1.5598">
        <ele>17</ele>
        <time>2017-01-16T06:04:59Z</time>
      </trkpt>
      <trkpt lat="48.54831" lon="-1.55973">
        <ele>17</ele>
        <time>2017-01-16T06:06:59Z</time>
      </trkpt>
      <trkpt lat="48.54839" lon="-1.55962">
        <ele>17</ele>
        <time>2017-01-16T06:08:59Z</time>
      </trkpt>
      <trkpt lat="48.54834" lon="-1.5595">
        <ele>17</ele>
        <time>2017-01-16T06:10:59Z</time>
      </trkpt>
      <trkpt lat="48.54827" lon="-1.55941">
        <ele>17</ele>
        <time>2017-01-16T06:12:59Z</time>
      </trkpt>
      <trkpt lat="48.54819" lon="-1.55932">
        <ele>18</ele>
        <time>2017-01-16T06:14:59Z</time>
      </trkpt>
      <trkpt lat="48.54811" lon="-1.55922">
        <ele>18</ele>
        <time>2017-01-16T06:16:59Z</time>
      </trkpt>
      <trkpt lat="48.548" lon="-1.55911">
        <ele>18</ele>
        <time>2017-01-16T06:18:59Z</time>
      </trkpt>
      <trkpt lat="48.54791" lon="-1.559">
        <ele>18</ele>
        <time>2017-01-16T06:20:59Z</time>
      </trkpt>
      <trkpt lat="48.54784" lon="-1.55886">
        <ele>18</ele>
        <time>2017-01-16T06:22:59Z</time>
      </trkpt>
      <trkpt lat="48.54779" lon="-1.5587">
        <ele>18</ele>
        <time>2017-01-16T06:24:59Z</time>
      </trkpt>
      <trkpt lat="48.54763" lon="-1.55802">
        <ele>18</ele>
        <time>2017-01-16T06:26:59Z</time>
      </trkpt>
      <trkpt lat="48.5476" lon="-1.55783">
        <ele>18</ele>
        <time>2017-01-16T06:28:59Z</time>
      </trkpt>
      <trkpt lat="48.54752" lon="-1.55747">
        <ele>18</ele>
        <time>2017-01-16T06:30:59Z</time>
      </trkpt>
      <trkpt lat="48.54749" lon="-1.55729">
        <ele>18</ele>
        <time>2017-01-16T06:32:59Z</time>
      </trkpt>
      <trkpt lat="48.54748" lon="-1.55709">
        <ele>18</ele>
        <time>2017-01-16T06:34:59Z</time>
      </trkpt>
      <trkpt lat="48.54746" lon="-1.55691">
        <ele>18</ele>
        <time>2017-01-16T06:36:59Z</time>
      </trkpt>
      <trkpt lat="48.54743" lon="-1.55657">
        <ele>18</ele>
        <time>2017-01-16T06:38:59Z</time>
      </trkpt>
      <trkpt lat="48.5475" lon="-1.55648">
        <ele>18</ele>
        <time>2017-01-16T06:40:59Z</time>
      </trkpt>
      <trkpt lat="48.54761" lon="-1.55648">
        <ele>19</ele>
        <time>2017-01-16T06:42:59Z</time>
      </trkpt>
      <trkpt lat="48.54776" lon="-1.55647">
        <ele>20</ele>
        <time>2017-01-16T06:44:59Z</time>
      </trkpt>
      <trkpt lat="48.54786" lon="-1.55646">
        <ele>20</ele>
        <time>2017-01-16T06:46:59Z</time>
      </trkpt>
      <trkpt lat="48.54797" lon="-1.55645">
        <ele>21</ele>
        <time>2017-01-16T06:48:59Z</time>
      </trkpt>
      <trkpt lat="48.54807" lon="-1.55643">
        <ele>22</ele>
        <time>2017-01-16T06:50:59Z</time>
      </trkpt>
      <trkpt lat="48.54818" lon="-1.55639">
        <ele>22</ele>
        <time>2017-01-16T06:52:59Z</time>
      </trkpt>
      <trkpt lat="48.54829" lon="-1.55632">
        <ele>23</ele>
        <time>2017-01-16T06:54:59Z</time>
      </trkpt>
      <trkpt lat="48.5484" lon="-1.55626">
        <ele>24</ele>
        <time>2017-01-16T06:56:59Z</time>
      </trkpt>
      <trkpt lat="48.54858" lon="-1.55614">
        <ele>25</ele>
        <time>2017-01-16T06:58:59Z</time>
      </trkpt>
      <trkpt lat="48.54865" lon="-1.55607">
        <ele>25</ele>
        <time>2017-01-16T07:00:59Z</time>
      </trkpt>
      <trkpt lat="48.54872" lon="-1.55593">
        <ele>25</ele>
        <time>2017-01-16T07:02:59Z</time>
      </trkpt>
      <trkpt lat="48.54867" lon="-1.55577">
        <ele>25</ele>
        <time>2017-01-16T07:04:59Z</time>
      </trkpt>
      <trkpt lat="48.54857" lon="-1.55549">
        <ele>25</ele>
        <time>2017-01-16T07:06:59Z</time>
      </trkpt>
      <trkpt lat="48.54845" lon="-1.55519">
        <ele>25</ele>
        <time>2017-01-16T07:08:59Z</time>
      </trkpt>
      <trkpt lat="48.54838" lon="-1.55504">
        <ele>25</ele>
        <time>2017-01-16T07:10:59Z</time>
      </trkpt>
      <trkpt lat="48.54831" lon="-1.5549">
        <ele>25</ele>
        <time>2017-01-16T07:12:59Z</time>
      </trkpt>
      <trkpt lat="48.54824" lon="-1.55476">
        <ele>24</ele>
        <time>2017-01-16T07:14:59Z</time>
      </trkpt>
      <trkpt lat="48.54809" lon="-1.55449">
        <ele>23</ele>
        <time>2017-01-16T07:16:59Z</time>
      </trkpt>
      <trkpt lat="48.54804" lon="-1.55434">
        <ele>22</ele>
        <time>2017-01-16T07:18:59Z</time>
      </trkpt>
      <trkpt lat="48.54802" lon="-1.55418">
        <ele>22</ele>
        <time>2017-01-16T07:20:59Z</time>
      </trkpt>
      <trkpt lat="48.54801" lon="-1.554">
        <ele>22</ele>
        <time>2017-01-16T07:22:59Z</time>
      </trkpt>
      <trkpt lat="48.548" lon="-1.55382">
        <ele>21</ele>
        <time>2017-01-16T07:24:59Z</time>
      </trkpt>
      <trkpt lat="48.54798" lon="-1.55363">
        <ele>21</ele>
        <time>2017-01-16T07:26:59Z</time>
      </trkpt>
      <trkpt lat="48.54797" lon="-1.55344">
        <ele>21</ele>
        <time>2017-01-16T07:28:59Z</time>
      </trkpt>
      <trkpt lat="48.54795" lon="-1.55325">
        <ele>21</ele>
        <time>2017-01-16T07:30:59Z</time>
      </trkpt>
      <trkpt lat="48.54791" lon="-1.55298">
        <ele>21</ele>
        <time>2017-01-16T07:32:59Z</time>
      </trkpt>
      <trkpt lat="48.54788" lon="-1.5528">
        <ele>21</ele>
        <time>2017-01-16T07:34:59Z</time>
      </trkpt>
      <trkpt lat="48.54784" lon="-1.55262">
        <ele>21</ele>
        <time>2017-01-16T07:36:59Z</time>
      </trkpt>
      <trkpt lat="48.5478" lon="-1.55245">
        <ele>20</ele>
        <time>2017-01-16T07:38:59Z</time>
      </trkpt>
      <trkpt lat="48.54771" lon="-1.55212">
        <ele>19</ele>
        <time>2017-01-16T07:40:59Z</time>
      </trkpt>
      <trkpt lat="48.54762" lon="-1.55179">
        <ele>19</ele>
        <time>2017-01-16T07:42:59Z</time>
      </trkpt>
      <trkpt lat="48.54757" lon="-1.55163">
        <ele>18</ele>
        <time>2017-01-16T07:44:59Z</time>
      </trkpt>
      <trkpt lat="48.54748" lon="-1.55131">
        <ele>17</ele>
        <time>2017-01-16T07:46:59Z</time>
      </trkpt>
      <trkpt lat="48.54745" lon="-1.55115">
        <ele>16</ele>
        <time>2017-01-16T07:48:59Z</time>
      </trkpt>
      <trkpt lat="48.54749" lon="-1.55098">
        <ele>16</ele>
        <time>2017-01-16T07:50:59Z</time>
      </trkpt>
      <trkpt lat="48.54758" lon="-1.55089">
        <ele>16</ele>
        <time>2017-01-16T07:52:59Z</time>
      </trkpt>
      <trkpt lat="48.5477" lon="-1.5508">
        <ele>16</ele>
        <time>2017-01-16T07:54:59Z</time>
      </trkpt>
      <trkpt lat="48.54783" lon="-1.55071">
        <ele>17</ele>
        <time>2017-01-16T07:56:59Z</time>
      </trkpt>
      <trkpt lat="48.54817" lon="-1.55044">
        <ele>18</ele>
        <time>2017-01-16T07:58:59Z</time>
      </trkpt>
      <trkpt lat="48.54835" lon="-1.55031">
        <ele>19</ele>
        <time>2017-01-16T08:00:59Z</time>
      </trkpt>
      <trkpt lat="48.54861" lon="-1.55011">
        <ele>20</ele>
        <time>2017-01-16T08:02:59Z</time>
      </trkpt>
      <trkpt lat="48.54878" lon="-1.54999">
        <ele>20</ele>
        <time>2017-01-16T08:04:59Z</time>
      </trkpt>
      <trkpt lat="48.54901" lon="-1.5498">
        <ele>21</ele>
        <time>2017-01-16T08:06:59Z</time>
      </trkpt>
      <trkpt lat="48.54912" lon="-1.54969">
        <ele>21</ele>
        <time>2017-01-16T08:08:59Z</time>
      </trkpt>
      <trkpt lat="48.54935" lon="-1.54951">
        <ele>22</ele>
        <time>2017-01-16T08:10:59Z</time>
      </trkpt>
      <trkpt lat="48.54945" lon="-1.54942">
        <ele>22</ele>
        <time>2017-01-16T08:12:59Z</time>
      </trkpt>
      <trkpt lat="48.54954" lon="-1.54935">
        <ele>22</ele>
        <time>2017-01-16T08:14:59Z</time>
      </trkpt>
      <trkpt lat="48.54972" lon="-1.54921">
        <ele>23</ele>
        <time>2017-01-16T08:16:59Z</time>
      </trkpt>
      <trkpt lat="48.54981" lon="-1.54913">
        <ele>23</ele>
        <time>2017-01-16T08:18:59Z</time>
      </trkpt>
      <trkpt lat="48.5499" lon="-1.54908">
        <ele>24</ele>
        <time>2017-01-16T08:20:59Z</time>
      </trkpt>
      <trkpt lat="48.55" lon="-1.54912">
        <ele>24</ele>
        <time>2017-01-16T08:22:59Z</time>
      </trkpt>
      <trkpt lat="48.55008" lon="-1.5492">
        <ele>24</ele>
        <time>2017-01-16T08:24:59Z</time>
      </trkpt>
      <trkpt lat="48.55015" lon="-1.54932">
        <ele>24</ele>
        <time>2017-01-16T08:26:59Z</time>
      </trkpt>
      <trkpt lat="48.55027" lon="-1.54961">
        <ele>24</ele>
        <time>2017-01-16T08:28:59Z</time>
      </trkpt>
      <trkpt lat="48.55032" lon="-1.54976">
        <ele>25</ele>
        <time>2017-01-16T08:30:59Z</time>
      </trkpt>
      <trkpt lat="48.55037" lon="-1.54992">
        <ele>25</ele>
        <time>2017-01-16T08:32:59Z</time>
      </trkpt>
      <trkpt lat="48.55043" lon="-1.55007">
        <ele>25</ele>
        <time>2017-01-16T08:34:59Z</time>
      </trkpt>
      <trkpt lat="48.55053" lon="-1.55034">
        <ele>26</ele>
        <time>2017-01-16T08:36:59Z</time>
      </trkpt>
      <trkpt lat="48.55054" lon="-1.55037">
        <ele>26</ele>
        <time>2017-01-16T08:38:59Z</time>
      </trkpt>
      <trkpt lat="48.55057" lon="-1.55047">
        <ele>26</ele>
        <time>2017-01-16T08:40:59Z</time>
      </trkpt>
      <trkpt lat="48.55069" lon="-1.55069">
        <ele>27</ele>
        <time>2017-01-16T08:42:59Z</time>
      </trkpt>
      <trkpt lat="48.55078" lon="-1.55078">
        <ele>28</ele>
        <time>2017-01-16T08:44:59Z</time>
      </trkpt>
      <trkpt lat="48.55089" lon="-1.55081">
        <ele>28</ele>
        <time>2017-01-16T08:46:59Z</time>
      </trkpt>
      <trkpt lat="48.55099" lon="-1.55078">
        <ele>28</ele>
        <time>2017-01-16T08:48:59Z</time>
      </trkpt>
      <trkpt lat="48.55121" lon="-1.55068">
        <ele>28</ele>
        <time>2017-01-16T08:50:59Z</time>
      </trkpt>
      <trkpt lat="48.55129" lon="-1.55063">
        <ele>28</ele>
        <time>2017-01-16T08:52:59Z</time>
      </trkpt>
      <trkpt lat="48.55139" lon="-1.55059">
        <ele>28</ele>
        <time>2017-01-16T08:54:59Z</time>
      </trkpt>
      <trkpt lat="48.55149" lon="-1.55056">
        <ele>29</ele>
        <time>2017-01-16T08:56:59Z</time>
      </trkpt>
      <trkpt lat="48.55167" lon="-1.55041">
        <ele>29</ele>
        <time>2017-01-16T08:58:59Z</time>
      </trkpt>
      <trkpt lat="48.55176" lon="-1.55037">
        <ele>29</ele>
        <time>2017-01-16T09:00:59Z</time>
      </trkpt>
      <trkpt lat="48.55185" lon="-1.55031">
        <ele>29</ele>
        <time>2017-01-16T09:02:59Z</time>
      </trkpt>
      <trkpt lat="48.55195" lon="-1.55027">
        <ele>29</ele>
        <time>2017-01-16T09:04:59Z</time>
      </trkpt>
      <trkpt lat="48.55205" lon="-1.55022">
        <ele>29</ele>
        <time>2017-01-16T09:06:59Z</time>
      </trkpt>
      <trkpt lat="48.55214" lon="-1.55019">
        <ele>29</ele>
        <time>2017-01-16T09:08:59Z</time>
      </trkpt>
      <trkpt lat="48.55224" lon="-1.55016">
        <ele>29</ele>
        <time>2017-01-16T09:10:59Z</time>
      </trkpt>
      <trkpt lat="48.55234" lon="-1.5501">
        <ele>29</ele>
        <time>2017-01-16T09:12:59Z</time>
      </trkpt>
      <trkpt lat="48.55245" lon="-1.55007">
        <ele>29</ele>
        <time>2017-01-16T09:14:59Z</time>
      </trkpt>
      <trkpt lat="48.55254" lon="-1.55003">
        <ele>29</ele>
        <time>2017-01-16T09:16:59Z</time>
      </trkpt>
      <trkpt lat="48.55264" lon="-1.55002">
        <ele>29</ele>
        <time>2017-01-16T09:18:59Z</time>
      </trkpt>
      <trkpt lat="48.55276" lon="-1.54997">
        <ele>29</ele>
        <time>2017-01-16T09:20:59Z</time>
      </trkpt>
      <trkpt lat="48.55286" lon="-1.54994">
        <ele>30</ele>
        <time>2017-01-16T09:22:59Z</time>
      </trkpt>
      <trkpt lat="48.55307" lon="-1.54995">
        <ele>30</ele>
        <time>2017-01-16T09:24:59Z</time>
      </trkpt>
      <trkpt lat="48.55315" lon="-1.54994">
        <ele>30</ele>
        <time>2017-01-16T09:26:59Z</time>
      </trkpt>
      <trkpt lat="48.5532" lon="-1.54983">
        <ele>30</ele>
        <time>2017-01-16T09:28:59Z</time>
      </trkpt>
      <trkpt lat="48.55323" lon="-1.54968">
        <ele>30</ele>
        <time>2017-01-16T09:30:59Z</time>
      </trkpt>
      <trkpt lat="48.55323" lon="-1.54953">
        <ele>30</ele>
        <time>2017-01-16T09:32:59Z</time>
      </trkpt>
      <trkpt lat="48.55322" lon="-1.54938">
        <ele>31</ele>
        <time>2017-01-16T09:34:59Z</time>
      </trkpt>
      <trkpt lat="48.55321" lon="-1.54924">
        <ele>31</ele>
        <time>2017-01-16T09:36:59Z</time>
      </trkpt>
      <trkpt lat="48.55321" lon="-1.54909">
        <ele>31</ele>
        <time>2017-01-16T09:38:59Z</time>
      </trkpt>
      <trkpt lat="48.5532" lon="-1.54879">
        <ele>32</ele>
        <time>2017-01-16T09:40:59Z</time>
      </trkpt>
      <trkpt lat="48.55317" lon="-1.54847">
        <ele>32</ele>
        <time>2017-01-16T09:42:59Z</time>
      </trkpt>
      <trkpt lat="48.55315" lon="-1.54802">
        <ele>33</ele>
        <time>2017-01-16T09:44:59Z</time>
      </trkpt>
      <trkpt lat="48.55316" lon="-1.54786">
        <ele>33</ele>
        <time>2017-01-16T09:46:59Z</time>
      </trkpt>
      <trkpt lat="48.55313" lon="-1.54768">
        <ele>33</ele>
        <time>2017-01-16T09:48:59Z</time>
      </trkpt>
      <trkpt lat="48.55309" lon="-1.54749">
        <ele>32</ele>
        <time>2017-01-16T09:50:59Z</time>
      </trkpt>
      <trkpt lat="48.55308" lon="-1.54732">
        <ele>33</ele>
        <time>2017-01-16T09:52:59Z</time>
      </trkpt>
      <trkpt lat="48.55307" lon="-1.54716">
        <ele>33</ele>
        <time>2017-01-16T09:54:59Z</time>
      </trkpt>
      <trkpt lat="48.55301" lon="-1.54683">
        <ele>33</ele>
        <time>2017-01-16T09:56:59Z</time>
      </trkpt>
      <trkpt lat="48.55299" lon="-1.54666">
        <ele>34</ele>
        <time>2017-01-16T09:58:59Z</time>
      </trkpt>
      <trkpt lat="48.55297" lon="-1.54647">
        <ele>34</ele>
        <time>2017-01-16T10:00:59Z</time>
      </trkpt>
      <trkpt lat="48.55293" lon="-1.54627">
        <ele>34</ele>
        <time>2017-01-16T10:02:59Z</time>
      </trkpt>
      <trkpt lat="48.55292" lon="-1.5461">
        <ele>34</ele>
        <time>2017-01-16T10:04:59Z</time>
      </trkpt>
      <trkpt lat="48.5529" lon="-1.54594">
        <ele>34</ele>
        <time>2017-01-16T10:06:59Z</time>
      </trkpt>
      <trkpt lat="48.55287" lon="-1.54579">
        <ele>34</ele>
        <time>2017-01-16T10:08:59Z</time>
      </trkpt>
      <trkpt lat="48.55286" lon="-1.54564">
        <ele>34</ele>
        <time>2017-01-16T10:10:59Z</time>
      </trkpt>
      <trkpt lat="48.55282" lon="-1.54549">
        <ele>35</ele>
        <time>2017-01-16T10:12:59Z</time>
      </trkpt>
      <trkpt lat="48.55281" lon="-1.54534">
        <ele>35</ele>
        <time>2017-01-16T10:14:59Z</time>
      </trkpt>
      <trkpt lat="48.55287" lon="-1.54524">
        <ele>35</ele>
        <time>2017-01-16T10:16:59Z</time>
      </trkpt>
      <trkpt lat="48.55295" lon="-1.54516">
        <ele>35</ele>
        <time>2017-01-16T10:18:59Z</time>
      </trkpt>
      <trkpt lat="48.55306" lon="-1.5451">
        <ele>35</ele>
        <time>2017-01-16T10:20:59Z</time>
      </trkpt>
      <trkpt lat="48.55323" lon="-1.54498">
        <ele>34</ele>
        <time>2017-01-16T10:22:59Z</time>
      </trkpt>
      <trkpt lat="48.55333" lon="-1.54492">
        <ele>34</ele>
        <time>2017-01-16T10:24:59Z</time>
      </trkpt>
      <trkpt lat="48.55343" lon="-1.54486">
        <ele>33</ele>
        <time>2017-01-16T10:26:59Z</time>
      </trkpt>
      <trkpt lat="48.55351" lon="-1.5448">
        <ele>33</ele>
        <time>2017-01-16T10:28:59Z</time>
      </trkpt>
      <trkpt lat="48.5536" lon="-1.54476">
        <ele>33</ele>
        <time>2017-01-16T10:30:59Z</time>
      </trkpt>
      <trkpt lat="48.5537" lon="-1.5447">
        <ele>32</ele>
        <time>2017-01-16T10:32:59Z</time>
      </trkpt>
      <trkpt lat="48.55377" lon="-1.54462">
        <ele>32</ele>
        <time>2017-01-16T10:34:59Z</time>
      </trkpt>
      <trkpt lat="48.55385" lon="-1.54455">
        <ele>32</ele>
        <time>2017-01-16T10:36:59Z</time>
      </trkpt>
      <trkpt lat="48.55395" lon="-1.54448">
        <ele>31</ele>
        <time>2017-01-16T10:38:59Z</time>
      </trkpt>
      <trkpt lat="48.55414" lon="-1.54435">
        <ele>31</ele>
        <time>2017-01-16T10:40:59Z</time>
      </trkpt>
      <trkpt lat="48.5542" lon="-1.54435">
        <ele>30</ele>
        <time>2017-01-16T10:42:59Z</time>
      </trkpt>
      <trkpt lat="48.5543" lon="-1.54429">
        <ele>30</ele>
        <time>2017-01-16T10:44:59Z</time>
      </trkpt>
      <trkpt lat="48.55438" lon="-1.5442">
        <ele>30</ele>
        <time>2017-01-16T10:46:59Z</time>
      </trkpt>
      <trkpt lat="48.55448" lon="-1.54412">
        <ele>30</ele>
        <time>2017-01-16T10:48:59Z</time>
      </trkpt>
      <trkpt lat="48.55466" lon="-1.54398">
        <ele>29</ele>
        <time>2017-01-16T10:50:59Z</time>
      </trkpt>
      <trkpt lat="48.55476" lon="-1.54391">
        <ele>29</ele>
        <time>2017-01-16T10:52:59Z</time>
      </trkpt>
      <trkpt lat="48.55485" lon="-1.54386">
        <ele>29</ele>
        <time>2017-01-16T10:54:59Z</time>
      </trkpt>
      <trkpt lat="48.55503" lon="-1.54371">
        <ele>28</ele>
        <time>2017-01-16T10:56:59Z</time>
      </trkpt>
      <trkpt lat="48.55512" lon="-1.54364">
        <ele>27</ele>
        <time>2017-01-16T10:58:59Z</time>
      </trkpt>
      <trkpt lat="48.55521" lon="-1.54359">
        <ele>27</ele>
        <time>2017-01-16T11:00:59Z</time>
      </trkpt>
      <trkpt lat="48.55531" lon="-1.54354">
        <ele>27</ele>
        <time>2017-01-16T11:02:59Z</time>
      </trkpt>
      <trkpt lat="48.55542" lon="-1.54355">
        <ele>27</ele>
        <time>2017-01-16T11:04:59Z</time>
      </trkpt>
      <trkpt lat="48.55552" lon="-1.54357">
        <ele>27</ele>
        <time>2017-01-16T11:06:59Z</time>
      </trkpt>
      <trkpt lat="48.55562" lon="-1.54361">
        <ele>27</ele>
        <time>2017-01-16T11:08:59Z</time>
      </trkpt>
      <trkpt lat="48.55582" lon="-1.54369">
        <ele>27</ele>
        <time>2017-01-16T11:10:59Z</time>
      </trkpt>
      <trkpt lat="48.55602" lon="-1.54378">
        <ele>27</ele>
        <time>2017-01-16T11:12:59Z</time>
      </trkpt>
      <trkpt lat="48.5562" lon="-1.5439">
        <ele>27</ele>
        <time>2017-01-16T11:14:59Z</time>
      </trkpt>
      <trkpt lat="48.5564" lon="-1.54402">
        <ele>28</ele>
        <time>2017-01-16T11:16:59Z</time>
      </trkpt>
      <trkpt lat="48.55649" lon="-1.54406">
        <ele>28</ele>
        <time>2017-01-16T11:18:59Z</time>
      </trkpt>
      <trkpt lat="48.55658" lon="-1.54408">
        <ele>28</ele>
        <time>2017-01-16T11:20:59Z</time>
      </trkpt>
      <trkpt lat="48.55669" lon="-1.54408">
        <ele>28</ele>
        <time>2017-01-16T11:22:59Z</time>
      </trkpt>
      <trkpt lat="48.55689" lon="-1.54415">
        <ele>27</ele>
        <time>2017-01-16T11:24:59Z</time>
      </trkpt>
      <trkpt lat="48.55699" lon="-1.54417">
        <ele>26</ele>
        <time>2017-01-16T11:26:59Z</time>
      </trkpt>
      <trkpt lat="48.55709" lon="-1.5442">
        <ele>26</ele>
        <time>2017-01-16T11:28:59Z</time>
      </trkpt>
      <trkpt lat="48.55719" lon="-1.5442">
        <ele>25</ele>
        <time>2017-01-16T11:30:59Z</time>
      </trkpt>
      <trkpt lat="48.55729" lon="-1.54423">
        <ele>24</ele>
        <time>2017-01-16T11:32:59Z</time>
      </trkpt>
      <trkpt lat="48.5574" lon="-1.54424">
        <ele>24</ele>
        <time>2017-01-16T11:34:59Z</time>
      </trkpt>
      <trkpt lat="48.5575" lon="-1.54426">
        <ele>23</ele>
        <time>2017-01-16T11:36:59Z</time>
      </trkpt>
      <trkpt lat="48.55761" lon="-1.5443">
        <ele>23</ele>
        <time>2017-01-16T11:38:59Z</time>
      </trkpt>
      <trkpt lat="48.55771" lon="-1.54433">
        <ele>23</ele>
        <time>2017-01-16T11:40:59Z</time>
      </trkpt>
      <trkpt lat="48.5578" lon="-1.54438">
        <ele>22</ele>
        <time>2017-01-16T11:42:59Z</time>
      </trkpt>
      <trkpt lat="48.55791" lon="-1.54442">
        <ele>22</ele>
        <time>2017-01-16T11:44:59Z</time>
      </trkpt>
      <trkpt lat="48.5582" lon="-1.54454">
        <ele>21</ele>
        <time>2017-01-16T11:46:59Z</time>
      </trkpt>
      <trkpt lat="48.5583" lon="-1.54459">
        <ele>21</ele>
        <time>2017-01-16T11:48:59Z</time>
      </trkpt>
      <trkpt lat="48.55839" lon="-1.54463">
        <ele>21</ele>
        <time>2017-01-16T11:50:59Z</time>
      </trkpt>
      <trkpt lat="48.55849" lon="-1.54469">
        <ele>21</ele>
        <time>2017-01-16T11:52:59Z</time>
      </trkpt>
      <trkpt lat="48.55859" lon="-1.54474">
        <ele>20</ele>
        <time>2017-01-16T11:54:59Z</time>
      </trkpt>
      <trkpt lat="48.55879" lon="-1.54484">
        <ele>19</ele>
        <time>2017-01-16T11:56:59Z</time>
      </trkpt>
      <trkpt lat="48.55889" lon="-1.54487">
        <ele>19</ele>
        <time>2017-01-16T11:58:59Z</time>
      </trkpt>
      <trkpt lat="48.55898" lon="-1.54488">
        <ele>19</ele>
        <time>2017-01-16T12:00:59Z</time>
      </trkpt>
      <trkpt lat="48.5591" lon="-1.54488">
        <ele>18</ele>
        <time>2017-01-16T12:02:59Z</time>
      </trkpt>
      <trkpt lat="48.5592" lon="-1.54489">
        <ele>18</ele>
        <time>2017-01-16T12:04:59Z</time>
      </trkpt>
      <trkpt lat="48.55931" lon="-1.54491">
        <ele>17</ele>
        <time>2017-01-16T12:06:59Z</time>
      </trkpt>
      <trkpt lat="48.55941" lon="-1.54489">
        <ele>17</ele>
        <time>2017-01-16T12:08:59Z</time>
      </trkpt>
      <trkpt lat="48.55951" lon="-1.54487">
        <ele>16</ele>
        <time>2017-01-16T12:10:59Z</time>
      </trkpt>
      <trkpt lat="48.55961" lon="-1.54481">
        <ele>16</ele>
        <time>2017-01-16T12:12:59Z</time>
      </trkpt>
      <trkpt lat="48.55968" lon="-1.54472">
        <ele>15</ele>
        <time>2017-01-16T12:14:59Z</time>
      </trkpt>
      <trkpt lat="48.55978" lon="-1.54463">
        <ele>14</ele>
        <time>2017-01-16T12:16:59Z</time>
      </trkpt>
      <trkpt lat="48.55987" lon="-1.54454">
        <ele>14</ele>
        <time>2017-01-16T12:18:59Z</time>
      </trkpt>
      <trkpt lat="48.55996" lon="-1.54446">
        <ele>14</ele>
        <time>2017-01-16T12:20:59Z</time>
      </trkpt>
      <trkpt lat="48.56004" lon="-1.54436">
        <ele>13</ele>
        <time>2017-01-16T12:22:59Z</time>
      </trkpt>
      <trkpt lat="48.56012" lon="-1.54427">
        <ele>12</ele>
        <time>2017-01-16T12:24:59Z</time>
      </trkpt>
      <trkpt lat="48.5602" lon="-1.5442">
        <ele>12</ele>
        <time>2017-01-16T12:26:59Z</time>
      </trkpt>
      <trkpt lat="48.56027" lon="-1.54412">
        <ele>11</ele>
        <time>2017-01-16T12:28:59Z</time>
      </trkpt>
      <trkpt lat="48.56043" lon="-1.54398">
        <ele>10</ele>
        <time>2017-01-16T12:30:59Z</time>
      </trkpt>
      <trkpt lat="48.5605" lon="-1.54391">
        <ele>10</ele>
        <time>2017-01-16T12:32:59Z</time>
      </trkpt>
      <trkpt lat="48.56059" lon="-1.54382">
        <ele>9</ele>
        <time>2017-01-16T12:34:59Z</time>
      </trkpt>
      <trkpt lat="48.56075" lon="-1.54366">
        <ele>8</ele>
        <time>2017-01-16T12:36:59Z</time>
      </trkpt>
      <trkpt lat="48.56084" lon="-1.54359">
        <ele>8</ele>
        <time>2017-01-16T12:38:59Z</time>
      </trkpt>
      <trkpt lat="48.56093" lon="-1.54351">
        <ele>8</ele>
        <time>2017-01-16T12:40:59Z</time>
      </trkpt>
      <trkpt lat="48.5611" lon="-1.54334">
        <ele>7</ele>
        <time>2017-01-16T12:42:59Z</time>
      </trkpt>
      <trkpt lat="48.56118" lon="-1.54326">
        <ele>7</ele>
        <time>2017-01-16T12:44:59Z</time>
      </trkpt>
      <trkpt lat="48.56127" lon="-1.54317">
        <ele>6</ele>
        <time>2017-01-16T12:46:59Z</time>
      </trkpt>
      <trkpt lat="48.56136" lon="-1.54311">
        <ele>6</ele>
        <time>2017-01-16T12:48:59Z</time>
      </trkpt>
      <trkpt lat="48.56146" lon="-1.54312">
        <ele>6</ele>
        <time>2017-01-16T12:50:59Z</time>
      </trkpt>
      <trkpt lat="48.56154" lon="-1.54321">
        <ele>5</ele>
        <time>2017-01-16T12:52:59Z</time>
      </trkpt>
      <trkpt lat="48.56162" lon="-1.54333">
        <ele>5</ele>
        <time>2017-01-16T12:54:59Z</time>
      </trkpt>
      <trkpt lat="48.56166" lon="-1.54345">
        <ele>5</ele>
        <time>2017-01-16T12:56:59Z</time>
      </trkpt>
      <trkpt lat="48.56168" lon="-1.54359">
        <ele>6</ele>
        <time>2017-01-16T12:58:59Z</time>
      </trkpt>
      <trkpt lat="48.56169" lon="-1.54375">
        <ele>6</ele>
        <time>2017-01-16T13:00:59Z</time>
      </trkpt>
      <trkpt lat="48.56164" lon="-1.54402">
        <ele>7</ele>
        <time>2017-01-16T13:02:59Z</time>
      </trkpt>
      <trkpt lat="48.56163" lon="-1.54416">
        <ele>7</ele>
        <time>2017-01-16T13:04:59Z</time>
      </trkpt>
      <trkpt lat="48.56164" lon="-1.5443">
        <ele>7</ele>
        <time>2017-01-16T13:06:59Z</time>
      </trkpt>
      <trkpt lat="48.56168" lon="-1.54442">
        <ele>7</ele>
        <time>2017-01-16T13:08:59Z</time>
      </trkpt>
      <trkpt lat="48.56176" lon="-1.54451">
        <ele>7</ele>
        <time>2017-01-16T13:10:59Z</time>
      </trkpt>
      <trkpt lat="48.56185" lon="-1.54458">
        <ele>7</ele>
        <time>2017-01-16T13:12:59Z</time>
      </trkpt>
      <trkpt lat="48.56194" lon="-1.54461">
        <ele>7</ele>
        <time>2017-01-16T13:14:59Z</time>
      </trkpt>
      <trkpt lat="48.56203" lon="-1.5446">
        <ele>7</ele>
        <time>2017-01-16T13:16:59Z</time>
      </trkpt>
      <trkpt lat="48.56212" lon="-1.54457">
        <ele>7</ele>
        <time>2017-01-16T13:18:59Z</time>
      </trkpt>
      <trkpt lat="48.5623" lon="-1.54447">
        <ele>7</ele>
        <time>2017-01-16T13:20:59Z</time>
      </trkpt>
      <trkpt lat="48.56251" lon="-1.54449">
        <ele>7</ele>
        <time>2017-01-16T13:22:59Z</time>
      </trkpt>
      <trkpt lat="48.56261" lon="-1.5445">
        <ele>7</ele>
        <time>2017-01-16T13:24:59Z</time>
      </trkpt>
      <trkpt lat="48.56271" lon="-1.54452">
        <ele>6</ele>
        <time>2017-01-16T13:26:59Z</time>
      </trkpt>
      <trkpt lat="48.56277" lon="-1.5446">
        <ele>6</ele>
        <time>2017-01-16T13:28:59Z</time>
      </trkpt>
      <trkpt lat="48.56282" lon="-1.54474">
        <ele>6</ele>
        <time>2017-01-16T13:30:59Z</time>
      </trkpt>
      <trkpt lat="48.56282" lon="-1.54489">
        <ele>7</ele>
        <time>2017-01-16T13:32:59Z</time>
      </trkpt>
      <trkpt lat="48.56276" lon="-1.54502">
        <ele>7</ele>
        <time>2017-01-16T13:34:59Z</time>
      </trkpt>
      <trkpt lat="48.5627" lon="-1.54514">
        <ele>7</ele>
        <time>2017-01-16T13:36:59Z</time>
      </trkpt>
      <trkpt lat="48.56265" lon="-1.54526">
        <ele>7</ele>
        <time>2017-01-16T13:38:59Z</time>
      </trkpt>
      <trkpt lat="48.56262" lon="-1.5454">
        <ele>7</ele>
        <time>2017-01-16T13:40:59Z</time>
      </trkpt>
      <trkpt lat="48.56261" lon="-1.54554">
        <ele>7</ele>
        <time>2017-01-16T13:42:59Z</time>
      </trkpt>
      <trkpt lat="48.56262" lon="-1.54569">
        <ele>7</ele>
        <time>2017-01-16T13:44:59Z</time>
      </trkpt>
      <trkpt lat="48.56264" lon="-1.54583">
        <ele>7</ele>
        <time>2017-01-16T13:46:59Z</time>
      </trkpt>
      <trkpt lat="48.56265" lon="-1.54599">
        <ele>8</ele>
        <time>2017-01-16T13:48:59Z</time>
      </trkpt>
      <trkpt lat="48.56266" lon="-1.54612">
        <ele>8</ele>
        <time>2017-01-16T13:50:59Z</time>
      </trkpt>
      <trkpt lat="48.56268" lon="-1.54626">
        <ele>8</ele>
        <time>2017-01-16T13:52:59Z</time>
      </trkpt>
      <trkpt lat="48.56272" lon="-1.54655">
        <ele>9</ele>
        <time>2017-01-16T13:54:59Z</time>
      </trkpt>
      <trkpt lat="48.56274" lon="-1.54668">
        <ele>10</ele>
        <time>2017-01-16T13:56:59Z</time>
      </trkpt>
      <trkpt lat="48.56275" lon="-1.54683">
        <ele>10</ele>
        <time>2017-01-16T13:58:59Z</time>
      </trkpt>
      <trkpt lat="48.56276" lon="-1.54698">
        <ele>11</ele>
        <time>2017-01-16T14:00:59Z</time>
      </trkpt>
      <trkpt lat="48.56277" lon="-1.54711">
        <ele>11</ele>
        <time>2017-01-16T14:02:59Z</time>
      </trkpt>
      <trkpt lat="48.56278" lon="-1.54725">
        <ele>12</ele>
        <time>2017-01-16T14:04:59Z</time>
      </trkpt>
      <trkpt lat="48.5628" lon="-1.5474">
        <ele>12</ele>
        <time>2017-01-16T14:06:59Z</time>
      </trkpt>
      <trkpt lat="48.56283" lon="-1.54755">
        <ele>13</ele>
        <time>2017-01-16T14:08:59Z</time>
      </trkpt>
      <trkpt lat="48.56285" lon="-1.5477">
        <ele>13</ele>
        <time>2017-01-16T14:10:59Z</time>
      </trkpt>
      <trkpt lat="48.56289" lon="-1.54784">
        <ele>14</ele>
        <time>2017-01-16T14:12:59Z</time>
      </trkpt>
      <trkpt lat="48.56296" lon="-1.54795">
        <ele>14</ele>
        <time>2017-01-16T14:14:59Z</time>
      </trkpt>
      <trkpt lat="48.56304" lon="-1.54805">
        <ele>14</ele>
        <time>2017-01-16T14:16:59Z</time>
      </trkpt>
      <trkpt lat="48.56314" lon="-1.54808">
        <ele>14</ele>
        <time>2017-01-16T14:18:59Z</time>
      </trkpt>
      <trkpt lat="48.56324" lon="-1.54809">
        <ele>14</ele>
        <time>2017-01-16T14:20:59Z</time>
      </trkpt>
      <trkpt lat="48.56335" lon="-1.54812">
        <ele>14</ele>
        <time>2017-01-16T14:22:59Z</time>
      </trkpt>
      <trkpt lat="48.56344" lon="-1.54813">
        <ele>14</ele>
        <time>2017-01-16T14:24:59Z</time>
      </trkpt>
      <trkpt lat="48.56364" lon="-1.54812">
        <ele>13</ele>
        <time>2017-01-16T14:26:59Z</time>
      </trkpt>
      <trkpt lat="48.56384" lon="-1.54808">
        <ele>13</ele>
        <time>2017-01-16T14:28:59Z</time>
      </trkpt>
      <trkpt lat="48.56394" lon="-1.54805">
        <ele>13</ele>
        <time>2017-01-16T14:30:59Z</time>
      </trkpt>
      <trkpt lat="48.56402" lon="-1.54801">
        <ele>12</ele>
        <time>2017-01-16T14:32:59Z</time>
      </trkpt>
      <trkpt lat="48.5642" lon="-1.54793">
        <ele>12</ele>
        <time>2017-01-16T14:34:59Z</time>
      </trkpt>
      <trkpt lat="48.56439" lon="-1.54787">
        <ele>12</ele>
        <time>2017-01-16T14:36:59Z</time>
      </trkpt>
      <trkpt lat="48.56448" lon="-1.54785">
        <ele>11</ele>
        <time>2017-01-16T14:38:59Z</time>
      </trkpt>
      <trkpt lat="48.56467" lon="-1.54783">
        <ele>11</ele>
        <time>2017-01-16T14:40:59Z</time>
      </trkpt>
      <trkpt lat="48.56476" lon="-1.54785">
        <ele>11</ele>
        <time>2017-01-16T14:42:59Z</time>
      </trkpt>
      <trkpt lat="48.56486" lon="-1.54785">
        <ele>11</ele>
        <time>2017-01-16T14:44:59Z</time>
      </trkpt>
      <trkpt lat="48.56497" lon="-1.54786">
        <ele>10</ele>
        <time>2017-01-16T14:46:59Z</time>
      </trkpt>
      <trkpt lat="48.56506" lon="-1.54787">
        <ele>11</ele>
        <time>2017-01-16T14:48:59Z</time>
      </trkpt>
      <trkpt lat="48.56514" lon="-1.5479">
        <ele>11</ele>
        <time>2017-01-16T14:50:59Z</time>
      </trkpt>
      <trkpt lat="48.56523" lon="-1.54792">
        <ele>11</ele>
        <time>2017-01-16T14:52:59Z</time>
      </trkpt>
      <trkpt lat="48.56534" lon="-1.54792">
        <ele>11</ele>
        <time>2017-01-16T14:54:59Z</time>
      </trkpt>
      <trkpt lat="48.56544" lon="-1.54794">
        <ele>11</ele>
        <time>2017-01-16T14:56:59Z</time>
      </trkpt>
      <trkpt lat="48.56555" lon="-1.54798">
        <ele>11</ele>
        <time>2017-01-16T14:58:59Z</time>
      </trkpt>
      <trkpt lat="48.56564" lon="-1.54802">
        <ele>11</ele>
        <time>2017-01-16T15:00:59Z</time>
      </trkpt>
      <trkpt lat="48.56586" lon="-1.54807">
        <ele>12</ele>
        <time>2017-01-16T15:02:59Z</time>
      </trkpt>
      <trkpt lat="48.56607" lon="-1.5481">
        <ele>13</ele>
        <time>2017-01-16T15:04:59Z</time>
      </trkpt>
      <trkpt lat="48.56617" lon="-1.54811">
        <ele>13</ele>
        <time>2017-01-16T15:06:59Z</time>
      </trkpt>
      <trkpt lat="48.56626" lon="-1.54815">
        <ele>14</ele>
        <time>2017-01-16T15:08:59Z</time>
      </trkpt>
      <trkpt lat="48.56636" lon="-1.54816">
        <ele>14</ele>
        <time>2017-01-16T15:10:59Z</time>
      </trkpt>
      <trkpt lat="48.56645" lon="-1.54818">
        <ele>15</ele>
        <time>2017-01-16T15:12:59Z</time>
      </trkpt>
      <trkpt lat="48.56657" lon="-1.54818">
        <ele>15</ele>
        <time>2017-01-16T15:14:59Z</time>
      </trkpt>
      <trkpt lat="48.56667" lon="-1.54818">
        <ele>16</ele>
        <time>2017-01-16T15:16:59Z</time>
      </trkpt>
      <trkpt lat="48.56676" lon="-1.54821">
        <ele>16</ele>
        <time>2017-01-16T15:18:59Z</time>
      </trkpt>
      <trkpt lat="48.56685" lon="-1.54824">
        <ele>17</ele>
        <time>2017-01-16T15:20:59Z</time>
      </trkpt>
      <trkpt lat="48.56695" lon="-1.54825">
        <ele>17</ele>
        <time>2017-01-16T15:22:59Z</time>
      </trkpt>
      <trkpt lat="48.56705" lon="-1.54828">
        <ele>18</ele>
        <time>2017-01-16T15:24:59Z</time>
      </trkpt>
      <trkpt lat="48.56716" lon="-1.5483">
        <ele>18</ele>
        <time>2017-01-16T15:26:59Z</time>
      </trkpt>
      <trkpt lat="48.56725" lon="-1.5483">
        <ele>19</ele>
        <time>2017-01-16T15:28:59Z</time>
      </trkpt>
      <trkpt lat="48.56735" lon="-1.54832">
        <ele>19</ele>
        <time>2017-01-16T15:30:59Z</time>
      </trkpt>
      <trkpt lat="48.56744" lon="-1.54833">
        <ele>20</ele>
        <time>2017-01-16T15:32:59Z</time>
      </trkpt>
      <trkpt lat="48.56754" lon="-1.54838">
        <ele>20</ele>
        <time>2017-01-16T15:34:59Z</time>
      </trkpt>
      <trkpt lat="48.56765" lon="-1.5484">
        <ele>21</ele>
        <time>2017-01-16T15:36:59Z</time>
      </trkpt>
      <trkpt lat="48.56775" lon="-1.54843">
        <ele>21</ele>
        <time>2017-01-16T15:38:59Z</time>
      </trkpt>
      <trkpt lat="48.56785" lon="-1.54841">
        <ele>22</ele>
        <time>2017-01-16T15:40:59Z</time>
      </trkpt>
      <trkpt lat="48.56794" lon="-1.54842">
        <ele>22</ele>
        <time>2017-01-16T15:42:59Z</time>
      </trkpt>
      <trkpt lat="48.56804" lon="-1.54845">
        <ele>23</ele>
        <time>2017-01-16T15:44:59Z</time>
      </trkpt>
      <trkpt lat="48.5683" lon="-1.54854">
        <ele>24</ele>
        <time>2017-01-16T15:46:59Z</time>
      </trkpt>
      <trkpt lat="48.56843" lon="-1.54858">
        <ele>24</ele>
        <time>2017-01-16T15:48:59Z</time>
      </trkpt>
      <trkpt lat="48.56863" lon="-1.54863">
        <ele>24</ele>
        <time>2017-01-16T15:50:59Z</time>
      </trkpt>
      <trkpt lat="48.56871" lon="-1.54869">
        <ele>24</ele>
        <time>2017-01-16T15:52:59Z</time>
      </trkpt>
      <trkpt lat="48.56878" lon="-1.54878">
        <ele>23</ele>
        <time>2017-01-16T15:54:59Z</time>
      </trkpt>
      <trkpt lat="48.56887" lon="-1.54886">
        <ele>23</ele>
        <time>2017-01-16T15:56:59Z</time>
      </trkpt>
      <trkpt lat="48.56902" lon="-1.54904">
        <ele>23</ele>
        <time>2017-01-16T15:58:59Z</time>
      </trkpt>
      <trkpt lat="48.56902" lon="-1.5491">
        <ele>23</ele>
        <time>2017-01-16T16:00:59Z</time>
      </trkpt>
      <trkpt lat="48.56898" lon="-1.54908">
        <ele>23</ele>
        <time>2017-01-16T16:02:59Z</time>
      </trkpt>
      <trkpt lat="48.56895" lon="-1.54898">
        <ele>23</ele>
        <time>2017-01-16T16:04:59Z</time>
      </trkpt>
      <trkpt lat="48.56887" lon="-1.54893">
        <ele>23</ele>
        <time>2017-01-16T16:06:59Z</time>
      </trkpt>
      <trkpt lat="48.5688" lon="-1.54885">
        <ele>23</ele>
        <time>2017-01-16T16:08:59Z</time>
      </trkpt>
      <trkpt lat="48.56873" lon="-1.54875">
        <ele>23</ele>
        <time>2017-01-16T16:10:59Z</time>
      </trkpt>
      <trkpt lat="48.56865" lon="-1.54867">
        <ele>24</ele>
        <time>2017-01-16T16:12:59Z</time>
      </trkpt>
      <trkpt lat="48.56857" lon="-1.54859">
        <ele>24</ele>
        <time>2017-01-16T16:14:59Z</time>
      </trkpt>
      <trkpt lat="48.56852" lon="-1.54848">
        <ele>24</ele>
        <time>2017-01-16T16:16:59Z</time>
      </trkpt>
      <trkpt lat="48.56854" lon="-1.54831">
        <ele>24</ele>
        <time>2017-01-16T16:18:59Z</time>
      </trkpt>
      <trkpt lat="48.56855" lon="-1.54815">
        <ele>23</ele>
        <time>2017-01-16T16:20:59Z</time>
      </trkpt>
      <trkpt lat="48.56856" lon="-1.548">
        <ele>22</ele>
        <time>2017-01-16T16:22:59Z</time>
      </trkpt>
      <trkpt lat="48.56855" lon="-1.54789">
        <ele>21</ele>
        <time>2017-01-16T16:24:59Z</time>
      </trkpt>
      <trkpt lat="48.56851" lon="-1.54776">
        <ele>20</ele>
        <time>2017-01-16T16:26:59Z</time>
      </trkpt>
      <trkpt lat="48.5685" lon="-1.54777">
        <ele>20</ele>
        <time>2017-01-16T16:28:59Z</time>
      </trkpt>
      <trkpt lat="48.56841" lon="-1.54771">
        <ele>20</ele>
        <time>2017-01-16T16:30:59Z</time>
      </trkpt>
      <trkpt lat="48.5683" lon="-1.5477">
        <ele>19</ele>
        <time>2017-01-16T16:32:59Z</time>
      </trkpt>
      <trkpt lat="48.56818" lon="-1.54774">
        <ele>19</ele>
        <time>2017-01-16T16:34:59Z</time>
      </trkpt>
      <trkpt lat="48.56806" lon="-1.54772">
        <ele>19</ele>
        <time>2017-01-16T16:36:59Z</time>
      </trkpt>
      <trkpt lat="48.56797" lon="-1.54769">
        <ele>19</ele>
        <time>2017-01-16T16:38:59Z</time>
      </trkpt>
      <trkpt lat="48.56792" lon="-1.54757">
        <ele>18</ele>
        <time>2017-01-16T16:40:59Z</time>
      </trkpt>
      <trkpt lat="48.56793" lon="-1.54743">
        <ele>17</ele>
        <time>2017-01-16T16:42:59Z</time>
      </trkpt>
      <trkpt lat="48.56799" lon="-1.5473">
        <ele>16</ele>
        <time>2017-01-16T16:44:59Z</time>
      </trkpt>
      <trkpt lat="48.56803" lon="-1.54715">
        <ele>15</ele>
        <time>2017-01-16T16:46:59Z</time>
      </trkpt>
      <trkpt lat="48.56808" lon="-1.54703">
        <ele>14</ele>
        <time>2017-01-16T16:48:59Z</time>
      </trkpt>
      <trkpt lat="48.56813" lon="-1.54693">
        <ele>14</ele>
        <time>2017-01-16T16:50:59Z</time>
      </trkpt>
      <trkpt lat="48.56819" lon="-1.54672">
        <ele>12</ele>
        <time>2017-01-16T16:52:59Z</time>
      </trkpt>
      <trkpt lat="48.56828" lon="-1.54655">
        <ele>11</ele>
        <time>2017-01-16T16:54:59Z</time>
      </trkpt>
      <trkpt lat="48.56841" lon="-1.54643">
        <ele>11</ele>
        <time>2017-01-16T16:56:59Z</time>
      </trkpt>
      <trkpt lat="48.56849" lon="-1.54633">
        <ele>10</ele>
        <time>2017-01-16T16:58:59Z</time>
      </trkpt>
      <trkpt lat="48.56858" lon="-1.54624">
        <ele>9</ele>
        <time>2017-01-16T17:00:59Z</time>
      </trkpt>
      <trkpt lat="48.56866" lon="-1.54617">
        <ele>9</ele>
        <time>2017-01-16T17:02:59Z</time>
      </trkpt>
      <trkpt lat="48.56874" lon="-1.54611">
        <ele>8</ele>
        <time>2017-01-16T17:04:59Z</time>
      </trkpt>
      <trkpt lat="48.56884" lon="-1.54606">
        <ele>8</ele>
        <time>2017-01-16T17:06:59Z</time>
      </trkpt>
      <trkpt lat="48.56893" lon="-1.546">
        <ele>8</ele>
        <time>2017-01-16T17:08:59Z</time>
      </trkpt>
      <trkpt lat="48.5689" lon="-1.54586">
        <ele>7</ele>
        <time>2017-01-16T17:10:59Z</time>
      </trkpt>
      <trkpt lat="48.56893" lon="-1.54593">
        <ele>7</ele>
        <time>2017-01-16T17:12:59Z</time>
      </trkpt>
      <trkpt lat="48.56896" lon="-1.54607">
        <ele>8</ele>
        <time>2017-01-16T17:14:59Z</time>
      </trkpt>
      <trkpt lat="48.56896" lon="-1.5462">
        <ele>9</ele>
        <time>2017-01-16T17:16:59Z</time>
      </trkpt>
      <trkpt lat="48.56898" lon="-1.54614">
        <ele>9</ele>
        <time>2017-01-16T17:18:59Z</time>
      </trkpt>
      <trkpt lat="48.569" lon="-1.54599">
        <ele>8</ele>
        <time>2017-01-16T17:20:59Z</time>
      </trkpt>
      <trkpt lat="48.56901" lon="-1.5459">
        <ele>7</ele>
        <time>2017-01-16T17:22:59Z</time>
      </trkpt>
      <trkpt lat="48.56908" lon="-1.54588">
        <ele>7</ele>
        <time>2017-01-16T17:24:59Z</time>
      </trkpt>
      <trkpt lat="48.56919" lon="-1.54596">
        <ele>8</ele>
        <time>2017-01-16T17:26:59Z</time>
      </trkpt>
      <trkpt lat="48.56927" lon="-1.5461">
        <ele>8</ele>
        <time>2017-01-16T17:28:59Z</time>
      </trkpt>
      <trkpt lat="48.56943" lon="-1.54635">
        <ele>9</ele>
        <time>2017-01-16T17:30:59Z</time>
      </trkpt>
      <trkpt lat="48.56949" lon="-1.54646">
        <ele>9</ele>
        <time>2017-01-16T17:32:59Z</time>
      </trkpt>
      <trkpt lat="48.56955" lon="-1.54661">
        <ele>9</ele>
        <time>2017-01-16T17:34:59Z</time>
      </trkpt>
      <trkpt lat="48.56961" lon="-1.54673">
        <ele>9</ele>
        <time>2017-01-16T17:36:59Z</time>
      </trkpt>
      <trkpt lat="48.5697" lon="-1.54688">
        <ele>10</ele>
        <time>2017-01-16T17:38:59Z</time>
      </trkpt>
      <trkpt lat="48.56993" lon="-1.54718">
        <ele>9</ele>
        <time>2017-01-16T17:40:59Z</time>
      </trkpt>
      <trkpt lat="48.56994" lon="-1.54732">
        <ele>10</ele>
        <time>2017-01-16T17:42:59Z</time>
      </trkpt>
      <trkpt lat="48.5699" lon="-1.54747">
        <ele>11</ele>
        <time>2017-01-16T17:44:59Z</time>
      </trkpt>
      <trkpt lat="48.56988" lon="-1.54762">
        <ele>12</ele>
        <time>2017-01-16T17:46:59Z</time>
      </trkpt>
      <trkpt lat="48.56986" lon="-1.54772">
        <ele>13</ele>
        <time>2017-01-16T17:48:59Z</time>
      </trkpt>
      <trkpt lat="48.56987" lon="-1.54786">
        <ele>13</ele>
        <time>2017-01-16T17:50:59Z</time>
      </trkpt>
      <trkpt lat="48.56988" lon="-1.548">
        <ele>14</ele>
        <time>2017-01-16T17:52:59Z</time>
      </trkpt>
      <trkpt lat="48.56986" lon="-1.5482">
        <ele>15</ele>
        <time>2017-01-16T17:54:59Z</time>
      </trkpt>
      <trkpt lat="48.56983" lon="-1.54844">
        <ele>16</ele>
        <time>2017-01-16T17:56:59Z</time>
      </trkpt>
      <trkpt lat="48.56975" lon="-1.54863">
        <ele>17</ele>
        <time>2017-01-16T17:58:59Z</time>
      </trkpt>
      <trkpt lat="48.5697" lon="-1.54885">
        <ele>17</ele>
        <time>2017-01-16T18:00:59Z</time>
      </trkpt>
      <trkpt lat="48.56967" lon="-1.549">
        <ele>17</ele>
        <time>2017-01-16T18:02:59Z</time>
      </trkpt>
      <trkpt lat="48.56962" lon="-1.54912">
        <ele>18</ele>
        <time>2017-01-16T18:04:59Z</time>
      </trkpt>
      <trkpt lat="48.56955" lon="-1.54924">
        <ele>18</ele>
        <time>2017-01-16T18:06:59Z</time>
      </trkpt>
      <trkpt lat="48.56944" lon="-1.54932">
        <ele>19</ele>
        <time>2017-01-16T18:08:59Z</time>
      </trkpt>
      <trkpt lat="48.56932" lon="-1.5494">
        <ele>20</ele>
        <time>2017-01-16T18:10:59Z</time>
      </trkpt>
      <trkpt lat="48.56926" lon="-1.54954">
        <ele>21</ele>
        <time>2017-01-16T18:12:59Z</time>
      </trkpt>
      <trkpt lat="48.56926" lon="-1.5497">
        <ele>20</ele>
        <time>2017-01-16T18:14:59Z</time>
      </trkpt>
      <trkpt lat="48.56929" lon="-1.54991">
        <ele>19</ele>
        <time>2017-01-16T18:16:59Z</time>
      </trkpt>
      <trkpt lat="48.56931" lon="-1.55014">
        <ele>18</ele>
        <time>2017-01-16T18:18:59Z</time>
      </trkpt>
      <trkpt lat="48.56933" lon="-1.55039">
        <ele>17</ele>
        <time>2017-01-16T18:20:59Z</time>
      </trkpt>
      <trkpt lat="48.56934" lon="-1.55055">
        <ele>17</ele>
        <time>2017-01-16T18:22:59Z</time>
      </trkpt>
      <trkpt lat="48.56936" lon="-1.55071">
        <ele>16</ele>
        <time>2017-01-16T18:24:59Z</time>
      </trkpt>
      <trkpt lat="48.56939" lon="-1.55085">
        <ele>15</ele>
        <time>2017-01-16T18:26:59Z</time>
      </trkpt>
      <trkpt lat="48.56942" lon="-1.551">
        <ele>15</ele>
        <time>2017-01-16T18:28:59Z</time>
      </trkpt>
      <trkpt lat="48.56945" lon="-1.55114">
        <ele>14</ele>
        <time>2017-01-16T18:30:59Z</time>
      </trkpt>
      <trkpt lat="48.56945" lon="-1.55155">
        <ele>14</ele>
        <time>2017-01-16T18:32:59Z</time>
      </trkpt>
      <trkpt lat="48.56947" lon="-1.55173">
        <ele>14</ele>
        <time>2017-01-16T18:34:59Z</time>
      </trkpt>
      <trkpt lat="48.56948" lon="-1.55189">
        <ele>14</ele>
        <time>2017-01-16T18:36:59Z</time>
      </trkpt>
      <trkpt lat="48.56948" lon="-1.55209">
        <ele>13</ele>
        <time>2017-01-16T18:38:59Z</time>
      </trkpt>
      <trkpt lat="48.56946" lon="-1.55225">
        <ele>14</ele>
        <time>2017-01-16T18:40:59Z</time>
      </trkpt>
      <trkpt lat="48.56948" lon="-1.55242">
        <ele>13</ele>
        <time>2017-01-16T18:42:59Z</time>
      </trkpt>
      <trkpt lat="48.56949" lon="-1.55255">
        <ele>13</ele>
        <time>2017-01-16T18:44:59Z</time>
      </trkpt>
      <trkpt lat="48.56949" lon="-1.55285">
        <ele>12</ele>
        <time>2017-01-16T18:46:59Z</time>
      </trkpt>
      <trkpt lat="48.5695" lon="-1.55301">
        <ele>12</ele>
        <time>2017-01-16T18:48:59Z</time>
      </trkpt>
      <trkpt lat="48.56953" lon="-1.55317">
        <ele>11</ele>
        <time>2017-01-16T18:50:59Z</time>
      </trkpt>
      <trkpt lat="48.56959" lon="-1.55341">
        <ele>10</ele>
        <time>2017-01-16T18:52:59Z</time>
      </trkpt>
      <trkpt lat="48.5696" lon="-1.55351">
        <ele>10</ele>
        <time>2017-01-16T18:54:59Z</time>
      </trkpt>
      <trkpt lat="48.56958" lon="-1.55362">
        <ele>10</ele>
        <time>2017-01-16T18:56:59Z</time>
      </trkpt>
      <trkpt lat="48.56961" lon="-1.55374">
        <ele>10</ele>
        <time>2017-01-16T18:58:59Z</time>
      </trkpt>
      <trkpt lat="48.56959" lon="-1.55393">
        <ele>10</ele>
        <time>2017-01-16T19:00:59Z</time>
      </trkpt>
      <trkpt lat="48.5696" lon="-1.55418">
        <ele>10</ele>
        <time>2017-01-16T19:02:59Z</time>
      </trkpt>
      <trkpt lat="48.56963" lon="-1.55435">
        <ele>11</ele>
        <time>2017-01-16T19:04:59Z</time>
      </trkpt>
      <trkpt lat="48.56966" lon="-1.55466">
        <ele>11</ele>
        <time>2017-01-16T19:06:59Z</time>
      </trkpt>
      <trkpt lat="48.56966" lon="-1.55482">
        <ele>12</ele>
        <time>2017-01-16T19:08:59Z</time>
      </trkpt>
      <trkpt lat="48.56969" lon="-1.55542">
        <ele>12</ele>
        <time>2017-01-16T19:10:59Z</time>
      </trkpt>
      <trkpt lat="48.5697" lon="-1.55575">
        <ele>12</ele>
        <time>2017-01-16T19:12:59Z</time>
      </trkpt>
      <trkpt lat="48.56972" lon="-1.55606">
        <ele>12</ele>
        <time>2017-01-16T19:14:59Z</time>
      </trkpt>
      <trkpt lat="48.5697" lon="-1.5562">
        <ele>13</ele>
        <time>2017-01-16T19:16:59Z</time>
      </trkpt>
      <trkpt lat="48.56969" lon="-1.55651">
        <ele>13</ele>
        <time>2017-01-16T19:18:59Z</time>
      </trkpt>
      <trkpt lat="48.56967" lon="-1.5568">
        <ele>13</ele>
        <time>2017-01-16T19:20:59Z</time>
      </trkpt>
      <trkpt lat="48.56966" lon="-1.55695">
        <ele>14</ele>
        <time>2017-01-16T19:22:59Z</time>
      </trkpt>
      <trkpt lat="48.56966" lon="-1.55711">
        <ele>14</ele>
        <time>2017-01-16T19:24:59Z</time>
      </trkpt>
      <trkpt lat="48.56965" lon="-1.55727">
        <ele>14</ele>
        <time>2017-01-16T19:26:59Z</time>
      </trkpt>
      <trkpt lat="48.56962" lon="-1.55739">
        <ele>14</ele>
        <time>2017-01-16T19:28:59Z</time>
      </trkpt>
      <trkpt lat="48.56958" lon="-1.55766">
        <ele>15</ele>
        <time>2017-01-16T19:30:59Z</time>
      </trkpt>
      <trkpt lat="48.56957" lon="-1.55781">
        <ele>15</ele>
        <time>2017-01-16T19:32:59Z</time>
      </trkpt>
      <trkpt lat="48.56957" lon="-1.55793">
        <ele>15</ele>
        <time>2017-01-16T19:34:59Z</time>
      </trkpt>
      <trkpt lat="48.56955" lon="-1.55822">
        <ele>16</ele>
        <time>2017-01-16T19:36:59Z</time>
      </trkpt>
      <trkpt lat="48.56953" lon="-1.55837">
        <ele>16</ele>
        <time>2017-01-16T19:38:59Z</time>
      </trkpt>
      <trkpt lat="48.56952" lon="-1.55851">
        <ele>17</ele>
        <time>2017-01-16T19:40:59Z</time>
      </trkpt>
      <trkpt lat="48.56951" lon="-1.55865">
        <ele>17</ele>
        <time>2017-01-16T19:42:59Z</time>
      </trkpt>
      <trkpt lat="48.56946" lon="-1.55894">
        <ele>17</ele>
        <time>2017-01-16T19:44:59Z</time>
      </trkpt>
      <trkpt lat="48.56944" lon="-1.55909">
        <ele>18</ele>
        <time>2017-01-16T19:46:59Z</time>
      </trkpt>
      <trkpt lat="48.5694" lon="-1.55924">
        <ele>18</ele>
        <time>2017-01-16T19:48:59Z</time>
      </trkpt>
      <trkpt lat="48.56938" lon="-1.55938">
        <ele>18</ele>
        <time>2017-01-16T19:50:59Z</time>
      </trkpt>
      <trkpt lat="48.56934" lon="-1.55954">
        <ele>18</ele>
        <time>2017-01-16T19:52:59Z</time>
      </trkpt>
      <trkpt lat="48.56928" lon="-1.55981">
        <ele>18</ele>
        <time>2017-01-16T19:54:59Z</time>
      </trkpt>
      <trkpt lat="48.56925" lon="-1.55995">
        <ele>18</ele>
        <time>2017-01-16T19:56:59Z</time>
      </trkpt>
      <trkpt lat="48.56922" lon="-1.56011">
        <ele>17</ele>
        <time>2017-01-16T19:58:59Z</time>
      </trkpt>
      <trkpt lat="48.56918" lon="-1.56024">
        <ele>17</ele>
        <time>2017-01-16T20:00:59Z</time>
      </trkpt>
      <trkpt lat="48.56916" lon="-1.56038">
        <ele>16</ele>
        <time>2017-01-16T20:02:59Z</time>
      </trkpt>
      <trkpt lat="48.56914" lon="-1.56055">
        <ele>15</ele>
        <time>2017-01-16T20:04:59Z</time>
      </trkpt>
      <trkpt lat="48.5691" lon="-1.56069">
        <ele>15</ele>
        <time>2017-01-16T20:06:59Z</time>
      </trkpt>
      <trkpt lat="48.56907" lon="-1.56082">
        <ele>15</ele>
        <time>2017-01-16T20:08:59Z</time>
      </trkpt>
      <trkpt lat="48.56904" lon="-1.56096">
        <ele>14</ele>
        <time>2017-01-16T20:10:59Z</time>
      </trkpt>
      <trkpt lat="48.56901" lon="-1.56112">
        <ele>14</ele>
        <time>2017-01-16T20:12:59Z</time>
      </trkpt>
      <trkpt lat="48.56899" lon="-1.56127">
        <ele>14</ele>
        <time>2017-01-16T20:14:59Z</time>
      </trkpt>
      <trkpt lat="48.56896" lon="-1.56142">
        <ele>14</ele>
        <time>2017-01-16T20:16:59Z</time>
      </trkpt>
      <trkpt lat="48.56893" lon="-1.56156">
        <ele>15</ele>
        <time>2017-01-16T20:18:59Z</time>
      </trkpt>
      <trkpt lat="48.56891" lon="-1.56172">
        <ele>14</ele>
        <time>2017-01-16T20:20:59Z</time>
      </trkpt>
      <trkpt lat="48.56891" lon="-1.56187">
        <ele>14</ele>
        <time>2017-01-16T20:22:59Z</time>
      </trkpt>
      <trkpt lat="48.56891" lon="-1.56203">
        <ele>14</ele>
        <time>2017-01-16T20:24:59Z</time>
      </trkpt>
      <trkpt lat="48.56893" lon="-1.56219">
        <ele>13</ele>
        <time>2017-01-16T20:26:59Z</time>
      </trkpt>
      <trkpt lat="48.56892" lon="-1.56232">
        <ele>13</ele>
        <time>2017-01-16T20:28:59Z</time>
      </trkpt>
      <trkpt lat="48.56891" lon="-1.56247">
        <ele>13</ele>
        <time>2017-01-16T20:30:59Z</time>
      </trkpt>
      <trkpt lat="48.56896" lon="-1.56261">
        <ele>12</ele>
        <time>2017-01-16T20:32:59Z</time>
      </trkpt>
      <trkpt lat="48.56903" lon="-1.56274">
        <ele>12</ele>
        <time>2017-01-16T20:34:59Z</time>
      </trkpt>
      <trkpt lat="48.56911" lon="-1.56284">
        <ele>12</ele>
        <time>2017-01-16T20:36:59Z</time>
      </trkpt>
      <trkpt lat="48.56921" lon="-1.56289">
        <ele>12</ele>
        <time>2017-01-16T20:38:59Z</time>
      </trkpt>
      <trkpt lat="48.5694" lon="-1.56299">
        <ele>12</ele>
        <time>2017-01-16T20:40:59Z</time>
      </trkpt>
      <trkpt lat="48.56949" lon="-1.56303">
        <ele>12</ele>
        <time>2017-01-16T20:42:59Z</time>
      </trkpt>
      <trkpt lat="48.5697" lon="-1.56309">
        <ele>12</ele>
        <time>2017-01-16T20:44:59Z</time>
      </trkpt>
      <trkpt lat="48.5698" lon="-1.56312">
        <ele>12</ele>
        <time>2017-01-16T20:46:59Z</time>
      </trkpt>
      <trkpt lat="48.5699" lon="-1.56316">
        <ele>12</ele>
        <time>2017-01-16T20:48:59Z</time>
      </trkpt>
      <trkpt lat="48.57" lon="-1.5632">
        <ele>13</ele>
        <time>2017-01-16T20:50:59Z</time>
      </trkpt>
      <trkpt lat="48.57011" lon="-1.56324">
        <ele>13</ele>
        <time>2017-01-16T20:52:59Z</time>
      </trkpt>
      <trkpt lat="48.5702" lon="-1.56329">
        <ele>13</ele>
        <time>2017-01-16T20:54:59Z</time>
      </trkpt>
      <trkpt lat="48.5703" lon="-1.56333">
        <ele>13</ele>
        <time>2017-01-16T20:56:59Z</time>
      </trkpt>
      <trkpt lat="48.57049" lon="-1.56345">
        <ele>14</ele>
        <time>2017-01-16T20:58:59Z</time>
      </trkpt>
      <trkpt lat="48.57058" lon="-1.56352">
        <ele>14</ele>
        <time>2017-01-16T21:00:59Z</time>
      </trkpt>
      <trkpt lat="48.57067" lon="-1.56361">
        <ele>15</ele>
        <time>2017-01-16T21:02:59Z</time>
      </trkpt>
      <trkpt lat="48.57085" lon="-1.56376">
        <ele>16</ele>
        <time>2017-01-16T21:04:59Z</time>
      </trkpt>
      <trkpt lat="48.57093" lon="-1.56386">
        <ele>16</ele>
        <time>2017-01-16T21:06:59Z</time>
      </trkpt>
      <trkpt lat="48.57103" lon="-1.56394">
        <ele>16</ele>
        <time>2017-01-16T21:08:59Z</time>
      </trkpt>
      <trkpt lat="48.57112" lon="-1.56404">
        <ele>16</ele>
        <time>2017-01-16T21:10:59Z</time>
      </trkpt>
      <trkpt lat="48.57121" lon="-1.56412">
        <ele>16</ele>
        <time>2017-01-16T21:12:59Z</time>
      </trkpt>
      <trkpt lat="48.57137" lon="-1.56431">
        <ele>17</ele>
        <time>2017-01-16T21:14:59Z</time>
      </trkpt>
      <trkpt lat="48.57146" lon="-1.56438">
        <ele>17</ele>
        <time>2017-01-16T21:16:59Z</time>
      </trkpt>
      <trkpt lat="48.57155" lon="-1.56447">
        <ele>17</ele>
        <time>2017-01-16T21:18:59Z</time>
      </trkpt>
      <trkpt lat="48.57165" lon="-1.56453">
        <ele>17</ele>
        <time>2017-01-16T21:20:59Z</time>
      </trkpt>
      <trkpt lat="48.57183" lon="-1.56469">
        <ele>17</ele>
        <time>2017-01-16T21:22:59Z</time>
      </trkpt>
      <trkpt lat="48.57191" lon="-1.56476">
        <ele>18</ele>
        <time>2017-01-16T21:24:59Z</time>
      </trkpt>
      <trkpt lat="48.57209" lon="-1.56493">
        <ele>18</ele>
        <time>2017-01-16T21:26:59Z</time>
      </trkpt>
      <trkpt lat="48.57227" lon="-1.56509">
        <ele>18</ele>
        <time>2017-01-16T21:28:59Z</time>
      </trkpt>
      <trkpt lat="48.57237" lon="-1.56517">
        <ele>19</ele>
        <time>2017-01-16T21:30:59Z</time>
      </trkpt>
      <trkpt lat="48.57245" lon="-1.56522">
        <ele>19</ele>
        <time>2017-01-16T21:32:59Z</time>
      </trkpt>
      <trkpt lat="48.57254" lon="-1.5653">
        <ele>19</ele>
        <time>2017-01-16T21:34:59Z</time>
      </trkpt>
      <trkpt lat="48.57272" lon="-1.56545">
        <ele>19</ele>
        <time>2017-01-16T21:36:59Z</time>
      </trkpt>
      <trkpt lat="48.57281" lon="-1.56554">
        <ele>19</ele>
        <time>2017-01-16T21:38:59Z</time>
      </trkpt>
      <trkpt lat="48.5729" lon="-1.5656">
        <ele>19</ele>
        <time>2017-01-16T21:40:59Z</time>
      </trkpt>
      <trkpt lat="48.57299" lon="-1.56568">
        <ele>18</ele>
        <time>2017-01-16T21:42:59Z</time>
      </trkpt>
      <trkpt lat="48.57325" lon="-1.56589">
        <ele>18</ele>
        <time>2017-01-16T21:44:59Z</time>
      </trkpt>
      <trkpt lat="48.57335" lon="-1.56597">
        <ele>18</ele>
        <time>2017-01-16T21:46:59Z</time>
      </trkpt>
      <trkpt lat="48.57342" lon="-1.56605">
        <ele>18</ele>
        <time>2017-01-16T21:48:59Z</time>
      </trkpt>
      <trkpt lat="48.57352" lon="-1.56614">
        <ele>18</ele>
        <time>2017-01-16T21:50:59Z</time>
      </trkpt>
      <trkpt lat="48.57361" lon="-1.56623">
        <ele>19</ele>
        <time>2017-01-16T21:52:59Z</time>
      </trkpt>
      <trkpt lat="48.57379" lon="-1.56637">
        <ele>19</ele>
        <time>2017-01-16T21:54:59Z</time>
      </trkpt>
      <trkpt lat="48.57398" lon="-1.56648">
        <ele>19</ele>
        <time>2017-01-16T21:56:59Z</time>
      </trkpt>
      <trkpt lat="48.5741" lon="-1.56654">
        <ele>19</ele>
        <time>2017-01-16T21:58:59Z</time>
      </trkpt>
      <trkpt lat="48.57421" lon="-1.56657">
        <ele>18</ele>
        <time>2017-01-16T22:00:59Z</time>
      </trkpt>
      <trkpt lat="48.57434" lon="-1.56659">
        <ele>18</ele>
        <time>2017-01-16T22:02:59Z</time>
      </trkpt>
      <trkpt lat="48.57445" lon="-1.56661">
        <ele>17</ele>
        <time>2017-01-16T22:04:59Z</time>
      </trkpt>
      <trkpt lat="48.57457" lon="-1.56658">
        <ele>16</ele>
        <time>2017-01-16T22:06:59Z</time>
      </trkpt>
      <trkpt lat="48.57468" lon="-1.56657">
        <ele>15</ele>
        <time>2017-01-16T22:08:59Z</time>
      </trkpt>
      <trkpt lat="48.57477" lon="-1.56655">
        <ele>15</ele>
        <time>2017-01-16T22:10:59Z</time>
      </trkpt>
      <trkpt lat="48.57488" lon="-1.56656">
        <ele>14</ele>
        <time>2017-01-16T22:12:59Z</time>
      </trkpt>
      <trkpt lat="48.57497" lon="-1.56658">
        <ele>14</ele>
        <time>2017-01-16T22:14:59Z</time>
      </trkpt>
      <trkpt lat="48.57508" lon="-1.56663">
        <ele>13</ele>
        <time>2017-01-16T22:16:59Z</time>
      </trkpt>
      <trkpt lat="48.57517" lon="-1.56667">
        <ele>13</ele>
        <time>2017-01-16T22:18:59Z</time>
      </trkpt>
      <trkpt lat="48.57525" lon="-1.56673">
        <ele>13</ele>
        <time>2017-01-16T22:20:59Z</time>
      </trkpt>
      <trkpt lat="48.57535" lon="-1.5668">
        <ele>13</ele>
        <time>2017-01-16T22:22:59Z</time>
      </trkpt>
      <trkpt lat="48.57543" lon="-1.5669">
        <ele>13</ele>
        <time>2017-01-16T22:24:59Z</time>
      </trkpt>
      <trkpt lat="48.5755" lon="-1.567">
        <ele>13</ele>
        <time>2017-01-16T22:26:59Z</time>
      </trkpt>
      <trkpt lat="48.57561" lon="-1.56702">
        <ele>13</ele>
        <time>2017-01-16T22:28:59Z</time>
      </trkpt>
      <trkpt lat="48.57573" lon="-1.56703">
        <ele>12</ele>
        <time>2017-01-16T22:30:59Z</time>
      </trkpt>
      <trkpt lat="48.57582" lon="-1.56702">
        <ele>12</ele>
        <time>2017-01-16T22:32:59Z</time>
      </trkpt>
      <trkpt lat="48.57592" lon="-1.56705">
        <ele>12</ele>
        <time>2017-01-16T22:34:59Z</time>
      </trkpt>
      <trkpt lat="48.57601" lon="-1.5671">
        <ele>12</ele>
        <time>2017-01-16T22:36:59Z</time>
      </trkpt>
      <trkpt lat="48.57611" lon="-1.56713">
        <ele>12</ele>
        <time>2017-01-16T22:38:59Z</time>
      </trkpt>
      <trkpt lat="48.57638" lon="-1.56728">
        <ele>13</ele>
        <time>2017-01-16T22:40:59Z</time>
      </trkpt>
      <trkpt lat="48.57657" lon="-1.56742">
        <ele>13</ele>
        <time>2017-01-16T22:42:59Z</time>
      </trkpt>
      <trkpt lat="48.57668" lon="-1.56749">
        <ele>14</ele>
        <time>2017-01-16T22:44:59Z</time>
      </trkpt>
      <trkpt lat="48.57697" lon="-1.5677">
        <ele>16</ele>
        <time>2017-01-16T22:46:59Z</time>
      </trkpt>
      <trkpt lat="48.57717" lon="-1.56784">
        <ele>17</ele>
        <time>2017-01-16T22:48:59Z</time>
      </trkpt>
      <trkpt lat="48.57727" lon="-1.56789">
        <ele>17</ele>
        <time>2017-01-16T22:50:59Z</time>
      </trkpt>
      <trkpt lat="48.57746" lon="-1.56802">
        <ele>18</ele>
        <time>2017-01-16T22:52:59Z</time>
      </trkpt>
      <trkpt lat="48.57756" lon="-1.56809">
        <ele>18</ele>
        <time>2017-01-16T22:54:59Z</time>
      </trkpt>
      <trkpt lat="48.57775" lon="-1.56816">
        <ele>18</ele>
        <time>2017-01-16T22:56:59Z</time>
      </trkpt>
      <trkpt lat="48.57785" lon="-1.56822">
        <ele>18</ele>
        <time>2017-01-16T22:58:59Z</time>
      </trkpt>
      <trkpt lat="48.57794" lon="-1.56826">
        <ele>18</ele>
        <time>2017-01-16T23:00:59Z</time>
      </trkpt>
      <trkpt lat="48.57803" lon="-1.56829">
        <ele>18</ele>
        <time>2017-01-16T23:02:59Z</time>
      </trkpt>
      <trkpt lat="48.57821" lon="-1.56837">
        <ele>18</ele>
        <time>2017-01-16T23:04:59Z</time>
      </trkpt>
      <trkpt lat="48.57831" lon="-1.56843">
        <ele>18</ele>
        <time>2017-01-16T23:06:59Z</time>
      </trkpt>
      <trkpt lat="48.57841" lon="-1.5685">
        <ele>18</ele>
        <time>2017-01-16T23:08:59Z</time>
      </trkpt>
      <trkpt lat="48.5785" lon="-1.56854">
        <ele>19</ele>
        <time>2017-01-16T23:10:59Z</time>
      </trkpt>
      <trkpt lat="48.57861" lon="-1.56859">
        <ele>19</ele>
        <time>2017-01-16T23:12:59Z</time>
      </trkpt>
      <trkpt lat="48.57869" lon="-1.56863">
        <ele>19</ele>
        <time>2017-01-16T23:14:59Z</time>
      </trkpt>
      <trkpt lat="48.57879" lon="-1.56868">
        <ele>20</ele>
        <time>2017-01-16T23:16:59Z</time>
      </trkpt>
      <trkpt lat="48.57887" lon="-1.56872">
        <ele>20</ele>
        <time>2017-01-16T23:18:59Z</time>
      </trkpt>
      <trkpt lat="48.57897" lon="-1.56878">
        <ele>20</ele>
        <time>2017-01-16T23:20:59Z</time>
      </trkpt>
      <trkpt lat="48.57906" lon="-1.56884">
        <ele>20</ele>
        <time>2017-01-16T23:22:59Z</time>
      </trkpt>
      <trkpt lat="48.57934" lon="-1.56903">
        <ele>21</ele>
        <time>2017-01-16T23:24:59Z</time>
      </trkpt>
      <trkpt lat="48.57943" lon="-1.5691">
        <ele>22</ele>
        <time>2017-01-16T23:26:59Z</time>
      </trkpt>
      <trkpt lat="48.57952" lon="-1.56916">
        <ele>22</ele>
        <time>2017-01-16T23:28:59Z</time>
      </trkpt>
      <trkpt lat="48.57961" lon="-1.56924">
        <ele>22</ele>
        <time>2017-01-16T23:30:59Z</time>
      </trkpt>
      <trkpt lat="48.57988" lon="-1.56947">
        <ele>23</ele>
        <time>2017-01-16T23:32:59Z</time>
      </trkpt>
      <trkpt lat="48.58007" lon="-1.56961">
        <ele>23</ele>
        <time>2017-01-16T23:34:59Z</time>
      </trkpt>
      <trkpt lat="48.58016" lon="-1.56969">
        <ele>23</ele>
        <time>2017-01-16T23:36:59Z</time>
      </trkpt>
      <trkpt lat="48.58024" lon="-1.56977">
        <ele>24</ele>
        <time>2017-01-16T23:38:59Z</time>
      </trkpt>
      <trkpt lat="48.58044" lon="-1.56992">
        <ele>25</ele>
        <time>2017-01-16T23:40:59Z</time>
      </trkpt>
      <trkpt lat="48.58052" lon="-1.56999">
        <ele>25</ele>
        <time>2017-01-16T23:42:59Z</time>
      </trkpt>
      <trkpt lat="48.58061" lon="-1.57003">
        <ele>25</ele>
        <time>2017-01-16T23:44:59Z</time>
      </trkpt>
      <trkpt lat="48.58071" lon="-1.57011">
        <ele>25</ele>
        <time>2017-01-16T23:46:59Z</time>
      </trkpt>
      <trkpt lat="48.58079" lon="-1.5702">
        <ele>26</ele>
        <time>2017-01-16T23:48:59Z</time>
      </trkpt>
      <trkpt lat="48.58087" lon="-1.57027">
        <ele>26</ele>
        <time>2017-01-16T23:50:59Z</time>
      </trkpt>
      <trkpt lat="48.58096" lon="-1.57034">
        <ele>26</ele>
        <time>2017-01-16T23:52:59Z</time>
      </trkpt>
      <trkpt lat="48.58115" lon="-1.57046">
        <ele>26</ele>
        <time>2017-01-16T23:54:59Z</time>
      </trkpt>
      <trkpt lat="48.58124" lon="-1.57053">
        <ele>26</ele>
        <time>2017-01-16T23:56:59Z</time>
      </trkpt>
      <trkpt lat="48.58134" lon="-1.57057">
        <ele>26</ele>
        <time>2017-01-16T23:58:59Z</time>
      </trkpt>
      <trkpt lat="48.58144" lon="-1.57061">
        <ele>26</ele>
        <time>2017-01-17T00:00:59Z</time>
      </trkpt>
      <trkpt lat="48.58166" lon="-1.57072">
        <ele>25</ele>
        <time>2017-01-17T00:02:59Z</time>
      </trkpt>
      <trkpt lat="48.58177" lon="-1.57079">
        <ele>25</ele>
        <time>2017-01-17T00:04:59Z</time>
      </trkpt>
      <trkpt lat="48.58186" lon="-1.57091">
        <ele>25</ele>
        <time>2017-01-17T00:06:59Z</time>
      </trkpt>
      <trkpt lat="48.58191" lon="-1.57107">
        <ele>25</ele>
        <time>2017-01-17T00:08:59Z</time>
      </trkpt>
      <trkpt lat="48.58195" lon="-1.57123">
        <ele>26</ele>
        <time>2017-01-17T00:10:59Z</time>
      </trkpt>
      <trkpt lat="48.58197" lon="-1.57136">
        <ele>26</ele>
        <time>2017-01-17T00:12:59Z</time>
      </trkpt>
      <trkpt lat="48.58199" lon="-1.57154">
        <ele>26</ele>
        <time>2017-01-17T00:14:59Z</time>
      </trkpt>
      <trkpt lat="48.58202" lon="-1.57169">
        <ele>26</ele>
        <time>2017-01-17T00:16:59Z</time>
      </trkpt>
      <trkpt lat="48.58204" lon="-1.57183">
        <ele>26</ele>
        <time>2017-01-17T00:18:59Z</time>
      </trkpt>
      <trkpt lat="48.58205" lon="-1.57201">
        <ele>27</ele>
        <time>2017-01-17T00:20:59Z</time>
      </trkpt>
      <trkpt lat="48.58206" lon="-1.57216">
        <ele>28</ele>
        <time>2017-01-17T00:22:59Z</time>
      </trkpt>
      <trkpt lat="48.58208" lon="-1.57233">
        <ele>28</ele>
        <time>2017-01-17T00:24:59Z</time>
      </trkpt>
      <trkpt lat="48.58211" lon="-1.57248">
        <ele>28</ele>
        <time>2017-01-17T00:26:59Z</time>
      </trkpt>
      <trkpt lat="48.58211" lon="-1.57264">
        <ele>29</ele>
        <time>2017-01-17T00:28:59Z</time>
      </trkpt>
      <trkpt lat="48.58214" lon="-1.57279">
        <ele>29</ele>
        <time>2017-01-17T00:30:59Z</time>
      </trkpt>
      <trkpt lat="48.5822" lon="-1.5731">
        <ele>29</ele>
        <time>2017-01-17T00:32:59Z</time>
      </trkpt>
      <trkpt lat="48.58224" lon="-1.57341">
        <ele>30</ele>
        <time>2017-01-17T00:34:59Z</time>
      </trkpt>
      <trkpt lat="48.58228" lon="-1.57356">
        <ele>30</ele>
        <time>2017-01-17T00:36:59Z</time>
      </trkpt>
      <trkpt lat="48.58229" lon="-1.57371">
        <ele>31</ele>
        <time>2017-01-17T00:38:59Z</time>
      </trkpt>
      <trkpt lat="48.58231" lon="-1.57387">
        <ele>32</ele>
        <time>2017-01-17T00:40:59Z</time>
      </trkpt>
      <trkpt lat="48.58233" lon="-1.57406">
        <ele>33</ele>
        <time>2017-01-17T00:42:59Z</time>
      </trkpt>
      <trkpt lat="48.58242" lon="-1.57438">
        <ele>33</ele>
        <time>2017-01-17T00:44:59Z</time>
      </trkpt>
      <trkpt lat="48.58244" lon="-1.57456">
        <ele>33</ele>
        <time>2017-01-17T00:46:59Z</time>
      </trkpt>
      <trkpt lat="48.58247" lon="-1.57473">
        <ele>32</ele>
        <time>2017-01-17T00:48:59Z</time>
      </trkpt>
      <trkpt lat="48.58251" lon="-1.57491">
        <ele>32</ele>
        <time>2017-01-17T00:50:59Z</time>
      </trkpt>
      <trkpt lat="48.58247" lon="-1.57515">
        <ele>32</ele>
        <time>2017-01-17T00:52:59Z</time>
      </trkpt>
      <trkpt lat="48.5824" lon="-1.57534">
        <ele>32</ele>
        <time>2017-01-17T00:54:59Z</time>
      </trkpt>
      <trkpt lat="48.5823" lon="-1.57549">
        <ele>34</ele>
        <time>2017-01-17T00:56:59Z</time>
      </trkpt>
      <trkpt lat="48.58221" lon="-1.57558">
        <ele>36</ele>
        <time>2017-01-17T00:58:59Z</time>
      </trkpt>
      <trkpt lat="48.58213" lon="-1.57568">
        <ele>37</ele>
        <time>2017-01-17T01:00:59Z</time>
      </trkpt>
      <trkpt lat="48.58202" lon="-1.57578">
        <ele>39</ele>
        <time>2017-01-17T01:02:59Z</time>
      </trkpt>
      <trkpt lat="48.5818" lon="-1.57597">
        <ele>44</ele>
        <time>2017-01-17T01:04:59Z</time>
      </trkpt>
      <trkpt lat="48.58174" lon="-1.57612">
        <ele>45</ele>
        <time>2017-01-17T01:06:59Z</time>
      </trkpt>
      <trkpt lat="48.58165" lon="-1.57626">
        <ele>46</ele>
        <time>2017-01-17T01:08:59Z</time>
      </trkpt>
      <trkpt lat="48.58168" lon="-1.57641">
        <ele>45</ele>
        <time>2017-01-17T01:10:59Z</time>
      </trkpt>
      <trkpt lat="48.58162" lon="-1.57654">
        <ele>46</ele>
        <time>2017-01-17T01:12:59Z</time>
      </trkpt>
      <trkpt lat="48.58155" lon="-1.57668">
        <ele>46</ele>
        <time>2017-01-17T01:14:59Z</time>
      </trkpt>
      <trkpt lat="48.58151" lon="-1.57681">
        <ele>47</ele>
        <time>2017-01-17T01:16:59Z</time>
      </trkpt>
      <trkpt lat="48.58146" lon="-1.57696">
        <ele>48</ele>
        <time>2017-01-17T01:18:59Z</time>
      </trkpt>
      <trkpt lat="48.58141" lon="-1.57711">
        <ele>49</ele>
        <time>2017-01-17T01:20:59Z</time>
      </trkpt>
      <trkpt lat="48.58137" lon="-1.57726">
        <ele>50</ele>
        <time>2017-01-17T01:22:59Z</time>
      </trkpt>
      <trkpt lat="48.58134" lon="-1.57741">
        <ele>51</ele>
        <time>2017-01-17T01:24:59Z</time>
      </trkpt>
      <trkpt lat="48.58131" lon="-1.57757">
        <ele>52</ele>
        <time>2017-01-17T01:26:59Z</time>
      </trkpt>
      <trkpt lat="48.58131" lon="-1.57773">
        <ele>52</ele>
        <time>2017-01-17T01:28:59Z</time>
      </trkpt>
      <trkpt lat="48.58131" lon="-1.57787">
        <ele>53</ele>
        <time>2017-01-17T01:30:59Z</time>
      </trkpt>
      <trkpt lat="48.58136" lon="-1.57805">
        <ele>54</ele>
        <time>2017-01-17T01:32:59Z</time>
      </trkpt>
      <trkpt lat="48.58144" lon="-1.57818">
        <ele>54</ele>
        <time>2017-01-17T01:34:59Z</time>
      </trkpt>
      <trkpt lat="48.58154" lon="-1.57824">
        <ele>53</ele>
        <time>2017-01-17T01:36:59Z</time>
      </trkpt>
      <trkpt lat="48.58186" lon="-1.57837">
        <ele>53</ele>
        <time>2017-01-17T01:38:59Z</time>
      </trkpt>
      <trkpt lat="48.58197" lon="-1.57843">
        <ele>53</ele>
        <time>2017-01-17T01:40:59Z</time>
      </trkpt>
      <trkpt lat="48.58207" lon="-1.5785">
        <ele>54</ele>
        <time>2017-01-17T01:42:59Z</time>
      </trkpt>
      <trkpt lat="48.58234" lon="-1.5788">
        <ele>56</ele>
        <time>2017-01-17T01:44:59Z</time>
      </trkpt>
      <trkpt lat="48.58243" lon="-1.57892">
        <ele>57</ele>
        <time>2017-01-17T01:46:59Z</time>
      </trkpt>
      <trkpt lat="48.58252" lon="-1.57903">
        <ele>58</ele>
        <time>2017-01-17T01:48:59Z</time>
      </trkpt>
      <trkpt lat="48.58261" lon="-1.57913">
        <ele>58</ele>
        <time>2017-01-17T01:50:59Z</time>
      </trkpt>
      <trkpt lat="48.58267" lon="-1.57925">
        <ele>58</ele>
        <time>2017-01-17T01:52:59Z</time>
      </trkpt>
      <trkpt lat="48.58274" lon="-1.57937">
        <ele>58</ele>
        <time>2017-01-17T01:54:59Z</time>
      </trkpt>
      <trkpt lat="48.58281" lon="-1.57949">
        <ele>58</ele>
        <time>2017-01-17T01:56:59Z</time>
      </trkpt>
      <trkpt lat="48.5829" lon="-1.57958">
        <ele>59</ele>
        <time>2017-01-17T01:58:59Z</time>
      </trkpt>
      <trkpt lat="48.58298" lon="-1.57967">
        <ele>59</ele>
        <time>2017-01-17T02:00:59Z</time>
      </trkpt>
      <trkpt lat="48.58305" lon="-1.57977">
        <ele>59</ele>
        <time>2017-01-17T02:02:59Z</time>
      </trkpt>
      <trkpt lat="48.58313" lon="-1.57985">
        <ele>59</ele>
        <time>2017-01-17T02:04:59Z</time>
      </trkpt>
      <trkpt lat="48.58322" lon="-1.57996">
        <ele>60</ele>
        <time>2017-01-17T02:06:59Z</time>
      </trkpt>
      <trkpt lat="48.58331" lon="-1.58003">
        <ele>60</ele>
        <time>2017-01-17T02:08:59Z</time>
      </trkpt>
      <trkpt lat="48.58337" lon="-1.58011">
        <ele>60</ele>
        <time>2017-01-17T02:10:59Z</time>
      </trkpt>
      <trkpt lat="48.58345" lon="-1.58021">
        <ele>59</ele>
        <time>2017-01-17T02:12:59Z</time>
      </trkpt>
      <trkpt lat="48.58352" lon="-1.58029">
        <ele>59</ele>
        <time>2017-01-17T02:14:59Z</time>
      </trkpt>
      <trkpt lat="48.58367" lon="-1.58049">
        <ele>58</ele>
        <time>2017-01-17T02:16:59Z</time>
      </trkpt>
      <trkpt lat="48.58375" lon="-1.58056">
        <ele>58</ele>
        <time>2017-01-17T02:18:59Z</time>
      </trkpt>
      <trkpt lat="48.58393" lon="-1.58078">
        <ele>57</ele>
        <time>2017-01-17T02:20:59Z</time>
      </trkpt>
      <trkpt lat="48.584" lon="-1.58089">
        <ele>57</ele>
        <time>2017-01-17T02:22:59Z</time>
      </trkpt>
      <trkpt lat="48.58407" lon="-1.58105">
        <ele>57</ele>
        <time>2017-01-17T02:24:59Z</time>
      </trkpt>
      <trkpt lat="48.58415" lon="-1.58115">
        <ele>58</ele>
        <time>2017-01-17T02:26:59Z</time>
      </trkpt>
      <trkpt lat="48.58421" lon="-1.58126">
        <ele>58</ele>
        <time>2017-01-17T02:28:59Z</time>
      </trkpt>
      <trkpt lat="48.58429" lon="-1.58138">
        <ele>58</ele>
        <time>2017-01-17T02:30:59Z</time>
      </trkpt>
      <trkpt lat="48.58443" lon="-1.58164">
        <ele>59</ele>
        <time>2017-01-17T02:32:59Z</time>
      </trkpt>
      <trkpt lat="48.5845" lon="-1.58175">
        <ele>60</ele>
        <time>2017-01-17T02:34:59Z</time>
      </trkpt>
      <trkpt lat="48.58456" lon="-1.58186">
        <ele>60</ele>
        <time>2017-01-17T02:36:59Z</time>
      </trkpt>
      <trkpt lat="48.58463" lon="-1.58198">
        <ele>60</ele>
        <time>2017-01-17T02:38:59Z</time>
      </trkpt>
      <trkpt lat="48.5847" lon="-1.5821">
        <ele>61</ele>
        <time>2017-01-17T02:40:59Z</time>
      </trkpt>
      <trkpt lat="48.58477" lon="-1.58221">
        <ele>61</ele>
        <time>2017-01-17T02:42:59Z</time>
      </trkpt>
      <trkpt lat="48.58484" lon="-1.58233">
        <ele>62</ele>
        <time>2017-01-17T02:44:59Z</time>
      </trkpt>
      <trkpt lat="48.58491" lon="-1.58243">
        <ele>62</ele>
        <time>2017-01-17T02:46:59Z</time>
      </trkpt>
      <trkpt lat="48.58504" lon="-1.58269">
        <ele>63</ele>
        <time>2017-01-17T02:48:59Z</time>
      </trkpt>
      <trkpt lat="48.58505" lon="-1.58277">
        <ele>63</ele>
        <time>2017-01-17T02:50:59Z</time>
      </trkpt>
      <trkpt lat="48.58501" lon="-1.58267">
        <ele>63</ele>
        <time>2017-01-17T02:52:59Z</time>
      </trkpt>
      <trkpt lat="48.58507" lon="-1.58268">
        <ele>63</ele>
        <time>2017-01-17T02:54:59Z</time>
      </trkpt>
      <trkpt lat="48.58518" lon="-1.58289">
        <ele>62</ele>
        <time>2017-01-17T02:56:59Z</time>
      </trkpt>
      <trkpt lat="48.58523" lon="-1.58301">
        <ele>62</ele>
        <time>2017-01-17T02:58:59Z</time>
      </trkpt>
      <trkpt lat="48.58532" lon="-1.58311">
        <ele>62</ele>
        <time>2017-01-17T03:00:59Z</time>
      </trkpt>
      <trkpt lat="48.5854" lon="-1.58321">
        <ele>61</ele>
        <time>2017-01-17T03:02:59Z</time>
      </trkpt>
      <trkpt lat="48.58546" lon="-1.58332">
        <ele>61</ele>
        <time>2017-01-17T03:04:59Z</time>
      </trkpt>
      <trkpt lat="48.58559" lon="-1.58356">
        <ele>60</ele>
        <time>2017-01-17T03:06:59Z</time>
      </trkpt>
      <trkpt lat="48.58565" lon="-1.58369">
        <ele>60</ele>
        <time>2017-01-17T03:08:59Z</time>
      </trkpt>
      <trkpt lat="48.58574" lon="-1.58382">
        <ele>60</ele>
        <time>2017-01-17T03:10:59Z</time>
      </trkpt>
      <trkpt lat="48.58579" lon="-1.58392">
        <ele>59</ele>
        <time>2017-01-17T03:12:59Z</time>
      </trkpt>
      <trkpt lat="48.58586" lon="-1.58402">
        <ele>59</ele>
        <time>2017-01-17T03:14:59Z</time>
      </trkpt>
      <trkpt lat="48.58594" lon="-1.58411">
        <ele>59</ele>
        <time>2017-01-17T03:16:59Z</time>
      </trkpt>
      <trkpt lat="48.58601" lon="-1.58423">
        <ele>58</ele>
        <time>2017-01-17T03:18:59Z</time>
      </trkpt>
      <trkpt lat="48.58608" lon="-1.58436">
        <ele>58</ele>
        <time>2017-01-17T03:20:59Z</time>
      </trkpt>
      <trkpt lat="48.58616" lon="-1.58448">
        <ele>58</ele>
        <time>2017-01-17T03:22:59Z</time>
      </trkpt>
      <trkpt lat="48.58623" lon="-1.58461">
        <ele>58</ele>
        <time>2017-01-17T03:24:59Z</time>
      </trkpt>
      <trkpt lat="48.58637" lon="-1.58486">
        <ele>58</ele>
        <time>2017-01-17T03:26:59Z</time>
      </trkpt>
      <trkpt lat="48.58645" lon="-1.58497">
        <ele>58</ele>
        <time>2017-01-17T03:28:59Z</time>
      </trkpt>
      <trkpt lat="48.58652" lon="-1.58509">
        <ele>58</ele>
        <time>2017-01-17T03:30:59Z</time>
      </trkpt>
      <trkpt lat="48.5866" lon="-1.5852">
        <ele>58</ele>
        <time>2017-01-17T03:32:59Z</time>
      </trkpt>
      <trkpt lat="48.58666" lon="-1.58532">
        <ele>58</ele>
        <time>2017-01-17T03:34:59Z</time>
      </trkpt>
      <trkpt lat="48.58671" lon="-1.58545">
        <ele>58</ele>
        <time>2017-01-17T03:36:59Z</time>
      </trkpt>
      <trkpt lat="48.58677" lon="-1.58557">
        <ele>58</ele>
        <time>2017-01-17T03:38:59Z</time>
      </trkpt>
      <trkpt lat="48.58687" lon="-1.58559">
        <ele>58</ele>
        <time>2017-01-17T03:40:59Z</time>
      </trkpt>
      <trkpt lat="48.58695" lon="-1.5855">
        <ele>58</ele>
        <time>2017-01-17T03:42:59Z</time>
      </trkpt>
      <trkpt lat="48.58703" lon="-1.5854">
        <ele>58</ele>
        <time>2017-01-17T03:44:59Z</time>
      </trkpt>
      <trkpt lat="48.58711" lon="-1.58528">
        <ele>58</ele>
        <time>2017-01-17T03:46:59Z</time>
      </trkpt>
      <trkpt lat="48.58712" lon="-1.58514">
        <ele>58</ele>
        <time>2017-01-17T03:48:59Z</time>
      </trkpt>
      <trkpt lat="48.58712" lon="-1.58499">
        <ele>57</ele>
        <time>2017-01-17T03:50:59Z</time>
      </trkpt>
      <trkpt lat="48.58713" lon="-1.58484">
        <ele>56</ele>
        <time>2017-01-17T03:52:59Z</time>
      </trkpt>
      <trkpt lat="48.58715" lon="-1.58469">
        <ele>55</ele>
        <time>2017-01-17T03:54:59Z</time>
      </trkpt>
      <trkpt lat="48.58718" lon="-1.58454">
        <ele>53</ele>
        <time>2017-01-17T03:56:59Z</time>
      </trkpt>
      <trkpt lat="48.58725" lon="-1.58419">
        <ele>50</ele>
        <time>2017-01-17T03:58:59Z</time>
      </trkpt>
      <trkpt lat="48.58731" lon="-1.58401">
        <ele>47</ele>
        <time>2017-01-17T04:00:59Z</time>
      </trkpt>
      <trkpt lat="48.58733" lon="-1.58385">
        <ele>44</ele>
        <time>2017-01-17T04:02:59Z</time>
      </trkpt>
      <trkpt lat="48.5873" lon="-1.58365">
        <ele>43</ele>
        <time>2017-01-17T04:04:59Z</time>
      </trkpt>
      <trkpt lat="48.58725" lon="-1.58347">
        <ele>42</ele>
        <time>2017-01-17T04:06:59Z</time>
      </trkpt>
      <trkpt lat="48.58722" lon="-1.58328">
        <ele>40</ele>
        <time>2017-01-17T04:08:59Z</time>
      </trkpt>
      <trkpt lat="48.5872" lon="-1.58311">
        <ele>39</ele>
        <time>2017-01-17T04:10:59Z</time>
      </trkpt>
      <trkpt lat="48.58724" lon="-1.58295">
        <ele>36</ele>
        <time>2017-01-17T04:12:59Z</time>
      </trkpt>
      <trkpt lat="48.5872" lon="-1.58276">
        <ele>35</ele>
        <time>2017-01-17T04:14:59Z</time>
      </trkpt>
      <trkpt lat="48.58713" lon="-1.58259">
        <ele>35</ele>
        <time>2017-01-17T04:16:59Z</time>
      </trkpt>
      <trkpt lat="48.58707" lon="-1.58241">
        <ele>34</ele>
        <time>2017-01-17T04:18:59Z</time>
      </trkpt>
      <trkpt lat="48.58705" lon="-1.58224">
        <ele>32</ele>
        <time>2017-01-17T04:20:59Z</time>
      </trkpt>
      <trkpt lat="48.58704" lon="-1.58205">
        <ele>30</ele>
        <time>2017-01-17T04:22:59Z</time>
      </trkpt>
      <trkpt lat="48.58702" lon="-1.5819">
        <ele>28</ele>
        <time>2017-01-17T04:24:59Z</time>
      </trkpt>
      <trkpt lat="48.58696" lon="-1.58161">
        <ele>26</ele>
        <time>2017-01-17T04:26:59Z</time>
      </trkpt>
      <trkpt lat="48.58693" lon="-1.58146">
        <ele>25</ele>
        <time>2017-01-17T04:28:59Z</time>
      </trkpt>
      <trkpt lat="48.58689" lon="-1.58132">
        <ele>24</ele>
        <time>2017-01-17T04:30:59Z</time>
      </trkpt>
      <trkpt lat="48.58685" lon="-1.58119">
        <ele>24</ele>
        <time>2017-01-17T04:32:59Z</time>
      </trkpt>
      <trkpt lat="48.5868" lon="-1.58094">
        <ele>22</ele>
        <time>2017-01-17T04:34:59Z</time>
      </trkpt>
      <trkpt lat="48.58676" lon="-1.58082">
        <ele>21</ele>
        <time>2017-01-17T04:36:59Z</time>
      </trkpt>
      <trkpt lat="48.58676" lon="-1.58068">
        <ele>20</ele>
        <time>2017-01-17T04:38:59Z</time>
      </trkpt>
      <trkpt lat="48.58677" lon="-1.58054">
        <ele>19</ele>
        <time>2017-01-17T04:40:59Z</time>
      </trkpt>
      <trkpt lat="48.58681" lon="-1.58042">
        <ele>17</ele>
        <time>2017-01-17T04:42:59Z</time>
      </trkpt>
      <trkpt lat="48.5869" lon="-1.58033">
        <ele>15</ele>
        <time>2017-01-17T04:44:59Z</time>
      </trkpt>
      <trkpt lat="48.58698" lon="-1.58036">
        <ele>14</ele>
        <time>2017-01-17T04:46:59Z</time>
      </trkpt>
      <trkpt lat="48.58705" lon="-1.58047">
        <ele>14</ele>
        <time>2017-01-17T04:48:59Z</time>
      </trkpt>
      <trkpt lat="48.58713" lon="-1.58058">
        <ele>13</ele>
        <time>2017-01-17T04:50:59Z</time>
      </trkpt>
      <trkpt lat="48.5872" lon="-1.58069">
        <ele>13</ele>
        <time>2017-01-17T04:52:59Z</time>
      </trkpt>
      <trkpt lat="48.58726" lon="-1.58081">
        <ele>12</ele>
        <time>2017-01-17T04:54:59Z</time>
      </trkpt>
      <trkpt lat="48.58739" lon="-1.58102">
        <ele>11</ele>
        <time>2017-01-17T04:56:59Z</time>
      </trkpt>
      <trkpt lat="48.58746" lon="-1.58113">
        <ele>11</ele>
        <time>2017-01-17T04:58:59Z</time>
      </trkpt>
      <trkpt lat="48.58752" lon="-1.58125">
        <ele>11</ele>
        <time>2017-01-17T05:00:59Z</time>
      </trkpt>
      <trkpt lat="48.58758" lon="-1.58135">
        <ele>11</ele>
        <time>2017-01-17T05:02:59Z</time>
      </trkpt>
      <trkpt lat="48.58765" lon="-1.58147">
        <ele>11</ele>
        <time>2017-01-17T05:04:59Z</time>
      </trkpt>
      <trkpt lat="48.58772" lon="-1.58157">
        <ele>12</ele>
        <time>2017-01-17T05:06:59Z</time>
      </trkpt>
      <trkpt lat="48.58784" lon="-1.58179">
        <ele>12</ele>
        <time>2017-01-17T05:08:59Z</time>
      </trkpt>
      <trkpt lat="48.58791" lon="-1.58189">
        <ele>12</ele>
        <time>2017-01-17T05:10:59Z</time>
      </trkpt>
      <trkpt lat="48.58797" lon="-1.58201">
        <ele>12</ele>
        <time>2017-01-17T05:12:59Z</time>
      </trkpt>
      <trkpt lat="48.58803" lon="-1.58213">
        <ele>12</ele>
        <time>2017-01-17T05:14:59Z</time>
      </trkpt>
      <trkpt lat="48.58809" lon="-1.58224">
        <ele>12</ele>
        <time>2017-01-17T05:16:59Z</time>
      </trkpt>
      <trkpt lat="48.58816" lon="-1.58234">
        <ele>11</ele>
        <time>2017-01-17T05:18:59Z</time>
      </trkpt>
      <trkpt lat="48.58821" lon="-1.58246">
        <ele>11</ele>
        <time>2017-01-17T05:20:59Z</time>
      </trkpt>
      <trkpt lat="48.58829" lon="-1.58258">
        <ele>10</ele>
        <time>2017-01-17T05:22:59Z</time>
      </trkpt>
      <trkpt lat="48.58843" lon="-1.5828">
        <ele>10</ele>
        <time>2017-01-17T05:24:59Z</time>
      </trkpt>
      <trkpt lat="48.58848" lon="-1.58292">
        <ele>11</ele>
        <time>2017-01-17T05:26:59Z</time>
      </trkpt>
      <trkpt lat="48.58862" lon="-1.58313">
        <ele>11</ele>
        <time>2017-01-17T05:28:59Z</time>
      </trkpt>
      <trkpt lat="48.58874" lon="-1.58337">
        <ele>11</ele>
        <time>2017-01-17T05:30:59Z</time>
      </trkpt>
      <trkpt lat="48.58885" lon="-1.58363">
        <ele>11</ele>
        <time>2017-01-17T05:32:59Z</time>
      </trkpt>
      <trkpt lat="48.58891" lon="-1.58375">
        <ele>11</ele>
        <time>2017-01-17T05:34:59Z</time>
      </trkpt>
      <trkpt lat="48.58906" lon="-1.58399">
        <ele>9</ele>
        <time>2017-01-17T05:36:59Z</time>
      </trkpt>
      <trkpt lat="48.58912" lon="-1.58411">
        <ele>9</ele>
        <time>2017-01-17T05:38:59Z</time>
      </trkpt>
      <trkpt lat="48.58917" lon="-1.58423">
        <ele>8</ele>
        <time>2017-01-17T05:40:59Z</time>
      </trkpt>
      <trkpt lat="48.58923" lon="-1.58435">
        <ele>9</ele>
        <time>2017-01-17T05:42:59Z</time>
      </trkpt>
      <trkpt lat="48.58927" lon="-1.58447">
        <ele>9</ele>
        <time>2017-01-17T05:44:59Z</time>
      </trkpt>
      <trkpt lat="48.5892" lon="-1.58457">
        <ele>10</ele>
        <time>2017-01-17T05:46:59Z</time>
      </trkpt>
      <trkpt lat="48.58914" lon="-1.58466">
        <ele>12</ele>
        <time>2017-01-17T05:48:59Z</time>
      </trkpt>
      <trkpt lat="48.58916" lon="-1.58474">
        <ele>12</ele>
        <time>2017-01-17T05:50:59Z</time>
      </trkpt>
    </trkseg>
  </trk>
</gpx>